[[{"header":{"parameterUnit":"m.s-1","parameterCategory":1,"la1":30.6,"la2":28.766,"lo1":-90.7593,"lo2":-88.6598,"dy":0.0162,"dx":0.0183,"nx":116,"ny":114,"refTime":"2023-11-17T06:00:00:Z","depth":0,"parameterNumber":2,"parameterNumberName":"U-component_of_WINDS"},"data":[0.0,0.0,0.0,0.0,0.0,0.0,0.0,0.0,0.0,0.0,0.0,0.0,0.0,0.0,0.0,0.0,0.0,0.0,0.0,0.0,0.0,0.0,0.0,0.0,0.0,0.0,0.0,0.0,0.0,0.0,0.0,0.0,0.0,0.0,0.0,0.0,0.0,0.0,0.0,0.0,0.0,0.0,0.0,0.0,0.0,0.0,0.0,0.0,0.0,0.0,0.0,0.0,0.0,0.0,0.0,0.0,0.0,0.0,0.0,0.0,0.0,0.0,0.0,0.0,0.0,0.0,0.0,0.0,0.0,0.0,0.0,0.0,0.0,0.0,0.0,0.0,0.0,0.0,0.0,0.0,0.0,0.0,0.0,0.0,0.0,0.0,0.0,0.0,0.0,0.0,0.0,0.0,0.0,0.0,0.0,0.0,0.0,0.0,0.0,0.0,0.0,0.0,0.0,0.0,0.0,0.0,0.0,0.0,0.0,0.0,0.0,0.0,0.0,0.0,0.0,0.0,0.0,0.0,0.0,0.0,0.0,0.0,0.0,0.0,0.0,0.0,0.0,0.0,0.0,0.0,0.0,0.0,0.0,0.0,0.0,0.0,0.0,0.0,0.0,0.0,0.0,0.0,0.0,0.0,0.0,0.0,0.0,0.0,0.0,0.0,0.0,0.0,0.0,0.0,0.0,0.0,0.0,0.0,0.0,0.0,0.0,0.0,0.0,0.0,0.0,0.0,0.0,0.0,0.0,0.0,0.0,0.0,0.0,0.0,0.0,0.0,0.0,0.0,0.0,0.0,0.0,0.0,0.0,0.0,0.0,0.0,0.0,0.0,0.0,0.0,0.0,0.0,0.0,0.0,0.0,0.0,0.0,0.0,0.0,0.0,0.0,0.0,0.0,0.0,0.0,0.0,0.0,0.0,0.0,0.0,0.0,0.0,0.0,0.0,0.0,0.0,0.0,0.0,0.0,0.0,0.0,0.0,0.0,0.0,0.0,0.0,0.0,0.0,0.0,0.0,0.0,0.0,0.0,0.0,0.0,0.0,0.0,0.0,0.0,0.0,0.0,0.0,0.0,0.0,0.0,0.0,0.0,0.0,0.0,0.0,0.0,0.0,0.0,0.0,0.0,0.0,0.0,0.0,0.0,0.0,0.0,0.0,0.0,0.0,0.0,0.0,0.0,0.0,0.0,0.0,0.0,0.0,0.0,0.0,0.0,0.0,0.0,0.0,0.0,0.0,0.0,0.0,0.0,0.0,0.0,0.0,0.0,0.0,0.0,0.0,0.0,0.0,0.0,0.0,0.0,0.0,0.0,0.0,0.0,0.0,0.0,0.0,0.0,0.0,0.0,0.0,0.0,0.0,0.0,0.0,0.0,0.0,0.0,0.0,0.0,0.0,0.0,0.0,0.0,0.0,0.0,0.0,0.0,0.0,0.0,0.0,0.0,0.0,0.0,0.0,0.0,0.0,0.0,0.0,0.0,0.0,0.0,0.0,0.0,0.0,0.0,0.0,0.0,0.0,0.0,0.0,0.0,0.0,0.0,0.0,0.0,0.0,0.0,0.0,0.0,0.0,0.0,0.0,0.0,0.0,0.0,0.0,0.0,0.0,0.0,0.0,0.0,0.0,0.0,0.0,0.0,0.0,0.0,0.0,0.0,0.0,0.0,0.0,0.0,0.0,0.0,0.0,0.0,0.0,0.0,0.0,0.0,0.0,0.0,0.0,0.0,0.0,0.0,0.0,0.0,0.0,0.0,0.0,0.0,0.0,0.0,0.0,0.0,0.0,0.0,0.0,0.0,0.0,0.0,0.0,0.0,0.0,0.0,0.0,0.0,0.0,0.0,0.0,0.0,0.0,0.0,0.0,0.0,0.0,0.0,0.0,0.0,0.0,0.0,0.0,0.0,0.0,0.0,0.0,0.0,0.0,0.0,0.0,0.0,0.0,0.0,0.0,0.0,0.0,0.0,0.0,0.0,0.0,0.0,0.0,0.0,0.0,0.0,0.0,0.0,0.0,0.0,0.0,0.0,0.0,0.0,0.0,0.0,0.0,0.0,0.0,0.0,0.0,0.0,0.0,0.0,0.0,0.0,0.0,0.0,0.0,0.0,0.0,0.0,0.0,0.0,0.0,0.0,0.0,0.0,0.0,0.0,0.0,0.0,0.0,0.0,0.0,0.0,0.0,0.0,0.0,0.0,0.0,0.0,0.0,0.0,0.0,0.0,0.0,0.0,0.0,0.0,0.0,0.0,0.0,0.0,0.0,0.0,0.0,0.0,0.0,0.0,0.0,0.0,0.0,0.0,0.0,0.0,0.0,0.0,0.0,0.0,0.0,0.0,0.0,0.0,0.0,0.0,0.0,0.0,0.0,0.0,0.0,0.0,0.0,0.0,0.0,0.0,0.0,0.0,0.0,0.0,0.0,0.0,0.0,0.0,0.0,0.0,0.0,0.0,0.0,0.0,0.0,0.0,0.0,0.0,0.0,0.0,0.0,0.0,0.0,0.0,0.0,0.0,0.0,0.0,0.0,0.0,0.0,0.0,0.0,0.0,0.0,0.0,0.0,0.0,0.0,0.0,0.0,0.0,0.0,0.0,0.0,0.0,0.0,0.0,0.0,0.0,0.0,0.0,0.0,0.0,0.0,0.0,0.0,0.0,0.0,0.0,0.0,0.0,0.0,0.0,0.0,0.0,0.0,0.0,0.0,0.0,0.0,0.0,0.0,0.0,0.0,0.0,0.0,0.0,0.0,0.0,0.0,0.0,0.0,0.0,0.0,0.0,0.0,0.0,0.0,0.0,0.0,0.0,0.0,0.0,0.0,0.0,0.0,0.0,0.0,0.0,0.0,0.0,0.0,0.0,0.0,0.0,0.0,0.0,0.0,0.0,0.0,0.0,0.0,0.0,0.0,0.0,0.0,0.0,0.0,0.0,0.0,0.0,0.0,0.0,0.0,0.0,0.0,0.0,0.0,0.0,0.0,0.0,0.0,0.0,0.0,0.0,0.0,0.0,0.0,0.0,0.0,0.0,0.0,0.0,0.0,0.0,0.0,0.0,0.0,0.0,0.0,0.0,0.0,0.0,0.0,0.0,0.0,0.0,0.0,0.0,0.0,0.0,0.0,0.0,0.0,0.0,0.0,0.0,0.0,0.0,0.0,0.0,0.0,0.0,0.0,0.0,0.0,0.0,0.0,0.0,0.0,0.0,0.0,0.0,0.0,0.0,0.0,0.0,0.0,0.0,0.0,0.0,0.0,0.0,0.0,0.0,0.0,0.0,0.0,0.0,0.0,0.0,0.0,0.0,0.0,0.0,0.0,0.0,0.0,0.0,0.0,0.0,0.0,0.0,0.0,0.0,0.0,0.0,0.0,0.0,0.0,0.0,0.0,0.0,0.0,0.0,0.0,0.0,0.0,0.0,0.0,0.0,0.0,0.0,0.0,0.0,0.0,0.0,0.0,0.0,0.0,0.0,0.0,0.0,0.0,0.0,0.0,0.0,0.0,0.0,0.0,0.0,0.0,0.0,0.0,0.0,0.0,0.0,0.0,0.0,0.0,0.0,0.0,0.0,0.0,0.0,0.0,0.0,0.0,0.0,0.0,0.0,0.0,0.0,0.0,0.0,0.0,0.0,0.0,0.0,0.0,0.0,0.0,0.0,0.0,0.0,0.0,0.0,0.0,0.0,0.0,0.0,0.0,0.0,0.0,0.0,0.0,0.0,0.0,0.0,0.0,0.0,0.0,0.0,0.0,0.0,0.0,0.0,0.0,0.0,0.0,0.0,0.0,0.0,0.0,0.0,0.0,0.0,0.0,0.0,0.0,0.0,0.0,0.0,0.0,0.0,0.0,0.0,0.0,0.0,0.0,0.0,0.0,0.0,0.0,0.0,0.0,0.0,0.0,0.0,0.0,0.0,0.0,0.0,0.0,0.0,0.0,0.0,0.0,0.0,0.0,0.0,0.0,0.0,0.0,0.0,0.0,0.0,0.0,0.0,0.0,0.0,0.0,0.0,0.0,0.0,0.0,0.0,0.0,0.0,0.0,0.0,0.0,0.0,0.0,0.0,0.0,0.0,0.0,0.0,0.0,0.0,0.0,0.0,0.0,0.0,0.0,0.0,0.0,0.0,0.0,0.0,0.0,0.0,0.0,0.0,0.0,0.0,0.0,0.0,0.0,0.0,0.0,0.0,0.0,0.0,0.0,0.0,0.0,0.0,0.0,0.0,0.0,0.0,0.0,0.0,0.0,0.0,0.0,0.0,0.0,0.0,0.0,0.0,0.0,0.0,0.0,0.0,0.0,0.0,0.0,0.0,0.0,0.0,0.0,0.0,0.0,0.0,0.0,0.0,0.0,0.0,0.0,0.0,0.0,0.0,0.0,0.0,0.0,0.0,0.0,0.0,0.0,0.0,0.0,0.0,0.0,0.0,0.0,0.0,0.0,0.0,0.0,0.0,0.0,0.0,0.0,0.0,0.0,0.0,0.0,0.0,0.0,0.0,0.0,0.0,0.0,0.0,0.0,0.0,0.0,0.0,0.0,0.0,0.0,0.0,0.0,0.0,0.0,0.0,0.0,0.0,0.0,0.0,0.0,0.0,0.0,0.0,0.0,0.0,0.0,0.0,0.0,0.0,0.0,0.0,0.0,0.0,0.0,0.0,0.0,0.0,0.0,0.0,0.0,0.0,0.0,0.0,0.0,0.0,0.0,0.0,0.0,0.0,0.0,0.0,0.0,0.0,0.0,0.0,0.0,0.0,0.0,0.0,0.0,0.0,0.0,0.0,0.0,0.0,0.0,0.0,0.0,0.0,0.0,0.0,0.0,0.0,0.0,0.0,0.0,0.0,0.0,0.0,0.0,0.0,0.0,0.0,0.0,0.0,0.0,0.0,0.0,0.0,0.0,0.0,0.0,0.0,0.0,0.0,0.0,0.0,0.0,0.0,0.0,0.0,0.0,0.0,0.0,0.0,0.0,0.0,0.0,0.0,0.0,0.0,0.0,0.0,0.0,0.0,0.0,0.0,0.0,0.0,0.0,0.0,0.0,0.0,0.0,0.0,0.0,0.0,0.0,0.0,0.0,0.0,0.0,0.0,0.0,0.0,0.0,0.0,0.0,0.0,0.0,0.0,0.0,0.0,0.0,0.0,0.0,0.0,0.0,0.0,0.0,0.0,0.0,0.0,0.0,0.0,0.0,0.0,0.0,0.0,0.0,0.0,0.0,0.0,0.0,0.0,0.0,0.0,0.0,0.0,0.0,0.0,0.0,0.0,0.0,0.0,0.0,0.0,0.0,0.0,0.0,0.0,0.0,0.0,0.0,0.0,0.0,0.0,0.0,0.0,0.0,0.0,0.0,0.0,0.0,0.0,0.0,0.0,0.0,0.0,0.0,0.0,0.0,0.0,0.0,0.0,0.0,0.0,0.0,0.0,0.0,0.0,0.0,0.0,0.0,0.0,0.0,0.0,0.0,0.0,0.0,0.0,0.0,0.0,0.0,0.0,0.0,0.0,0.0,0.0,0.0,0.0,0.0,0.0,0.0,0.0,0.0,0.0,0.0,0.0,0.0,0.0,0.0,0.0,0.0,0.0,0.0,0.0,0.0,0.0,0.0,0.0,0.0,0.0,0.0,0.0,0.0,0.0,0.0,0.0,0.0,0.0,0.0,0.0,0.0,0.0,0.0,0.0,0.0,0.0,0.0,0.0,0.0,0.0,0.0,0.0,0.0,0.0,0.0,0.0,0.0,0.0,0.0,0.0,0.0,0.0,0.0,0.0,0.0,0.0,0.0,0.0,0.0,0.0,0.0,0.0,0.0,0.0,0.0,0.0,0.0,0.0,0.0,0.0,0.0,0.0,0.0,0.0,0.0,0.0,0.0,0.0,0.0,0.0,0.0,0.0,0.0,0.0,0.0,0.0,0.0,0.0,0.0,0.0,0.0,0.0,0.0,0.0,0.0,0.0,0.0,0.0,0.0,0.0,0.0,0.0,0.0,0.0,0.0,0.0,0.0,0.0,0.0,0.0,0.0,0.0,0.0,0.0,0.0,0.0,0.0,0.0,0.0,0.0,0.0,0.0,0.0,0.0,0.0,0.0,0.0,0.0,0.0,-0.2155,0.0,0.0,0.0,0.0,0.0,0.0,0.0,0.0,0.0,0.0,0.0,0.0,0.0,0.0,0.0,0.0,0.0,0.0,0.0,0.0,0.0,0.0,0.0,0.0,0.0,0.0,0.0,0.0,0.0,0.0,0.0,0.0,0.0,0.0,0.0,0.0,0.0,0.0,2.5459,2.599,2.6933,2.8096,2.7041,2.6282,2.5972,0.0,0.0,0.0,0.0,0.0,0.0,0.0,0.0,0.0,0.0,0.0,0.0,0.0,0.0,0.0,0.0,0.0,0.0,0.0,0.0,0.0,0.0,0.0,0.0,0.0,0.0,0.0,0.0,0.0,0.0,0.0,0.0,0.0,0.0,0.0,0.0,0.0,0.0,0.0,0.0,0.0,0.0,0.0,0.0,0.0,0.0,0.0,0.0,0.0,0.0,0.0,0.0,0.0,0.0,0.0,0.0,0.0,0.0,0.0,0.0,0.0,0.0,0.0,0.0,0.0,0.0,0.0,0.0,0.0,0.0,0.0,-0.2908,0.0,0.0,0.0,0.0,0.0,0.0,0.0,0.0,0.0,0.0,0.0,0.0,0.0,0.0,0.0,0.0,0.0,0.0,0.0,0.0,0.0,0.0,0.0,3.0843,3.0408,3.0036,2.9994,2.9994,0.0,0.0,0.0,0.0,0.0,0.0,2.6626,2.5661,2.5221,2.5551,2.6717,2.7883,2.882,2.8096,2.7473,2.6933,2.5441,0.0,0.0,0.0,0.0,0.0,0.0,0.0,0.0,0.0,0.0,0.0,0.0,0.0,0.0,0.0,0.0,0.0,0.0,0.0,0.0,0.0,0.0,0.0,0.0,0.0,0.0,0.0,0.0,0.0,0.0,0.0,0.0,0.0,0.0,0.0,0.0,0.0,0.0,0.0,0.0,0.0,0.0,0.0,0.0,0.0,0.0,0.0,0.0,0.0,0.0,0.0,0.0,0.0,0.0,0.0,0.0,0.0,0.0,0.0,0.0,0.0,0.0,0.0,-0.2289,-0.2558,-0.2828,-0.2828,-0.3092,-0.3613,-0.3269,-0.3819,-0.5081,-0.5559,0.0,0.0,0.0,0.0,0.0,0.0,0.0,0.0,0.0,0.0,0.0,0.0,0.0,0.0,0.0,0.0,0.0,0.0,0.0,0.0,0.0,3.0367,3.0056,2.9994,2.9994,2.9994,2.9994,0.0,0.0,0.0,2.8155,0.0,2.7276,2.5679,2.5441,2.6717,2.831,2.884,2.8329,2.7688,2.7384,2.7276,2.5771,2.511,2.511,0.0,0.0,0.0,0.0,0.0,0.0,0.0,0.0,0.0,0.0,0.0,0.0,0.0,0.0,0.0,0.0,0.0,0.0,0.0,0.0,0.0,0.0,0.0,0.0,0.0,0.0,0.0,0.0,0.0,0.0,0.0,0.0,0.0,0.0,0.0,0.0,0.0,0.0,0.0,0.0,0.0,1.0419,0.8851,0.0,0.0,0.0,0.0,0.0,0.0,0.0,0.0,0.0,0.0,0.0,0.0,0.0,-0.0403,-0.1885,-0.2425,-0.2694,-0.2694,-0.2961,-0.3094,-0.3094,-0.3094,-0.4003,-0.5398,-0.5381,0.0,-0.5492,-0.68,0.0,0.0,0.0,0.0,0.0,0.0,0.0,0.0,0.0,0.0,0.0,0.0,0.0,0.0,0.0,0.0,0.0,0.0,0.0,0.0,0.0,3.058,3.0495,3.0495,3.0495,3.0495,3.0495,2.9764,2.9026,2.8581,2.7384,2.6409,2.6008,2.599,2.7041,2.9242,2.9367,2.9577,2.9786,2.8329,2.758,2.7384,2.5881,2.5128,2.5017,2.4812,0.0,0.0,0.0,0.0,0.0,0.0,0.0,0.0,0.0,0.0,0.0,0.0,0.0,0.0,0.0,0.0,0.0,0.0,0.0,0.0,0.0,0.0,0.0,0.0,0.0,0.0,0.0,0.0,0.0,0.0,0.0,0.0,0.0,0.0,0.0,0.0,0.0,0.0,0.0,1.1446,1.0174,0.8717,0.8456,0.8323,0.0,0.0,0.0,0.0,0.0,0.0,0.0,0.0,0.0,0.0134,-0.0134,-0.0941,-0.2425,-0.2827,-0.2961,-0.2961,-0.3094,-0.3362,-0.3497,-0.3468,-0.3991,-0.5056,-0.6587,-0.7192,-0.714,-0.8563,-0.9561,-1.0306,0.0,0.0,0.0,0.0,-1.2475,-1.2475,0.0,0.0,0.0,0.0,0.0,0.0,0.0,0.0,0.0,0.0,0.0,0.0,3.0766,3.0915,3.0991,3.0991,3.0991,3.0991,3.0785,2.9848,2.8794,2.7814,2.6952,2.599,2.5128,2.6518,2.8203,3.0099,2.9577,2.9472,2.9682,2.799,2.7041,2.6735,2.5661,2.5017,2.4923,2.4812,2.4812,2.4701,0.0,0.0,0.0,0.0,0.0,0.0,0.0,0.0,0.0,0.0,0.0,0.0,0.0,0.0,0.0,0.0,0.0,0.0,0.0,0.0,0.0,0.0,0.0,0.0,0.0,0.0,0.0,0.0,0.0,0.0,0.0,0.0,0.0,0.0,0.0,0.0,0.0,1.0041,0.9643,0.859,0.8189,0.7927,0.0,0.0,0.0,0.0,0.0,0.0,0.161,0.1612,0.0806,-0.0672,-0.0941,-0.1615,-0.2827,-0.323,-0.3362,-0.3362,-0.3497,-0.3633,-0.3902,-0.386,-0.4395,-0.5506,-0.7524,-0.8779,-0.9423,-1.0479,-1.1358,-1.2217,-1.2473,-1.2504,-1.2499,-1.2812,-1.2915,-1.2915,0.0,0.0,0.0,0.0,0.0,0.0,0.0,0.0,0.0,0.0,0.0,3.1359,3.087,3.1219,3.1527,3.1527,3.1527,3.13,3.0785,3.0681,3.0057,2.8688,2.7814,2.6952,2.6082,2.7365,2.7902,2.7599,2.8329,2.7795,2.6008,2.5551,2.5331,2.5331,2.4923,2.4906,2.511,2.4923,2.4812,2.4812,2.4812,0.0,0.0,0.0,0.0,0.0,0.0,0.0,0.0,0.0,0.0,0.0,0.0,0.0,0.0,0.0,0.0,0.0,0.0,0.0,0.0,0.0,0.0,0.0,0.0,0.0,0.0,0.0,0.0,0.0,0.0,0.0,0.0,0.0,0.0,0.0,0.0,0.0,0.0,0.8189,0.7794,0.0,0.0,0.0,0.0,0.43,0.2954,0.1477,0.0134,0.0134,-0.0672,-0.2559,-0.2559,-0.2827,-0.3228,-0.3633,-0.3768,-0.3768,-0.4037,-0.4308,-0.4308,-0.4303,-0.5774,-0.8435,-0.8312,-0.9818,-1.2435,-1.2419,-1.257,-1.2775,-1.2775,-1.3026,-1.3376,-1.3446,-1.3496,-1.3469,0.0,0.0,0.0,0.0,0.0,0.0,0.0,0.0,3.329,3.2599,3.1913,3.1317,3.0849,3.13,3.1424,3.1094,3.1403,3.1403,3.0785,3.0785,2.9932,2.7921,2.8135,2.8455,2.884,2.9262,2.9577,2.9786,2.9071,2.7902,2.6409,2.5551,2.5128,2.4923,2.4812,2.4812,2.4923,2.4812,2.4949,2.5172,2.4721,2.44,0.0,0.0,0.0,0.0,0.0,0.0,0.0,0.0,0.0,0.0,0.0,0.0,0.0,0.0,0.0,0.0,0.0,0.0,0.0,0.0,0.0,0.0,0.0,0.0,0.0,0.0,0.0,0.0,0.0,0.0,0.0,0.0,0.0,0.0,0.0,0.0,0.0,0.7794,0.7388,0.0,0.6987,0.4562,0.3088,0.2954,0.0672,-0.0941,-0.1346,-0.1615,-0.2019,-0.2694,-0.3098,-0.3499,-0.3633,-0.3902,-0.4171,-0.4171,-0.4308,-0.4308,-0.4305,-0.4799,-0.5859,-0.7636,-0.8967,-1.0397,-1.218,-1.2863,-1.3097,-1.2809,-1.3444,-1.3591,-1.3491,-1.3788,-1.3798,-1.3667,0.0,0.0,0.0,0.0,0.0,0.0,0.0,0.0,3.2964,3.3009,3.2189,3.1524,3.156,3.1819,3.171,3.1403,3.1505,3.1403,3.0785,3.0785,2.9932,2.7921,2.8155,2.8774,3.0016,2.9807,2.9911,3.0099,2.886,2.758,2.6191,2.5441,2.5017,2.4812,2.4812,2.4898,2.5001,2.5001,2.5138,2.5378,2.504,2.4779,2.429,0.0,0.0,0.0,0.0,0.0,0.0,0.0,0.0,0.0,0.0,0.0,0.0,0.0,0.0,0.0,0.0,0.0,0.0,0.0,0.0,0.0,0.0,0.0,0.0,0.0,0.0,0.0,0.0,0.0,0.0,0.0,0.0,0.0,0.0,0.0,0.7794,0.7388,0.6987,0.6853,0.6853,0.4026,0.2147,0.2147,-0.0538,-0.229,-0.2425,-0.2559,-0.2828,-0.3098,-0.3499,-0.3902,-0.3902,-0.4174,-0.4442,-0.4711,-0.4711,-0.4842,-0.4977,-0.5461,-0.6519,-0.8163,-0.9496,-1.0925,-1.2449,-1.3388,-1.3479,-1.3187,-1.3825,-1.3852,-1.3729,-1.391,-1.392,-1.3788,0.0,0.0,0.0,0.0,0.0,0.0,0.0,3.2406,3.1746,3.2738,3.2103,3.2009,3.3034,3.2734,3.2319,3.2319,3.1812,3.1322,3.0785,3.0785,3.0162,2.8794,2.7921,2.8135,2.9533,2.9006,2.8562,2.8223,2.7599,2.6536,2.4812,2.4812,2.483,2.483,2.483,2.5052,2.5395,2.5395,2.5395,2.5429,2.5806,2.5611,2.4943,0.0,0.0,0.0,0.0,0.0,0.0,0.0,0.0,0.0,0.0,0.0,0.0,0.0,0.0,0.0,0.0,0.0,0.0,0.0,0.0,0.0,0.0,0.0,0.0,0.0,0.0,0.0,0.0,0.0,0.0,0.0,0.0,0.0,0.8323,0.7794,0.7393,0.6987,0.6719,0.6455,0.6455,0.3892,0.2147,0.2147,-0.0538,-0.2425,-0.2694,-0.2694,-0.3098,-0.3768,-0.3768,-0.4037,-0.4308,-0.4308,-0.4711,-0.5379,-0.5383,-0.5781,-0.6451,-0.6451,-0.7779,-1.0154,-1.0019,-1.1394,-1.3602,-1.3988,-1.3998,-1.3815,-1.3815,-1.4057,-1.4279,-1.4081,-1.4005,-1.3967,0.0,0.0,0.0,0.0,0.0,0.0,0.0,3.2717,3.238,3.3377,3.242,3.1907,3.2493,3.2119,3.1527,3.0703,3.0909,3.0806,3.0287,3.0578,3.0474,2.9659,2.9217,2.9408,3.0474,2.9638,2.888,2.8223,2.706,2.5881,2.4812,2.4812,2.4967,2.5223,2.5223,2.5429,2.5806,2.6062,2.6182,2.6182,2.6302,2.6135,2.5786,0.0,0.0,0.0,0.0,0.0,0.0,0.0,0.0,0.0,0.0,0.0,0.0,0.0,0.0,0.0,0.0,0.0,0.0,0.0,0.0,0.0,0.0,0.0,0.0,0.0,0.0,0.0,0.0,0.0,0.0,0.0,1.1622,0.9908,0.9238,0.8051,0.6987,0.6719,0.6589,0.6455,0.6455,0.3895,0.2147,0.2147,-0.0807,-0.2559,-0.2694,-0.323,-0.3633,-0.3768,-0.4037,-0.4174,-0.4308,-0.4845,-0.5248,-0.5379,-0.5915,-0.6183,-0.6451,-0.6982,-0.8046,-0.9498,-1.0788,-1.2088,-1.3396,-1.4171,-1.4473,-1.4416,-1.4416,-1.4238,-1.409,-1.4033,-1.391,-1.3769,0.0,0.0,0.0,0.0,0.0,0.0,0.0,3.2606,3.2335,3.3857,3.2634,3.1994,3.2989,3.2148,3.1219,3.0391,3.0391,3.0287,2.9994,3.0287,3.0287,2.9994,2.9764,2.9973,3.0495,2.9973,2.9323,2.8455,2.7276,2.6209,2.5348,2.519,2.5172,2.5378,2.5532,2.5823,2.6182,2.6405,2.6576,2.673,2.673,2.6627,2.6449,2.5717,2.5103,2.4363,2.3106,2.223,2.1488,2.0969,0.0,0.0,0.0,0.0,0.0,0.0,0.0,0.0,0.0,0.0,0.0,0.0,0.0,0.0,0.0,0.0,0.0,0.0,0.0,0.0,0.0,0.0,0.0,0.0,1.03,0.8984,0.8712,0.7784,0.6853,0.6585,0.6455,0.6455,0.6455,0.4431,0.2819,0.2147,-0.0134,-0.2018,-0.2827,-0.3365,-0.3633,-0.4037,-0.4174,-0.4308,-0.4308,-0.4977,-0.5517,-0.5781,-0.6585,-0.6987,-0.7388,-0.7784,-0.8579,-0.9637,-1.1094,-1.2421,-1.3333,-1.428,-1.4704,0.0,0.0,0.0,0.0,0.0,-1.3797,-1.3693,0.0,0.0,0.0,0.0,0.0,0.0,0.0,3.2337,3.2175,3.4137,3.2918,3.2317,3.3621,3.2575,3.1468,3.0806,3.0287,2.9994,2.9994,3.0099,3.0099,2.9994,2.9994,2.9994,2.9994,2.9889,2.9448,2.8688,2.7872,2.7027,2.6172,2.5804,2.556,2.5515,2.5857,2.6199,2.6559,2.6559,2.6747,2.7073,2.7073,2.7073,2.7073,2.6327,2.5717,2.5103,2.4224,2.3106,2.1853,2.1727,0.0,0.0,0.0,0.0,0.0,0.0,0.0,0.0,0.0,0.0,0.0,0.0,0.0,0.0,0.0,0.0,0.0,0.0,0.0,0.0,0.0,0.0,0.0,0.0,0.8984,0.7526,0.7526,0.7121,0.6853,0.6585,0.6455,0.6455,0.6455,0.5108,0.3761,0.2417,0.0806,-0.0941,-0.2825,0.0,0.0,0.0,0.0,-0.4308,-0.4308,-0.4977,-0.5781,-0.6451,-0.7116,-0.7917,-0.859,-0.859,-0.9117,-1.0041,-1.1233,-1.2289,-1.321,-1.4399,-1.4827,-1.4648,-1.4402,-1.4185,-1.3986,-1.3797,-1.3712,-1.3693,0.0,0.0,0.0,0.0,0.0,0.0,0.0,3.2271,3.2329,3.3663,3.3182,3.2746,3.262,3.2336,3.1733,3.0329,3.0099,2.9994,2.9994,3.0391,3.0495,2.9994,2.9994,2.9994,2.9994,2.9343,2.89,2.8688,2.818,2.7455,2.6587,2.687,2.6654,2.6268,2.6354,2.6593,2.6953,2.6953,2.7004,2.7073,2.7073,2.7073,2.6952,2.5717,2.5594,2.57,2.3976,2.3479,2.3479,2.2981,2.2104,2.1348,2.1348,2.0589,0.0,0.0,0.0,0.0,0.0,0.0,0.0,0.0,0.0,0.0,0.0,0.0,0.0,0.0,0.0,0.0,0.0,0.0,0.0,1.2405,0.9637,0.7526,0.7526,0.6991,0.6589,0.6455,0.6455,0.6455,0.6455,0.5108,0.4166,0.3897,0.1209,-0.0672,-0.1478,-0.2825,-0.3902,-0.4308,-0.4308,-0.4308,-0.4308,-0.4977,-0.5781,-0.6451,0.0,0.0,-0.859,-0.859,-0.8717,-0.8984,-1.0969,-1.1894,-1.2289,-1.4137,-1.4912,-1.4837,-1.4459,-1.4185,-1.4005,-1.3967,-1.3835,-1.3712,0.0,0.0,0.0,0.0,0.0,0.0,0.0,3.2333,3.235,3.312,3.2662,3.2169,3.1977,3.1739,3.1166,3.012,2.9994,2.9994,2.9994,3.0287,3.0287,2.9994,2.9994,3.0098,3.0346,2.9901,2.9789,3.0012,2.9451,2.8554,2.7678,2.7628,2.7222,2.6491,2.6696,2.6884,2.7073,2.7073,2.7073,2.7073,2.7073,2.7073,2.6952,2.5961,2.5594,2.5472,2.41,2.3604,2.3604,2.323,2.2731,2.2355,2.2355,2.1601,2.0716,0.0,0.0,0.0,0.0,0.0,0.0,0.0,0.0,0.0,0.0,0.0,0.0,0.0,0.0,1.6602,1.5163,0.0,1.2274,1.0697,0.8851,0.7393,0.7254,0.6853,0.6455,0.6455,0.6455,0.6455,0.6455,0.5781,0.5108,0.43,0.2417,0.0672,-0.1075,-0.2286,-0.3362,-0.4308,-0.4308,-0.4308,-0.4308,-0.4977,-0.5513,-0.5915,-0.6982,-0.765,-0.8051,-0.8451,-0.859,-0.8717,-1.0306,-1.1365,-1.2025,-1.4006,-1.4931,-1.4912,-1.4704,-1.4496,-1.4307,-1.4203,-1.409,-1.4014,0.0,0.0,0.0,0.0,0.0,0.0,0.0,3.2416,3.228,3.2839,3.2272,3.1849,3.1572,3.1295,3.0789,3.0015,3.0182,3.0223,3.0139,3.0307,3.0369,3.0263,3.0263,3.045,3.0822,3.0822,3.1008,3.1381,3.0782,2.9912,2.8993,2.8492,2.7759,2.6848,2.7056,2.7073,2.7073,2.7073,2.7073,2.7073,2.7073,2.7073,2.6952,2.6205,2.5717,2.5226,2.4363,2.3728,2.323,2.3106,2.3106,2.3106,2.3106,2.248,2.1853,2.1475,2.0716,0.0,0.0,0.0,0.0,0.0,0.0,0.0,0.0,1.7001,1.7001,1.7001,1.7001,1.6343,1.3979,1.3193,1.201,0.9377,0.8056,0.7393,0.6987,0.6719,0.6455,0.6455,0.6455,0.6455,0.6455,0.6455,0.6049,0.4839,0.3895,0.2283,-0.0538,-0.1478,-0.2689,-0.4308,-0.4308,-0.4308,-0.4308,-0.4845,-0.5245,-0.5379,-0.6581,-0.725,-0.7517,-0.8051,-0.8451,-0.8723,-0.9782,-1.0969,-1.2157,-1.3875,-1.467,-1.4931,-1.4931,-1.4837,-1.4666,-1.4449,-1.4345,-1.4317,0.0,0.0,0.0,0.0,0.0,0.0,0.0,0.0,3.2644,3.2758,3.3127,3.286,3.16,3.178,3.1507,3.0161,3.0769,3.1127,3.0615,3.1506,3.1737,3.1215,3.1215,3.1236,3.1298,3.1298,3.1319,3.1381,3.1663,3.1268,3.0325,2.9852,2.922,2.8289,2.7401,2.7073,2.7073,2.7073,2.7073,2.7073,2.7073,2.7073,2.6952,2.5717,2.5594,2.5823,2.4595,2.4115,2.3852,2.3355,2.3106,2.3106,2.3106,2.2981,2.2606,2.0843,2.0208,1.9699,1.7647,1.713,1.713,1.7001,1.7001,1.7001,0.0,1.7001,1.7001,1.7001,1.7001,1.6872,1.6613,1.4502,1.2529,1.1878,0.9377,0.7393,0.6987,0.6719,0.6455,0.6455,0.6455,0.6455,0.6455,0.6455,0.6451,0.6317,0.4973,0.3224,0.094,-0.0403,-0.2151,-0.4174,-0.4308,-0.4308,-0.4308,-0.4442,-0.4711,-0.5379,-0.5513,-0.6313,-0.7512,-0.7646,-0.7917,-0.8723,-0.9782,-1.1365,-1.321,-1.3341,-1.4006,-1.4931,-1.4931,-1.4922,-1.4874,-1.4666,-1.4477,-1.4336,0.0,0.0,0.0,0.0,0.0,0.0,0.0,0.0,0.0,3.2375,3.2538,3.2309,3.1443,3.1579,3.1542,3.0843,3.1485,3.1805,3.1611,3.1996,3.2102,3.1906,3.16,3.1505,3.1754,3.1754,3.1899,3.2168,3.2354,3.1962,3.1007,3.0858,2.9884,2.848,2.8122,2.7659,2.7073,2.7073,2.7073,2.7073,2.7073,2.7073,2.7073,2.6466,2.5961,2.5349,2.3976,2.3728,0.0,2.3355,2.3106,2.3106,2.3106,2.3106,2.2856,2.1348,2.0969,2.0462,1.8407,1.7389,1.7001,1.7001,1.7001,1.7001,1.7001,1.7001,1.7001,1.7001,1.7001,1.6742,1.5954,1.4772,1.3325,1.108,0.9637,0.8312,0.6853,0.6585,0.6455,0.6455,0.6455,0.6455,0.6455,0.6455,0.6455,0.6455,0.5108,0.3627,0.2147,-0.0,-0.1748,-0.3362,-0.4037,-0.4308,-0.4308,-0.4308,-0.4442,-0.4711,-0.5248,-0.5672,-0.6393,-0.7202,-0.8013,-0.8822,-0.9813,-1.1101,-1.2421,-1.3079,-1.3875,-1.4931,-1.4931,-1.4931,-1.4922,-1.4837,-1.4752,-1.4685,0.0,0.0,0.0,0.0,0.0,0.0,0.0,0.0,0.0,0.0,3.223,3.2064,3.1609,3.1443,3.1381,3.1381,3.1902,3.2184,3.2184,3.231,3.2374,3.2374,3.1954,3.1899,3.223,3.223,3.2395,3.2727,3.2727,3.2363,3.1652,3.1401,3.0587,2.9294,2.8719,2.814,2.7418,2.7194,2.7073,2.7073,2.7073,2.7073,2.7073,2.6952,2.6205,2.5226,2.41,2.3728,2.3728,2.323,2.3106,2.3106,2.3106,2.3106,2.2856,2.1853,2.1362,2.0843,1.9048,1.8022,1.7389,1.713,1.7001,1.7001,1.7001,1.7001,1.7001,1.7001,1.7001,1.6742,1.5694,1.5173,1.3849,1.0816,0.9896,0.8967,0.6853,0.6589,0.6455,0.6455,0.6455,0.6455,0.6455,0.6455,0.6455,0.6455,0.551,0.43,0.2819,0.0672,-0.1209,-0.2689,-0.3768,-0.4308,-0.4308,-0.4308,-0.4316,-0.4333,-0.4873,-0.5315,-0.5522,-0.6868,-0.781,-0.8486,-0.9169,-1.0174,-1.1497,-1.2421,-1.3473,-1.4539,-1.48,-1.4931,-1.4931,-1.4931,-1.4931,-1.4931,0.0,0.0,0.0,0.0,0.0,0.0,0.0,0.0,0.0,0.0,0.0,0.0,0.0,3.1629,3.1381,3.1381,3.1774,3.2023,3.2023,3.2437,3.2685,3.2685,3.2685,3.2706,3.2706,3.2706,3.2727,3.2727,3.2727,3.2727,3.2612,3.1767,3.1285,3.1169,2.9294,2.848,2.8361,2.7539,2.7073,2.7073,2.7073,2.7073,2.7073,2.6327,2.6067,2.5945,2.5349,2.4239,2.3106,2.3106,2.3106,2.3106,2.3106,2.3106,2.2856,2.1853,2.0969,1.9941,1.8792,1.8536,1.8279,1.726,1.7001,1.7001,1.7001,1.7001,1.7001,1.7001,1.7001,1.7001,1.7001,1.5824,1.425,1.2537,1.0683,0.8967,0.725,0.6719,0.6455,0.6455,0.6455,0.6455,0.0,0.6455,0.6455,0.6455,0.6455,0.5376,0.2819,0.161,-0.0134,-0.2554,-0.3768,-0.4308,-0.4308,-0.4308,-0.4338,-0.4395,-0.4395,-0.4839,-0.5594,-0.6206,-0.6987,-0.7669,-0.756,-0.8579,-1.0306,-1.1365,-1.2421,-1.3473,-1.4539,-1.4931,-1.4931,-1.4931,-1.4931,-1.4931,0.0,0.0,0.0,0.0,0.0,0.0,0.0,0.0,0.0,0.0,0.0,0.0,0.0,0.0,0.0,0.0,3.2734,3.3043,3.3043,3.3212,3.3296,3.3296,3.2955,3.2727,3.2727,3.2727,3.2727,3.2727,3.2727,3.2727,3.2727,3.2363,3.1883,3.1285,3.0001,2.9057,2.848,2.7539,2.7073,2.7073,2.7073,2.7073,2.7073,2.6327,2.5839,2.5349,0.0,2.4115,2.3728,2.323,2.3106,2.3106,2.3106,2.3106,2.2856,2.1853,2.0322,1.892,1.8536,1.8022,1.7389,1.713,1.7001,1.7001,1.7001,1.7001,1.7001,1.7001,1.7001,1.7001,1.7001,1.6613,1.5554,1.3325,1.1871,1.0154,0.8046,0.6982,0.6455,0.6455,0.6455,0.6455,0.0,0.0,0.0,0.6455,0.6049,0.5379,0.4571,0.2553,0.0672,-0.0806,-0.242,-0.365,-0.4368,-0.4368,-0.4398,-0.4455,-0.4496,-0.4947,-0.5672,-0.5789,-0.6306,-0.694,-0.6847,-0.7843,-0.9504,-1.069,-1.2018,-1.3341,-1.4539,-1.4931,-1.4931,-1.4931,-1.4931,-1.4931,0.0,0.0,0.0,0.0,0.0,0.0,0.0,0.0,0.0,0.0,0.0,0.0,0.0,0.0,0.0,0.0,0.0,3.3296,3.3296,3.3296,3.3296,3.3296,3.2955,3.2727,3.2727,3.2727,3.2727,3.2727,3.2727,3.2727,3.2727,3.2727,3.2363,3.1767,3.082,3.0119,2.9412,2.848,2.79,2.7539,2.7539,2.7435,2.7073,2.6327,2.5717,0.0,2.4363,2.3976,2.3728,2.323,2.3106,2.3106,2.3106,2.3106,2.2981,2.2355,2.1209,2.0055,1.9686,1.9176,1.8407,1.7776,1.7518,1.7389,1.713,1.7001,1.7001,1.7001,1.7001,1.7001,1.7001,1.7001,1.6343,1.4241,1.3193,1.1739,0.8967,0.7912,0.725,0.6589,0.6455,0.6455,0.6455,0.0,0.0,0.6455,0.6049,0.5647,0.5379,0.3492,0.1885,0.0677,-0.1354,-0.2864,-0.3737,-0.4152,-0.4458,-0.4515,-0.4578,-0.4892,-0.5323,-0.5298,-0.5672,-0.6295,-0.621,-0.6935,-0.8307,-0.9896,-1.1219,-1.2413,-1.3875,-1.467,-1.467,-1.467,-1.4847,-1.5026,0.0,0.0,0.0,0.0,0.0,0.0,0.0,0.0,0.0,0.0,0.0,0.0,0.0,0.0,0.0,0.0,0.0,0.0,3.2727,3.2727,3.2727,3.2727,3.2727,3.2727,3.2727,3.2727,3.2727,3.2727,3.2727,3.2727,3.2727,3.2727,3.2727,3.2612,3.1652,3.1285,3.1169,3.0236,2.9176,2.848,2.848,2.79,2.7073,2.6327,2.5717,2.498,2.4363,2.3604,2.3106,2.3106,2.3106,2.3106,2.3106,2.3106,2.3106,2.3106,2.3106,2.2856,2.1866,2.1614,2.1096,1.9048,1.8536,1.8279,1.726,1.713,1.7001,1.7001,1.7012,1.7023,1.7023,1.7023,1.6504,1.5183,1.452,1.3193,1.0028,0.9232,0.8307,0.6719,0.6455,0.6455,0.6455,0.6455,0.0,0.6455,0.0,0.6187,0.5513,0.4434,0.3244,0.1783,-0.0412,-0.1935,-0.2806,-0.393,-0.4521,-0.4578,-0.4635,-0.4665,-0.4662,-0.4605,-0.497,-0.56,-0.5529,-0.573,-0.6594,-0.9105,-1.0161,-1.0426,-1.2947,-1.4146,-1.4417,-1.4417,-1.4677,-1.5091,0.0,0.0,0.0,0.0,0.0,0.0,0.0,0.0,0.0,0.0,0.0,0.0,0.0,0.0,0.0,0.0,0.0,0.0,3.2727,3.2727,3.2727,3.2727,3.2727,3.2727,3.2727,3.2727,3.2727,3.2727,3.2727,3.2727,3.2727,3.2727,3.2727,3.2612,3.0956,3.0236,3.0119,2.848,2.7659,2.7435,2.7435,2.7315,2.6952,2.5839,2.5226,2.498,2.3728,2.323,2.3106,2.3106,2.3106,2.3106,2.3106,2.3106,2.3106,2.3106,2.2606,2.1978,2.1614,2.1096,2.0335,1.9814,1.9686,1.9431,1.8407,1.815,1.7893,1.713,1.7152,1.7281,1.7281,1.7281,1.6886,1.5423,1.3681,1.1739,0.9902,0.8179,0.6982,0.6589,0.6455,0.6455,0.6455,0.6455,0.0,0.0,0.6455,0.6455,0.6183,0.5427,0.3961,0.1645,0.0277,-0.1541,-0.3701,-0.431,-0.4627,-0.464,-0.4657,-0.4665,-0.4662,-0.4649,-0.4751,-0.4832,-0.4768,-0.5118,-0.5869,-0.8344,-0.9763,-1.0426,-1.2947,-1.4104,-1.4237,-1.4237,-1.4361,-1.4656,0.0,0.0,0.0,0.0,0.0,0.0,0.0,0.0,0.0,0.0,0.0,0.0,0.0,0.0,0.0,0.0,0.0,0.0,0.0,3.2727,3.2727,3.2727,3.2727,3.2727,3.2727,3.2727,3.2727,3.2727,3.2727,3.2727,3.2727,3.2727,3.2727,3.2612,3.1536,3.0956,3.047,2.9412,2.848,0.0,0.0,2.7418,2.6952,2.5961,2.5349,2.498,2.3852,2.3479,2.3479,2.3479,2.3355,2.3106,2.3106,2.3106,2.3106,2.3106,2.2731,2.223,2.223,2.1853,2.1335,2.0843,2.0716,2.0335,1.8792,1.863,1.8335,1.7424,1.7356,1.7529,1.7529,1.7443,1.697,1.5899,1.4112,1.2274,1.03,0.8712,0.7383,0.6585,0.6455,0.6468,0.6509,0.6513,0.6529,0.0,0.6537,0.6513,0.6513,0.6187,0.5273,0.3488,0.1686,-0.0852,-0.4037,-0.4501,-0.4665,-0.4665,-0.4665,-0.4665,-0.4665,-0.4665,-0.463,-0.457,0.0,-0.4727,-0.5218,-0.7197,-0.8644,-0.9856,-1.1806,-1.3251,-1.4035,-1.4035,-1.4292,-1.4595,0.0,0.0,0.0,0.0,0.0,0.0,0.0,0.0,0.0,0.0,0.0,0.0,0.0,0.0,0.0,0.0,0.0,0.0,0.0,0.0,3.2727,3.2727,3.2727,3.2727,3.2727,3.2727,3.2727,3.2727,3.2727,3.2727,3.2727,3.2727,3.2727,3.2727,3.2612,3.2018,3.1285,3.1053,3.0001,2.848,2.8361,2.7779,2.7073,0.0,2.5717,2.5103,2.4487,2.4239,2.4239,2.4239,2.3743,2.323,2.323,2.3106,2.3106,2.3106,2.3106,2.3106,2.3106,2.3106,2.2856,2.1978,2.1866,2.1235,1.9212,1.89,1.8816,1.7675,1.7604,1.7766,1.7766,1.7604,1.7198,1.6522,1.5262,1.3664,1.1143,0.9813,0.8488,0.6757,0.6492,0.6521,0.6602,0.6607,0.6643,0.6721,0.6664,0.6619,0.6611,0.6692,0.6215,0.5152,0.2718,-0.0432,-0.4078,-0.4517,-0.4665,-0.4665,-0.4665,-0.4665,-0.4665,-0.4665,-0.464,-0.4594,-0.4531,0.0,-0.4572,-0.6206,-0.7561,-0.9047,-1.0679,-1.2406,-1.3821,-1.3821,-1.4215,-1.4649,0.0,0.0,0.0,0.0,0.0,0.0,0.0,0.0,0.0,0.0,3.3069,3.2727,0.0,0.0,0.0,0.0,0.0,0.0,0.0,0.0,0.0,3.2727,3.2727,3.2727,3.2727,3.2727,3.2727,3.2727,3.2727,3.2727,3.2727,3.2727,3.2727,3.2612,3.1883,3.1401,3.1169,2.9648,2.8838,2.848,2.7659,2.7194,2.7073,2.6327,0.0,0.0,2.5226,2.498,2.498,2.498,2.4487,2.3991,2.3991,2.3604,2.3106,2.3106,2.3106,2.3106,2.3106,2.3106,2.3106,2.2856,2.2856,2.2286,2.0477,2.0061,1.9638,1.8017,1.7863,1.8024,1.8024,1.7992,1.7686,1.6991,1.5827,1.4044,1.146,1.0235,0.8867,0.6953,0.668,0.6684,0.67,0.67,0.0,0.0,0.6778,0.6778,0.6705,0.6786,0.5438,0.2462,0.0725,-0.1452,-0.408,-0.4226,-0.4371,-0.4665,-0.4665,-0.4665,-0.4665,-0.4665,-0.4687,-0.4719,-0.466,0.0,-0.4901,-0.7535,-0.8707,-0.917,-1.1964,-1.3319,-1.3595,-1.3595,-1.385,-1.3998,0.0,0.0,0.0,0.0,0.0,0.0,0.0,3.6379,3.5421,3.4469,3.3614,3.3069,3.2727,3.2727,0.0,0.0,0.0,0.0,0.0,0.0,0.0,0.0,3.2727,3.2727,3.2727,3.2727,3.2727,3.2727,0.0,3.2727,3.2727,3.2727,3.2727,3.2727,3.2248,3.1767,3.1169,2.9766,2.8938,2.8361,2.7418,2.7073,2.7073,2.6692,0.0,0.0,2.5349,2.5349,2.5594,2.5594,2.5472,2.4964,2.4348,2.3604,2.3106,2.3106,2.3106,2.3106,2.3106,2.3106,2.3106,2.3106,2.3106,2.2677,2.0799,2.0472,2.0133,1.827,1.8099,1.8272,1.8272,1.8175,1.7813,1.7103,1.5238,1.3327,1.1689,0.9763,0.8104,0.7144,0.6864,0.6741,0.6786,0.679,0.6811,0.686,0.69,0.6884,0.6798,0.6876,0.5493,0.2182,0.1163,-0.0727,-0.3498,-0.3644,-0.3935,-0.4371,-0.4402,-0.4564,-0.4711,-0.4744,-0.4774,-0.4798,-0.4739,0.0,-0.4853,-0.7094,-0.8454,-0.94,-1.1516,-1.2989,-1.3774,-1.3774,-1.3831,-1.3912,0.0,0.0,0.0,0.0,0.0,0.0,0.0,3.7583,3.6619,3.5421,3.4357,3.3501,3.2955,3.2727,3.2727,0.0,0.0,0.0,0.0,0.0,0.0,0.0,0.0,0.0,3.2727,0.0,0.0,3.2727,3.2727,0.0,0.0,0.0,0.0,0.0,3.2727,3.2248,3.1536,3.0353,2.9412,0.0,0.0,2.7073,2.7073,0.0,0.0,0.0,0.0,2.5839,2.6327,2.6327,2.6083,2.57,2.4595,2.3976,2.3479,2.3355,2.3355,2.323,2.3106,2.3106,2.3106,2.3106,2.3164,2.2777,2.0903,2.0661,2.0416,1.8523,1.8315,1.8433,1.8433,1.8282,1.8026,1.7451,1.5487,1.3579,1.235,1.0125,0.8318,0.7481,0.7064,0.6948,0.6876,0.6884,0.0,0.6986,0.699,0.0,0.6888,0.6949,0.5677,0.291,0.2182,0.0436,-0.2333,-0.307,-0.3661,-0.3951,-0.4152,-0.4327,-0.4628,-0.4823,-0.4853,-0.4861,-0.4815,0.0,0.0,-0.6802,-0.8221,-0.9507,-1.1391,-1.2971,-1.3969,-1.4002,-1.3993,-1.3985,0.0,0.0,0.0,0.0,0.0,0.0,0.0,3.9183,3.8113,3.6619,3.5223,3.4155,3.3614,3.3069,3.2727,0.0,0.0,0.0,0.0,0.0,0.0,0.0,0.0,0.0,0.0,0.0,0.0,3.2727,3.2727,0.0,0.0,0.0,0.0,0.0,0.0,3.2612,3.2498,3.0704,0.0,0.0,0.0,0.0,0.0,0.0,0.0,0.0,0.0,2.6952,2.6952,2.6952,2.6205,2.5226,2.5103,2.498,2.4857,2.4239,2.3991,2.3852,2.323,2.3106,2.3106,2.3106,2.3325,2.3121,2.1214,2.0965,2.07,1.8765,1.8422,1.8433,1.8433,1.8422,1.8401,1.8261,1.81,1.6797,1.3665,1.2955,1.1389,0.7968,0.7539,0.7399,0.6978,0.6978,0.6978,0.699,0.0,0.0,0.6978,0.6986,0.6261,0.4511,0.3056,0.131,-0.0728,-0.2358,-0.3265,-0.3563,-0.4057,-0.423,-0.423,-0.4691,-0.4875,-0.4929,-0.4924,0.0,0.0,-0.826,-0.9559,-0.9904,-1.2889,-1.4139,-1.4172,-1.4326,-1.4286,-1.418,0.0,0.0,0.0,0.0,0.0,0.0,4.0896,4.016,3.908,3.7583,3.6402,3.5333,3.4267,3.3931,3.3501,0.0,0.0,0.0,0.0,0.0,0.0,0.0,0.0,0.0,0.0,0.0,3.2727,3.2727,3.2727,0.0,0.0,0.0,0.0,0.0,0.0,3.2383,3.1767,3.047,0.0,0.0,0.0,0.0,0.0,0.0,0.0,0.0,0.0,0.0,2.7073,2.7073,2.6709,2.6344,2.6344,2.6344,2.5961,2.4471,2.4363,2.461,2.4363,2.4363,2.4285,2.4109,2.3613,2.2821,2.1473,2.0712,1.9918,1.8659,1.8433,1.8433,1.8433,1.8433,1.8433,1.8433,1.7721,1.6583,1.5292,1.4006,1.243,1.0006,0.9291,0.8574,0.0,0.0,0.699,0.699,0.0,0.0,0.699,0.699,0.6261,0.4802,0.3079,0.1473,-0.0294,-0.1791,-0.2857,-0.3158,-0.3653,-0.398,-0.4288,-0.4781,-0.4965,-0.4986,-0.4986,0.0,0.0,-0.8779,-1.0247,-1.1403,-1.3572,-1.4391,-1.4343,-1.4408,-1.4391,-1.4359,0.0,0.0,0.0,0.0,0.0,4.1324,4.1324,4.0795,3.9955,3.8662,3.7583,3.6426,3.5223,3.4803,3.4155,3.3275,0.0,0.0,0.0,0.0,0.0,0.0,0.0,0.0,0.0,0.0,3.2841,3.2955,3.2841,3.2727,0.0,0.0,3.2727,3.2727,0.0,0.0,0.0,0.0,0.0,0.0,0.0,0.0,0.0,0.0,0.0,0.0,0.0,0.0,0.0,0.0,0.0,2.683,2.683,2.683,2.6571,2.5087,2.498,2.5349,2.5103,2.5183,2.5186,2.4684,2.3848,2.293,2.1654,2.044,1.945,1.8541,1.8433,1.8433,1.8433,1.8433,1.8433,1.8433,1.758,1.6725,1.6301,1.4583,1.2866,1.1155,0.0,0.9008,0.0,0.7276,0.699,0.0,0.0,0.0,0.7027,0.7031,0.6297,0.4684,0.31,0.1486,-0.0,-0.1664,-0.259,-0.2894,-0.3236,-0.3721,-0.403,-0.4534,-0.4865,-0.4865,-0.5022,0.0,0.0,-0.9136,-1.0791,-1.2464,-1.4034,-1.4554,-1.4521,-1.457,-1.4554,-1.4538,0.0,0.0,0.0,0.0,0.0,0.0,4.1324,4.1097,4.0694,4.0185,3.8582,3.7287,3.6619,3.5333,3.4469,3.4469,0.0,0.0,0.0,0.0,0.0,0.0,0.0,0.0,0.0,0.0,3.2955,3.3636,3.2955,3.2727,3.2727,3.2727,3.2727,3.2727,0.0,0.0,0.0,0.0,0.0,0.0,0.0,0.0,2.7073,0.0,0.0,0.0,0.0,0.0,0.0,0.0,0.0,0.0,0.0,2.6067,2.6067,2.6067,2.6067,2.5945,2.5226,2.5357,2.5486,2.4746,2.4316,2.3581,2.1745,2.0723,1.9808,1.8573,1.8433,1.8433,1.8433,1.8433,1.8433,1.8433,1.8433,1.7861,1.6442,1.4875,1.3159,0.0,0.0,0.8435,0.7711,0.7276,0.699,0.0,0.0,0.0,0.7121,0.7125,0.6382,0.4599,0.3116,0.1493,-0.0151,-0.1685,-0.2469,-0.2469,-0.2966,-0.3139,-0.3139,-0.4084,-0.4397,-0.4397,0.0,0.0,0.0,-0.9371,-1.0922,-1.2635,-1.4337,-1.4854,-1.4724,-1.4895,-1.4854,-1.4875,0.0,0.0,0.0,0.0,0.0,0.0,0.0,4.1198,4.0896,4.0185,3.9647,3.8792,3.7394,3.6858,3.61,3.5157,0.0,0.0,0.0,0.0,0.0,0.0,0.0,0.0,0.0,0.0,3.4043,3.4267,3.3614,3.3296,3.3296,3.2841,3.2727,3.2727,3.2727,3.1767,0.0,0.0,0.0,0.0,0.0,2.7073,2.7073,0.0,0.0,0.0,0.0,0.0,0.0,0.0,0.0,0.0,0.0,0.0,0.0,2.683,2.683,2.676,2.675,2.614,2.5455,2.5024,2.3426,2.1706,2.0515,1.9507,1.8611,1.8335,1.8196,1.825,1.8401,1.8433,1.8433,1.8433,1.8433,1.8293,1.7721,1.6442,0.0,1.3159,1.0449,0.844,0.0,0.0,0.0,0.0,0.0,0.0,0.7125,0.5985,0.5262,0.4659,0.3181,0.1524,-0.0153,-0.1707,-0.25,-0.25,-0.2978,-0.3139,-0.3139,-0.3925,-0.4397,0.0,0.0,0.0,0.0,-1.1083,-1.2635,-1.4191,-1.4806,-1.4927,-1.4887,-1.4944,-1.4927,-1.5192,0.0,0.0,0.0,0.0,0.0,0.0,0.0,4.1324,4.1097,4.0593,3.9955,3.9337,3.8582,3.7631,3.6773,3.6231,0.0,0.0,0.0,0.0,0.0,0.0,0.0,0.0,3.4289,3.4379,3.458,3.4803,3.4267,3.3952,3.3952,3.3501,3.3275,3.3069,3.3069,3.1883,0.0,0.0,0.0,0.0,2.7073,2.7073,2.7073,0.0,0.0,0.0,0.0,0.0,0.0,0.0,0.0,0.0,0.0,0.0,0.0,0.0,2.7176,2.733,2.7552,2.6694,2.5659,2.5312,2.3315,2.1167,2.0107,1.8959,1.8096,1.7949,1.8024,1.8132,1.8282,1.8379,1.8433,1.8433,1.8433,1.8153,1.758,0.0,0.0,1.2452,0.0,0.0,0.0,0.0,0.0,0.0,0.0,0.0,0.7223,0.561,0.4565,0.3957,0.2299,0.0617,-0.0931,-0.2034,-0.2514,-0.2514,-0.2828,-0.2826,-0.2826,-0.3768,-0.4241,0.0,0.0,0.0,0.0,-1.1863,-1.3414,-1.4968,-1.4968,-1.4968,-1.4968,-1.4968,-1.542,-1.6186,0.0,0.0,0.0,0.0,0.0,0.0,0.0,0.0,4.1324,4.1324,3.9955,3.9208,4.0083,3.795,3.6796,3.7418,0.0,0.0,0.0,0.0,0.0,0.0,0.0,0.0,3.5378,3.4936,3.4914,3.5488,3.4803,3.458,3.458,3.4469,3.4155,3.3614,3.3614,3.2113,0.0,0.0,0.0,0.0,2.7073,2.7073,0.0,0.0,0.0,0.0,0.0,0.0,0.0,0.0,0.0,0.0,0.0,0.0,0.0,0.0,0.0,0.0,0.0,2.6624,2.5829,2.5373,2.3448,2.1449,2.0466,1.9071,0.0,1.7836,1.7895,1.8078,1.8089,1.8282,1.8433,1.8433,1.8455,1.7882,0.0,1.4733,0.0,0.0,0.9023,0.0,0.8739,0.0,0.0,0.0,0.0,0.0,0.7225,0.5698,0.4004,0.2462,0.0616,-0.093,-0.2511,-0.2511,-0.2512,-0.2514,-0.2514,-0.2514,-0.2514,-0.3454,-0.3768,0.0,0.0,0.0,0.0,-1.2017,-1.3568,-1.4968,-1.4968,-1.4968,-1.4968,-1.4968,-1.6033,-1.7702,0.0,0.0,0.0,0.0,0.0,0.0,0.0,0.0,0.0,0.0,4.0997,4.0593,4.0185,3.9,3.8056,0.0,0.0,0.0,0.0,0.0,0.0,0.0,0.0,0.0,3.5378,3.5708,3.5927,3.6036,3.5488,3.5157,3.5157,3.4714,3.4379,3.4267,3.3367,3.1536,0.0,0.0,0.0,0.0,2.7073,2.7073,0.0,0.0,0.0,0.0,2.7073,2.7073,0.0,0.0,0.0,0.0,0.0,0.0,0.0,0.0,2.7141,2.7,2.6264,0.0,2.4408,2.3034,2.1462,2.0023,0.0,1.8426,1.7984,1.7851,1.7771,1.7863,1.8056,1.8282,1.8433,1.8433,1.8584,1.8059,1.6461,0.0,0.0,0.9725,0.9216,0.905,0.0,0.0,0.0,0.0,0.0,0.7041,0.5538,0.388,0.2331,0.0616,-0.1079,-0.2163,-0.248,-0.248,-0.2491,-0.2514,-0.2514,-0.2514,-0.2514,-0.3454,-0.3768,0.0,0.0,0.0,-1.0302,-1.3252,-1.4653,-1.4968,-1.4968,-1.4968,-1.4968,-1.4968,-1.6033,-1.7702,0.0,0.0,0.0,0.0,0.0,0.0,0.0,0.0,0.0,0.0,0.0,0.0,0.0,0.0,0.0,0.0,0.0,0.0,0.0,0.0,0.0,0.0,0.0,3.5817,3.5817,3.6145,3.6277,3.6277,3.5927,3.5817,3.5817,3.5488,3.4914,3.4022,3.2072,3.047,0.0,0.0,0.0,2.7297,2.7194,0.0,0.0,0.0,0.0,0.0,2.7073,2.7073,0.0,2.7073,2.7073,2.7073,0.0,0.0,0.0,0.0,2.681,2.6101,2.5015,2.4306,2.371,2.2284,2.0781,1.9433,1.8754,1.8473,1.812,1.7729,1.7785,1.7894,1.8145,1.7686,1.7596,1.8552,1.7531,0.0,0.0,0.0,1.0346,0.9634,0.9427,0.0,0.0,0.0,0.0,0.0,0.0,0.7253,0.5272,0.3572,0.1855,0.0153,-0.152,-0.244,-0.2469,-0.2469,-0.2484,-0.2514,-0.2514,-0.2514,-0.2514,-0.314,-0.3611,0.0,0.0,0.0,-1.0302,-1.356,-1.4968,-1.4968,-1.4968,-1.4968,-1.4968,-1.4968,-1.6483,-1.8613,0.0,0.0,0.0,0.0,0.0,0.0,0.0,0.0,0.0,0.0,0.0,0.0,0.0,0.0,0.0,0.0,0.0,0.0,0.0,0.0,0.0,0.0,3.6277,3.6277,3.6277,3.6277,3.6277,3.6277,3.6277,3.6277,3.6277,3.6277,3.5268,3.3346,3.0684,2.9431,2.9194,2.8002,2.7521,2.7521,2.7194,0.0,0.0,0.0,0.0,0.0,0.0,0.0,0.0,2.7073,2.7073,2.7073,2.7073,0.0,0.0,0.0,0.0,0.0,2.3851,2.3345,2.2922,2.1804,2.0535,1.9458,1.9031,1.8853,1.8442,1.7658,1.7729,1.7951,1.7883,1.7046,1.6867,1.8336,0.0,0.0,1.1942,1.0589,0.9584,0.9497,0.947,0.0,0.0,0.0,0.0,0.0,0.0,0.6972,0.5303,0.3247,0.1377,-0.0302,-0.1643,-0.2403,-0.2455,-0.2459,-0.2477,-0.2507,-0.2512,-0.2514,-0.2514,-0.2983,-0.3297,-0.4081,0.0,0.0,-1.0302,-1.356,-1.4968,-1.4968,-1.4968,-1.4968,-1.4968,-1.4968,-1.7093,-1.9811,0.0,0.0,0.0,0.0,0.0,0.0,0.0,0.0,0.0,0.0,0.0,0.0,0.0,0.0,0.0,0.0,0.0,0.0,0.0,0.0,0.0,3.6277,3.6277,3.6277,3.6277,3.6277,3.6277,3.6277,3.6277,3.6277,3.6277,3.6277,3.5024,3.2737,3.0897,2.9648,2.8636,2.7762,2.7521,2.7521,2.7194,0.0,0.0,0.0,0.0,0.0,0.0,0.0,0.0,2.7073,2.7073,2.7073,2.7073,0.0,0.0,0.0,0.0,0.0,2.3524,2.2272,2.1216,2.0098,1.9756,1.941,1.9193,1.8852,1.8442,1.8045,1.812,1.7774,1.6062,1.7349,1.8205,1.6718,0.0,1.3372,0.0,0.0,0.9389,0.9476,0.0,0.0,0.0,0.0,0.0,0.0,0.0,0.5758,0.37,0.154,-0.0305,-0.1939,-0.2232,-0.2383,-0.2393,-0.2417,-0.2446,-0.2476,-0.2502,-0.2514,-0.2514,-0.2983,-0.3297,-0.4081,0.0,-0.9682,-1.0302,-1.356,-1.4968,-1.4968,-1.4968,-1.4968,-1.4968,-1.4968,-1.7093,-2.0113,0.0,0.0,0.0,0.0,0.0,0.0,0.0,0.0,0.0,0.0,0.0,0.0,0.0,0.0,0.0,0.0,0.0,0.0,0.0,0.0,3.5817,3.5817,3.6168,3.6277,3.6277,3.6277,3.6277,3.6277,3.6277,3.6277,3.6277,3.4891,3.3304,3.1612,3.0236,2.9313,2.8755,2.802,2.7762,2.7779,0.0,0.0,0.0,0.0,0.0,0.0,0.0,0.0,0.0,0.0,2.7073,2.7073,2.7073,0.0,0.0,0.0,0.0,0.0,2.2327,2.1082,1.9851,1.9346,1.9253,1.9217,1.9096,1.8956,1.8828,1.8431,1.8406,1.8035,1.6275,0.0,1.545,1.2871,0.0,1.2315,1.0791,0.9934,0.9497,0.0,0.0,0.0,0.0,0.0,0.0,0.0,0.0,0.0,0.3501,0.1211,-0.0751,-0.2379,-0.2363,-0.2353,-0.2353,-0.2384,-0.2423,-0.2469,-0.2484,-0.2499,-0.2514,-0.2671,-0.3454,-0.4863,0.0,-0.9837,-1.1238,-1.3876,-1.4968,-1.4968,-1.4968,-1.4968,-1.5267,-1.694,-1.8603,-2.0263,0.0,0.0,0.0,0.0,0.0,0.0,0.0,0.0,0.0,0.0,0.0,0.0,0.0,0.0,0.0,0.0,0.0,0.0,0.0,0.0,3.5157,3.5157,3.5817,3.6168,3.6277,3.6277,3.6277,3.6277,3.6277,3.6277,3.6277,3.3754,3.2052,3.1149,2.9667,2.8975,2.8975,2.8259,2.802,2.79,0.0,0.0,0.0,0.0,0.0,0.0,0.0,0.0,0.0,0.0,0.0,0.0,0.0,0.0,0.0,2.5823,2.444,2.2827,2.1825,2.0322,1.9072,1.9072,1.9072,1.9072,1.9072,1.9072,1.8944,1.8699,1.8747,1.8381,1.6737,1.4973,0.0,1.0973,1.1253,1.1179,0.9736,0.0,0.0,0.0,0.0,0.0,0.0,0.0,0.0,0.0,0.0,0.0,0.3756,0.1043,-0.1038,-0.2368,-0.2345,-0.2333,-0.2333,-0.2356,-0.2394,-0.2448,-0.2462,-0.2481,-0.2504,-0.2511,-0.3611,-0.5642,-0.7656,-0.9832,-1.2024,-1.4037,-1.4968,-1.4968,-1.4968,-1.4968,-1.542,-1.8603,-1.9811,-2.0263,0.0,0.0,0.0,0.0,0.0,0.0,0.0,0.0,0.0,0.0,0.0,0.0,0.0,0.0,0.0,0.0,0.0,0.0,0.0,0.0,3.458,3.458,3.5157,3.5708,3.6277,3.6277,3.6277,3.6277,3.6277,3.6277,3.6277,3.3754,3.2488,3.2395,3.0001,2.8975,2.8975,2.8259,2.802,2.79,2.7315,0.0,0.0,0.0,0.0,0.0,0.0,0.0,0.0,0.0,0.0,0.0,0.0,0.0,2.7073,2.6952,2.5071,2.3076,2.2952,2.1082,1.9072,1.9072,1.9072,1.9072,1.9072,1.9072,1.8944,1.8699,1.9018,1.8781,1.6685,1.5128,1.4326,1.4523,1.2873,0.0,0.0,0.0,0.0,0.0,0.0,0.0,0.0,0.0,0.0,0.0,0.0,0.0,0.371,-0.0,-0.2217,-0.2337,-0.2334,-0.2333,-0.2333,-0.2335,-0.2352,-0.2386,-0.2442,-0.247,-0.2473,-0.2502,-0.3611,-0.5642,-0.7349,-0.9527,-1.2017,-1.3737,-1.4669,-1.4968,-1.4968,-1.4968,-1.542,-1.8603,-1.9811,-2.0263,0.0,0.0,0.0,0.0,0.0,0.0,0.0,0.0,0.0,0.0,0.0,0.0,0.0,0.0,0.0,0.0,0.0,0.0,0.0,3.4267,3.3952,3.3952,3.4825,3.5488,3.5708,3.6168,3.6145,3.5708,3.6145,3.5466,3.3979,3.3077,3.1822,3.0353,2.945,2.8975,2.8993,2.8517,2.8277,2.8277,2.7659,2.7297,0.0,0.0,0.0,0.0,0.0,0.0,0.0,0.0,2.7073,2.7073,2.7073,2.7073,2.6952,2.6067,2.5194,2.3946,2.2327,2.1082,2.0208,1.9328,1.9205,1.9277,1.9108,1.9072,1.912,1.916,1.9398,1.9029,1.7297,1.4005,1.1945,1.2993,1.1442,0.0,0.0,0.0,0.0,0.0,0.0,0.0,0.0,0.0,0.0,0.0,0.0,0.0,0.3222,-0.0293,-0.2345,-0.2333,-0.2333,-0.2333,-0.2333,-0.2333,-0.2338,-0.235,-0.2393,-0.2432,-0.2469,-0.2481,-0.405,-0.6893,-0.7661,-0.9837,-1.2804,-1.3898,-1.4515,-1.4669,-1.4968,-1.5573,-1.6788,-1.8905,-2.0414,-2.1625,0.0,0.0,0.0,0.0,0.0,0.0,0.0,0.0,0.0,0.0,0.0,0.0,0.0,0.0,0.0,0.0,0.0,0.0,3.4469,3.3727,3.3296,3.3296,3.4289,3.4714,3.4602,3.5378,3.5598,3.5378,3.5817,3.5024,3.3191,3.2851,3.1476,2.9549,2.9213,2.8975,2.8975,2.8636,2.8397,2.8277,2.7762,2.7401,0.0,0.0,0.0,0.0,0.0,0.0,0.0,0.0,2.7073,2.7073,2.7073,2.7073,2.6952,2.5945,2.5071,2.407,2.2201,2.1069,2.0195,1.9328,1.9205,1.9314,1.9217,1.9265,1.9362,1.9446,1.9603,1.9177,1.7231,1.3907,1.1586,0.0,0.0,0.0,0.0,0.0,0.0,0.0,0.0,0.0,0.0,0.0,0.0,0.0,0.0,0.0,0.0,-0.0437,-0.2333,-0.2333,-0.2333,-0.2333,-0.2333,-0.2333,-0.2333,-0.2333,-0.2353,-0.2391,-0.2442,-0.3072,-0.4794,-0.7472,-0.843,-1.0308,-1.312,-1.3744,-1.4207,-1.4368,-1.4814,-1.6033,-1.755,-1.9208,-2.0864,-2.2372,0.0,0.0,0.0,0.0,0.0,0.0,0.0,0.0,0.0,0.0,0.0,0.0,0.0,0.0,0.0,0.0,0.0,0.0,3.4469,3.3388,3.2727,3.2727,3.3296,3.3296,3.2727,3.3931,3.4825,3.5378,3.5378,3.5046,3.4469,3.3191,3.1937,3.0704,2.9568,2.8975,2.8993,2.8636,2.8277,2.802,2.7642,2.7297,2.7073,0.0,0.0,0.0,0.0,0.0,0.0,0.0,2.7073,2.7073,2.7073,2.7073,2.7073,2.7073,2.5194,2.3076,2.3076,2.1209,1.9072,1.9072,1.9084,1.9145,1.941,1.9688,1.9808,1.9531,1.9905,1.9381,1.6234,1.5274,1.4273,1.2437,1.0587,0.0,0.0,0.0,0.0,0.0,0.0,0.0,0.0,0.0,0.0,0.0,0.0,0.0,0.0,-0.0437,-0.2333,-0.2333,-0.2333,-0.2333,-0.2333,-0.2333,-0.2333,-0.2333,-0.2333,-0.2349,-0.2529,-0.4261,-0.5842,-0.754,-0.9331,-1.125,-1.312,-1.312,-1.359,-1.4361,-1.4814,-1.6033,-1.755,-1.9208,-2.0864,-2.2521,0.0,0.0,0.0,0.0,0.0,0.0,0.0,0.0,0.0,0.0,0.0,0.0,0.0,0.0,0.0,0.0,0.0,0.0,3.4469,3.3727,3.3182,3.2727,3.3296,3.3523,3.3296,3.3727,3.4155,3.4803,3.5157,3.4469,3.253,3.2395,3.1265,2.9568,2.8856,2.8636,2.8636,2.8517,2.8397,2.8277,2.7762,2.7642,2.7659,0.0,0.0,0.0,0.0,0.0,0.0,0.0,0.0,0.0,2.7073,2.7073,2.7073,2.7073,2.5823,2.4317,2.3325,2.1825,2.0335,1.9328,1.9217,1.9374,1.9446,1.9531,1.9399,1.8598,1.7792,1.7047,1.583,1.3579,0.0,1.2015,1.0587,0.0,0.0,0.0,0.0,0.0,0.0,0.0,0.0,0.0,0.0,0.0,0.0,0.0,0.0,-0.1166,-0.2333,-0.2333,-0.2333,-0.2333,-0.2333,-0.2333,-0.2333,-0.2333,-0.2333,-0.2349,-0.2528,-0.4038,-0.5751,-0.7536,-0.9249,-1.0857,-1.2656,-1.2965,-1.3428,-1.3898,-1.4361,-1.6177,-1.8744,-1.951,-2.1464,-2.4031,0.0,0.0,0.0,0.0,0.0,0.0,0.0,0.0,0.0,0.0,3.8056,3.7203,0.0,0.0,0.0,0.0,0.0,0.0,0.0,3.3614,3.3069,3.2727,3.3069,3.3296,3.3296,3.3296,3.3275,3.3212,3.3776,3.3077,3.0897,3.1129,3.0257,2.8501,2.8444,2.8307,2.8282,2.8444,2.8397,2.814,2.79,2.79,2.7762,0.0,0.0,0.0,0.0,0.0,0.0,0.0,0.0,0.0,2.7073,2.7073,2.6952,2.6449,2.5317,2.407,2.2702,2.1321,2.0081,1.9328,1.9193,1.9374,1.9579,1.9303,1.853,1.7399,1.6457,1.5416,1.3863,1.2302,0.0,1.1018,0.0,0.0,0.0,0.0,0.0,0.0,0.0,0.0,0.0,0.0,0.0,0.0,0.0,0.0,0.0,-0.1166,-0.2333,-0.2333,-0.2333,-0.2333,-0.2333,-0.2333,-0.2333,-0.2333,-0.2333,-0.2342,-0.2507,-0.4736,-0.6294,-0.7633,-0.9856,-1.1484,-1.2501,-1.2965,-1.3274,-1.3583,-1.3898,-1.6177,-1.9197,-1.9499,-2.1763,-2.4636,0.0,0.0,0.0,0.0,0.0,0.0,0.0,0.0,0.0,0.0,3.795,3.7096,0.0,0.0,0.0,0.0,0.0,0.0,0.0,3.3069,3.2727,3.2727,3.2727,3.2727,3.2727,3.2612,3.2133,3.1169,3.1842,3.1361,2.9747,2.9691,2.9034,2.7921,2.7926,2.789,2.7804,2.8217,2.802,2.7642,2.8157,2.802,2.7521,2.7521,0.0,0.0,0.0,0.0,0.0,0.0,0.0,0.0,2.7073,2.7073,2.683,2.5439,2.4193,2.2827,2.1447,2.0081,1.9072,1.9072,1.9108,1.9277,1.9639,1.8721,1.7431,1.6375,1.5698,1.4432,1.1168,1.1305,1.1305,0.0,0.0,0.0,0.0,0.0,0.0,0.0,0.0,0.0,0.0,0.0,0.0,0.0,0.0,0.0,0.0,-0.0728,-0.2333,-0.2333,-0.2333,-0.2333,-0.2333,-0.2333,-0.2333,-0.2333,-0.2333,-0.2333,-0.248,-0.5736,-0.7446,-0.8004,-1.1134,-1.2501,-1.2501,-1.2965,-1.312,-1.312,-1.359,-1.5863,-1.9187,-1.9197,-2.1464,-2.4636,0.0,0.0,0.0,0.0,0.0,0.0,0.0,0.0,0.0,0.0,0.0,0.0,0.0,0.0,0.0,0.0,0.0,0.0,0.0,3.3523,3.3182,3.2727,3.2727,3.2727,3.2727,3.1998,3.1169,3.0236,3.1496,3.1149,2.9194,2.9058,2.8505,2.7552,2.7287,2.7169,2.7234,2.7604,2.7762,2.79,2.7556,2.7556,2.7882,2.7642,2.7521,0.0,0.0,0.0,0.0,0.0,0.0,0.0,2.7073,2.7073,2.683,2.5439,2.4193,2.2827,2.1447,2.0081,1.9072,1.9072,1.9398,1.9471,1.8351,1.7317,1.6496,1.6122,1.4858,1.3159,1.0881,1.0455,0.0,0.0,0.0,0.0,0.0,0.0,0.0,0.0,0.0,0.0,0.0,0.0,0.0,0.0,0.0,0.0,0.0583,-0.1311,-0.2333,-0.2333,-0.2333,-0.2333,-0.2333,-0.2333,-0.2333,0.0,-0.2333,-0.2333,-0.2478,-0.5538,-0.8558,-1.117,-1.2066,-1.2501,-1.2501,-1.2656,-1.2656,-1.2656,-1.3428,-1.571,-1.8885,-1.9499,-2.1763,-2.4636,0.0,0.0,0.0,0.0,0.0,0.0,0.0,0.0,0.0,0.0,0.0,0.0,0.0,0.0,0.0,0.0,0.0,0.0,0.0,0.0,3.3069,3.2727,3.2727,3.2727,3.2727,3.1767,3.082,2.9884,3.0006,2.9329,2.7855,2.7723,2.7409,2.6918,2.6759,2.6845,2.6998,2.7364,2.7539,2.7556,2.7677,2.7917,2.802,2.802,2.802,2.802,2.7762,0.0,0.0,0.0,0.0,0.0,0.0,0.0,2.5823,2.4579,2.3201,2.1825,2.0449,1.9571,1.9072,1.9072,1.9483,1.948,1.7959,1.6807,1.5849,1.515,1.3444,1.1592,1.0743,0.0,0.0,0.0,0.0,0.0,0.0,0.0,0.0,0.0,0.0,0.0,0.0,0.0,0.0,0.0,0.0,0.2326,0.0146,-0.1457,-0.2333,-0.2333,-0.2333,-0.2333,-0.2333,-0.2333,-0.2333,-0.2333,-0.2333,-0.3059,-0.4657,-0.6327,-0.8933,-1.2081,-1.2372,-1.2501,-1.2501,-1.2501,-1.2501,-1.2501,-1.312,-1.5548,-1.8723,-1.9348,-2.1613,-2.4636,0.0,0.0,0.0,0.0,0.0,0.0,0.0,0.0,0.0,0.0,0.0,0.0,0.0,0.0,0.0,0.0,0.0,0.0,0.0,0.0,0.0,3.2727,3.2727,3.2612,3.2498,3.1536,3.0587,2.9648,2.8373,2.7352,2.6491,2.6422,2.6351,2.629,2.6437,2.6609,2.6863,2.7364,2.7418,2.7315,2.8157,2.8277,2.814,2.8397,2.8517,2.8397,2.814,2.802,2.802,2.79,0.0,0.0,0.0,0.0,2.4933,2.3574,2.2201,2.0829,1.9456,1.9072,1.9072,1.9072,1.9483,1.9468,1.7556,1.6668,1.5566,1.388,1.1886,1.0455,0.0,0.0,0.0,0.0,0.0,0.0,0.0,0.0,0.0,0.0,0.0,0.0,0.0,0.0,0.0,0.0,0.0,0.1891,0.0146,-0.1457,-0.2333,-0.2333,-0.2333,-0.2333,-0.2333,-0.2333,-0.2333,-0.2333,-0.2624,-0.4218,-0.6974,-0.7603,-0.9345,-1.2081,-1.2372,-1.2501,-1.2501,-1.2501,-1.2501,-1.2501,-1.2965,-1.5395,-1.8723,-1.9036,-2.1452,-2.4636,0.0,0.0,0.0,0.0,0.0,0.0,0.0,0.0,0.0,0.0,3.795,3.7096,0.0,0.0,0.0,0.0,0.0,0.0,0.0,0.0,0.0,3.2727,3.2727,3.2363,3.1516,3.0587,2.9648,2.8719,2.7727,2.6936,2.6473,2.6165,2.5977,2.5943,2.6319,2.6491,2.6626,2.7245,2.7642,2.79,2.802,2.8259,2.8397,2.8517,2.8517,2.8397,2.814,2.8157,2.8397,2.7762,2.7762,0.0,0.0,0.0,2.5162,2.3559,2.2201,2.0829,1.9456,1.9072,1.9072,1.9072,1.9483,1.9201,0.0,0.0,1.5283,0.0,1.1181,0.0,0.0,0.0,0.0,0.0,0.0,0.0,0.0,0.0,0.0,0.0,0.0,0.0,0.0,0.0,0.0,0.0,0.3199,0.1164,-0.0,-0.1457,-0.2333,-0.2333,-0.2333,-0.2333,-0.2333,-0.2333,-0.2333,-0.2333,-0.3641,-0.5235,-0.7119,-0.8642,-1.0398,-1.2081,-1.2372,-1.2501,-1.2501,-1.2501,-1.2501,-1.2501,-1.2965,-1.5395,-1.8723,-1.9036,-2.1452,-2.4636,0.0,0.0,0.0,0.0,0.0,0.0,0.0,0.0,0.0,0.0,0.0,3.7203,0.0,0.0,0.0,0.0,0.0,0.0,0.0,0.0,0.0,3.2727,3.2727,3.2248,3.1285,3.0353,2.9412,2.848,2.7312,2.6662,2.6491,2.6319,2.6368,2.6503,2.654,2.6848,2.7295,2.7349,2.7539,2.802,2.802,2.814,2.8517,2.8755,2.8755,2.8755,2.8618,2.8618,2.8755,2.8259,2.802,2.7779,2.6762,0.0,0.0,0.0,2.1082,1.9826,1.92,1.9072,1.9072,0.0,1.9362,1.8881,1.604,1.5606,1.5017,1.2166,0.0,0.0,0.0,0.0,0.0,0.0,0.0,0.0,0.0,0.0,0.0,0.0,0.0,0.0,0.0,0.0,0.0,0.0,0.3199,0.131,-0.1166,-0.1895,-0.2333,-0.2333,-0.2333,-0.2333,-0.2333,-0.2333,-0.2333,-0.2333,-0.4799,-0.6391,-0.7119,-0.9831,-1.1457,-1.2081,-1.2372,-1.2501,-1.2501,-1.2501,-1.2501,-1.2501,-1.312,-1.5548,-1.8723,-1.9348,-2.1613,-2.4636,0.0,0.0,0.0,0.0,0.0,0.0,0.0,0.0,0.0,0.0,0.0,0.0,0.0,0.0,0.0,0.0,0.0,0.0,0.0,0.0,0.0,3.3161,3.3069,3.2363,3.1169,3.0353,2.9294,2.8122,2.7123,2.6628,2.6628,2.6628,2.6866,2.712,2.6764,2.7038,2.7779,2.7297,2.7539,2.802,2.814,2.8277,2.8636,2.8874,2.8975,2.8993,2.8874,2.8737,2.8498,2.814,2.7642,2.7021,2.5652,2.4178,0.0,0.0,0.0,1.9072,1.9072,0.0,1.9072,1.9072,1.9265,1.8719,0.0,0.0,1.4902,0.0,0.0,0.0,0.0,0.0,0.0,0.0,0.0,0.0,0.0,0.0,0.0,0.0,0.0,0.0,0.0,0.0,0.0,0.0,0.2326,0.0436,-0.2187,-0.2333,-0.2333,-0.2333,-0.2333,-0.2333,-0.2333,-0.2333,-0.2333,-0.2333,-0.5522,-0.697,-0.7119,-1.0583,-1.206,-1.2081,-1.2372,-1.2501,-1.2501,-1.2501,-1.2501,-1.2501,-1.312,-1.5557,-1.8723,-1.9348,-2.1613,-2.4649,0.0,0.0,0.0,0.0,0.0,0.0,0.0,0.0,0.0,0.0,0.0,0.0,3.6386,3.6277,3.6036,3.5488,3.5378,3.5046,3.4491,3.4379,3.4379,3.4379,3.384,0.0,3.0897,3.0217,2.8938,2.7194,2.7056,2.7039,2.7039,2.7039,2.7142,2.7486,2.7159,2.7056,2.7194,2.7401,2.7642,2.802,2.8397,2.8636,2.8975,2.8975,2.8975,2.8975,2.8636,2.79,2.7021,2.6762,2.5912,2.5056,2.4687,2.345,2.2076,0.0,0.0,0.0,1.9072,1.9072,0.0,1.9072,1.9265,1.8673,0.0,0.0,0.0,0.0,0.0,0.0,0.0,0.0,0.0,0.0,0.0,0.0,0.0,0.0,0.0,0.0,0.0,0.0,0.0,0.0,0.0,0.0,-0.0,-0.2041,-0.2333,-0.2333,-0.2333,-0.2333,-0.2333,-0.2333,-0.2333,-0.2333,-0.2333,-0.2333,-0.5522,-0.697,-0.7119,-1.0583,-1.206,-1.2081,-1.2372,-1.2501,-1.2501,-1.2501,-1.2501,-1.2501,-1.2501,-1.5089,-1.8572,-1.8723,-2.1141,-2.4676,0.0,0.0,0.0,0.0,0.0,0.0,0.0,0.0,0.0,0.0,0.0,0.0,0.0,3.658,3.6168,3.6036,3.5598,3.5157,3.458,3.4469,3.4134,3.3367,3.2892,3.1747,2.9648,2.9194,2.8361,2.7073,2.7297,2.7297,2.7073,2.7556,2.7659,2.7521,2.7177,2.7315,2.7659,2.7418,2.7659,2.8277,2.8259,2.8498,2.8975,2.8975,2.8975,2.8975,2.8874,2.8618,2.8122,2.6883,2.6277,2.5546,2.3311,2.2201,2.1573,2.0322,1.9571,1.9072,1.9072,1.9072,0.0,1.9072,1.9145,1.8464,1.5698,0.0,0.0,0.0,0.0,0.0,0.0,0.0,0.0,0.0,0.0,0.0,0.0,0.0,0.0,0.0,0.0,0.0,0.0,0.0,0.0,0.0,0.0,-0.1311,-0.2187,-0.2333,-0.2333,-0.2333,-0.2333,-0.2333,-0.2333,-0.2333,-0.2333,-0.2333,-0.5522,-0.697,-0.7119,-1.0583,-1.206,-1.2081,-1.2372,-1.2501,-1.2501,-1.2501,-1.2501,-1.2656,-1.4037,-1.616,-1.8723,-2.0091,-2.2211,-2.4676,0.0,0.0,0.0,0.0,0.0,0.0,0.0,0.0,4.0593,3.975,0.0,0.0,0.0,0.0,3.6277,3.6277,3.5927,3.5488,3.5157,3.5157,3.4714,3.3909,3.3098,3.1842,3.0138,2.9194,2.8259,2.7435,2.7521,2.7418,2.7435,2.7779,2.79,2.7642,2.7418,2.7659,2.802,2.7418,2.7677,2.8397,2.7762,2.8122,2.8975,2.848,2.8618,2.8975,2.8975,2.8737,2.8122,2.7004,2.6034,2.504,2.2812,2.1587,2.0843,1.9456,1.9072,1.9072,1.9072,1.9072,1.9072,1.9072,1.9072,1.8337,1.56,0.0,0.0,0.0,0.0,0.0,0.0,0.0,0.0,0.0,0.0,0.0,0.0,0.0,0.0,0.0,0.0,0.0,0.0,0.0,0.0,0.0,0.0,0.0,-0.2187,-0.2333,-0.2333,-0.2333,-0.2333,-0.2333,-0.2333,-0.2333,-0.2333,-0.2333,-0.5522,-0.6986,-0.7165,-1.0601,-1.2088,-1.2149,-1.2393,-1.2501,-1.2501,-1.2501,-1.2501,-1.2656,-1.4645,-1.6617,-1.8572,-2.0703,-2.2682,-2.4541,0.0,0.0,0.0,0.0,0.0,0.0,0.0,0.0,3.9853,3.8896,0.0,0.0,0.0,0.0,0.0,3.6277,3.6277,3.6277,3.6277,3.6277,3.6277,3.6145,3.4469,3.3119,3.2072,3.002,2.8618,2.802,2.7642,2.7642,2.802,2.802,2.802,2.802,2.802,2.802,2.802,2.7642,2.79,2.8397,2.7021,2.7504,2.8856,2.7504,2.7762,2.8856,2.8856,2.8122,2.7021,2.69,2.5285,2.3201,2.3076,2.1713,1.9979,1.9328,1.9072,1.9072,0.0,0.0,0.0,1.9072,1.9072,0.0,1.5564,0.0,0.0,0.0,0.0,0.0,0.0,0.0,0.0,0.0,0.0,0.0,0.0,0.0,0.0,0.0,0.0,0.0,0.0,0.0,0.0,0.0,-0.0874,-0.2333,-0.2333,-0.2333,-0.2333,-0.2333,-0.2333,-0.2333,-0.2333,-0.2333,-0.2333,-0.2333,-0.5525,-0.7019,-0.7256,-1.0643,-1.2149,-1.2298,-1.244,-1.2501,-1.2501,-1.2501,-1.2501,-1.2656,-1.433,-1.6151,-1.828,-2.0241,-2.2372,-2.4136,0.0,0.0,0.0,0.0,0.0,4.1324,4.1324,4.1097,4.0694,0.0,0.0,0.0,3.7311,3.6688,3.6277,3.6277,3.6277,3.6277,3.6277,3.5488,3.458,3.3642,3.2052,3.0684,2.9549,2.8737,2.814,2.802,2.814,2.814,2.802,2.8498,2.8636,2.8397,2.8397,2.8517,2.8737,2.814,2.814,2.8517,2.814,2.7762,2.7504,2.7142,2.6658,2.6156,2.6156,2.652,2.69,2.5912,2.5056,2.407,2.1713,2.0221,1.9328,1.92,1.9072,1.9072,1.9072,0.0,0.0,0.0,0.0,0.0,1.685,1.7424,0.0,0.0,0.0,0.0,0.0,0.0,0.0,0.0,0.0,0.0,0.0,0.0,0.0,0.0,0.0,0.0,0.0,0.0,0.0,0.0,-0.0874,-0.2333,-0.2333,-0.2333,-0.2333,-0.2333,-0.2333,-0.2333,-0.2333,-0.2333,-0.2333,-0.2333,-0.5577,-0.7227,-0.726,-1.0745,-1.225,-1.2298,-1.244,-1.2501,-1.2501,-1.2501,-1.2501,-1.2811,-1.5557,-1.7227,-1.8431,-2.1613,-2.3416,-2.441,0.0,0.0,0.0,0.0,0.0,4.1324,4.1324,4.1324,4.0896,0.0,0.0,0.0,3.7096,3.658,3.6277,3.6277,3.6277,3.6277,3.6277,3.5598,3.4692,3.3438,3.2052,3.0684,2.945,2.8618,2.8259,2.8379,2.8517,2.8517,2.8379,2.8856,2.8874,2.8755,2.8755,2.8874,2.8975,2.8618,2.8498,2.8636,2.7521,2.7021,2.69,2.579,2.5178,2.5056,2.5056,2.5912,2.6779,2.5423,2.4687,2.3698,2.0982,1.9851,1.9456,1.92,1.9072,1.9072,1.9072,1.9072,1.9072,1.9072,0.0,0.0,1.6592,1.6827,1.6561,0.0,0.0,0.0,0.0,0.0,0.0,0.0,0.0,0.0,0.0,0.0,0.0,0.0,0.0,0.0,0.0,0.6257,0.3052,0.0146,-0.1457,-0.2333,-0.2333,-0.2333,-0.2333,-0.2333,-0.2333,-0.2333,-0.2333,-0.2345,-0.2645,-0.3378,-0.5937,-0.7629,-0.8421,-1.1138,-1.2325,-1.2386,-1.2467,-1.2501,-1.2501,-1.2501,-1.2501,-1.2811,-1.616,-1.7531,-1.828,-2.2073,-2.3779,-2.4363,0.0,0.0,4.1324,4.1324,4.1324,4.1324,4.1324,4.1198,4.0593,0.0,3.8687,3.795,3.6472,3.6277,3.6277,3.6277,3.6277,3.6277,3.6277,3.6145,3.5598,3.4357,3.3077,3.1822,3.0587,2.9213,2.8755,2.8975,2.8755,2.8755,2.8975,2.8975,2.8975,2.8975,2.8975,2.8975,2.8975,2.8975,2.8856,2.8618,2.6156,2.579,2.652,2.4054,2.3698,2.4564,2.4564,2.5423,2.6399,2.5178,2.407,2.2702,2.0729,2.0106,1.9979,1.9328,1.92,1.92,1.9072,1.9072,1.9072,1.9072,1.8944,0.0,1.5684,1.5043,1.4173,0.0,0.0,0.0,0.0,0.0,0.0,0.0,0.0,0.0,0.0,0.0,0.0,0.0,0.0,0.0,0.9351,0.699,0.349,-0.1313,-0.2042,-0.2333,-0.2333,-0.2333,-0.2333,-0.2333,-0.2333,-0.2334,-0.2338,-0.2364,-0.3122,-0.4612,-0.6466,-0.8058,-0.9829,-1.1536,-1.2379,-1.2501,-1.2501,-1.2501,-1.2501,-1.2501,-1.2501,-1.2811,-1.616,-1.7379,-1.7834,-2.1924,-2.3642,-2.4099,4.1324,4.1324,4.1324,4.1324,4.1324,4.1324,4.1324,4.0795,3.9955,3.8896,3.7631,3.6688,3.6386,3.6277,3.6277,3.6277,3.6277,3.6277,3.6277,3.5378,3.4246,3.3077,3.1842,3.0587,2.9331,2.9094,2.8975,2.8975,2.8975,2.8993,2.8975,2.8975,2.8975,2.8975,2.8975,2.8975,2.8975,2.8975,2.8361,2.7383,2.6779,2.6156,2.5178,2.3698,2.2591,2.1853,2.1853,2.2716,2.3822,2.3574,2.3076,2.2452,2.0982,2.0361,1.9979,1.9584,1.9456,1.9456,1.92,1.9072,1.9072,1.9072,1.8291,0.0,1.6721,1.5684,1.4399,0.0,0.0,0.0,0.0,0.0,0.0,0.0,0.0,0.0,0.0,0.0,0.0,0.0,0.0,0.0,0.9334,0.6986,0.4509,0.2477,-0.0583,-0.2333,-0.2333,-0.2333,-0.2333,-0.2333,-0.2333,-0.2345,-0.2369,-0.2375,-0.2539,-0.2867,-0.5942,-0.7667,-0.8148,-1.1164,-1.2474,-1.2501,-1.2501,-1.2501,-1.2501,-1.2501,-1.2501,-1.2811,-1.616,-1.7379,-1.7834,-2.1924,-2.3769,-2.4355,4.1324,4.1324,4.1324,4.1324,4.1324,4.1324,4.1324,4.0997,4.0262,3.9,3.7334,3.6277,3.6277,3.6277,3.6277,3.6277,3.6277,3.6277,3.6277,3.5157,3.3888,3.2623,3.1496,3.0255,2.8975,2.8975,2.8975,2.8975,2.8975,2.8975,2.8975,2.8975,2.8618,2.8002,2.8737,2.8618,2.8002,2.8737,2.8618,2.7882,2.652,2.5178,2.3946,2.2591,2.1727,2.1109,2.1109,2.1696,2.2427,2.2885,2.2692,2.1919,2.0895,2.0488,2.0234,1.9711,1.9571,1.9584,1.92,1.9072,1.9072,1.9072,1.8022,0.0,0.0,1.4903,1.3473,0.0,0.0,0.0,0.0,0.0,0.0,0.0,0.0,0.0,0.0,0.0,0.0,0.0,0.0,0.0,0.9329,0.8164,0.5683,0.1457,-0.1021,-0.2334,-0.2333,-0.2333,-0.2333,-0.2333,-0.2348,-0.2363,-0.2378,-0.2408,-0.334,-0.5035,-0.6634,-0.8375,-1.0075,-1.1689,-1.2501,-1.2501,-1.2501,-1.2501,-1.2501,-1.2501,-1.2501,-1.2811,-1.616,-1.7379,-1.7834,-2.1924,-2.3794,-2.4431,4.1324,4.1324,4.1324,4.1324,4.1324,4.1324,4.1324,4.1224,4.0465,3.8792,3.7227,3.6277,3.6277,3.6277,3.6277,3.6277,3.6277,3.6277,3.6277,3.5378,3.4224,3.2964,3.1842,3.0587,2.9331,2.9094,2.8975,2.8975,2.8975,2.8975,2.8975,2.8975,2.8361,2.7383,2.8241,2.8122,2.7383,2.8241,2.8498,2.8002,2.5994,2.4626,2.3698,2.209,2.1475,2.1488,2.1303,2.139,2.1849,2.2596,2.2312,2.159,2.1107,2.09,2.0772,1.9989,1.9824,1.9658,1.9273,1.912,1.9072,1.9072,1.7893,1.6333,0.0,0.0,0.0,0.0,0.0,0.0,0.0,0.0,0.0,0.0,0.0,0.0,0.0,0.0,0.0,0.0,0.0,0.0,0.0,0.8899,0.6123,-0.0146,-0.1167,-0.1751,-0.2333,-0.2333,-0.2333,-0.2333,-0.2363,-0.238,-0.2387,-0.2442,-0.4011,-0.7099,-0.7325,-0.9071,-1.203,-1.2347,-1.2501,-1.2501,-1.2501,-1.2501,-1.2501,-1.2501,-1.2501,-1.2811,-1.616,-1.7379,-1.7834,-2.1924,-2.3794,-2.4431,4.1324,4.1324,4.1324,4.1324,4.1324,4.1324,4.1324,4.0694,3.9647,3.782,3.6904,3.6277,3.6277,3.6277,3.6277,3.6277,3.6277,3.6277,3.6277,3.6168,3.5598,3.4357,3.3077,3.1822,3.0587,2.9568,2.8975,2.8975,2.8975,2.8975,2.8975,2.8975,2.8856,2.8737,2.7624,2.7762,2.8737,2.7624,2.652,2.5456,2.5405,2.5837,2.6277,2.3807,2.2827,2.2745,2.1915,2.1683,2.1937,2.2028,2.2042,2.1924,2.1897,2.1884,2.1753,2.0963,2.0535,2.0215,1.9683,1.9253,1.9072,1.9072,1.712,1.5033,1.4912,0.0,1.1056,1.0921,0.0,0.0,0.0,0.0,0.0,0.0,0.0,0.0,0.0,0.0,0.0,0.0,0.0,0.0,0.0,0.7706,0.509,0.1455,0.1164,0.0146,-0.2187,-0.2333,-0.2333,-0.2333,-0.2363,-0.2391,-0.2418,-0.2453,-0.3409,-0.5315,-0.6729,-0.8448,-1.0319,-1.1876,-1.2501,-1.2501,-1.2501,-1.2501,-1.2501,-1.2501,-1.2501,-1.2811,-1.616,-1.7379,-1.7834,-2.1924,-2.3794,-2.4431,4.1324,4.1324,4.1324,4.1324,4.1324,4.1324,4.1324,4.016,3.8896,3.7631,3.6796,3.6277,3.6277,3.6277,3.6277,3.6277,3.6277,3.6277,3.6277,3.5179,3.4296,3.3726,3.2116,3.0983,3.0521,2.9934,2.969,2.969,2.969,2.969,2.969,2.969,2.9306,2.8553,2.7678,2.7207,2.7102,2.7207,2.6962,0.0,0.0,2.7294,0.0,2.376,2.2493,2.2392,2.2011,2.1991,2.2205,2.2044,2.2098,2.2205,2.2044,2.1991,2.1859,2.1066,2.0844,2.0623,1.9976,1.965,1.9573,1.9431,1.7217,1.5192,1.5054,1.2893,1.0968,1.1056,0.0,0.0,0.0,0.0,0.0,0.0,0.9454,0.0,0.0,0.0,0.0,0.0,0.0,0.0,0.0,0.0,0.0,0.0,0.0146,-0.1166,-0.2187,-0.2333,-0.2341,-0.2358,-0.2388,-0.2418,-0.245,-0.248,-0.3903,-0.642,-0.7201,-0.8915,-1.1411,-1.2192,-1.2501,-1.2501,-1.2501,-1.2501,-1.2501,-1.2501,-1.2501,-1.2811,-1.616,-1.7379,-1.7834,-2.1625,-2.3656,-2.4431,4.1324,4.1324,4.1324,4.1324,4.1324,4.1324,4.1324,3.9853,3.8582,3.795,3.6904,3.6277,3.6277,3.6277,3.6277,3.6277,3.6277,3.6277,3.6277,3.5019,3.4137,3.3791,3.2116,3.103,3.0661,3.0309,3.0204,3.0204,3.0204,3.0204,3.0204,3.0204,2.9689,2.878,2.8109,2.7226,2.6352,0.0,2.696,2.6619,2.6996,2.6937,2.6358,2.3593,2.2427,2.2111,2.2111,2.2298,2.2512,2.2298,2.2365,0.0,2.2298,2.2231,2.2098,2.143,2.1245,2.1047,2.0392,2.0195,1.9985,1.9172,1.716,1.5233,1.4718,1.2783,1.1097,1.1206,1.1287,0.0,0.0,0.0,1.0105,0.9706,0.0,0.9666,0.0,0.0,0.0,0.0,0.0,0.0,0.0,0.0,0.0,0.2766,0.0728,-0.0874,-0.2188,-0.2341,-0.2356,-0.2378,-0.2416,-0.2447,-0.2469,-0.2499,-0.3922,-0.6889,-0.7201,-0.9071,-1.1876,-1.2347,-1.2501,-1.2501,-1.2501,-1.2501,-1.2501,-1.2501,-1.2501,-1.2811,-1.616,-1.7379,-1.7834,-2.1487,-2.3505,-2.4431,4.1324,4.1324,4.1324,4.1324,4.1324,4.1324,4.1324,3.9853,3.8792,3.8792,3.7311,3.6277,3.6277,3.6277,3.6277,3.6277,3.6277,3.6277,3.6277,3.6626,3.6342,3.5054,3.4349,3.3274,3.1949,3.0784,3.0204,3.0204,3.0204,3.0204,3.0204,3.0204,3.0204,3.008,2.878,2.8134,2.7991,2.671,2.5319,2.4071,2.4393,2.3912,2.3175,0.0,2.3342,2.2405,2.2405,0.0,0.0,2.2832,2.2846,0.0,0.0,0.0,2.2832,2.2421,2.2089,2.1745,2.0934,2.06,1.999,1.8083,1.6581,1.5082,1.3746,1.2373,1.1382,1.1382,1.1325,1.1078,1.0645,1.0559,1.0275,0.9824,0.9927,0.0,0.0,0.0,0.0,0.0,0.0,0.0,0.0,0.0,0.0,0.4808,0.4947,0.2909,-0.2043,-0.2363,-0.2378,-0.2378,-0.2436,-0.2467,-0.2469,-0.2499,-0.3297,-0.517,-0.6733,-0.8448,-1.0164,-1.1721,-1.2501,-1.2501,-1.2501,-1.2501,-1.2501,-1.2501,-1.2501,-1.2811,-1.616,-1.7379,-1.7834,-2.1487,-2.3505,-2.4431,4.1324,4.1324,4.1324,4.1324,4.1324,4.0896,3.9853,3.9208,3.8372,3.7334,3.6688,3.6277,3.6277,3.6277,3.6277,3.6277,3.6576,3.6782,3.6782,3.6747,3.6501,3.6129,3.4531,3.3426,3.293,3.1715,3.0974,3.0974,3.0974,3.0974,3.0974,3.0974,3.0974,3.0956,2.927,2.8128,0.0,0.0,0.0,0.0,0.0,2.4651,2.4181,0.0,2.3025,2.2712,2.2712,2.2779,0.0,2.2859,2.2859,2.2859,2.2859,2.2859,2.2859,2.2448,2.2245,2.203,0.0,0.0,2.0797,1.9975,0.0,1.5681,1.5,1.3013,1.1416,1.1518,1.1332,1.0995,1.0645,1.0512,1.0201,0.9824,0.9938,1.0019,0.0,0.9987,0.0,0.0,0.0,0.0,0.0,0.0,0.0,0.5373,0.3134,0.0896,-0.1496,-0.1802,-0.2115,-0.2438,-0.2458,-0.2478,-0.2499,-0.2508,-0.3297,-0.5014,-0.6733,-0.8448,-1.0008,-1.1721,-1.2501,-1.2501,-1.2501,-1.2501,-1.2501,-1.2501,-1.2501,-1.2811,-1.616,-1.7379,-1.7834,-2.1487,-2.3505,-2.4483,4.1611,4.1611,4.1559,4.135,4.1324,4.0795,3.944,0.0,0.0,0.0,3.6472,3.6277,3.6277,3.6277,3.6346,3.653,3.6851,3.7104,3.7288,3.7264,3.7104,3.661,3.4984,3.3882,3.3379,3.2128,3.1377,3.1377,3.1377,3.1377,3.1377,3.1377,3.1377,3.1359,3.0188,2.8629,2.6787,2.6787,2.5733,0.0,0.0,2.421,0.0,0.0,2.327,2.3529,0.0,2.2859,2.2859,2.2859,2.2859,2.2859,2.2859,2.2859,2.2859,2.2585,2.2448,2.2448,2.1897,2.1632,0.0,2.0263,1.8397,0.0,1.5365,1.3758,1.2423,1.2532,1.1832,1.1603,1.2522,1.1418,1.0619,1.0938,1.0389,0.997,0.0,1.0019,0.9992,0.9911,0.9802,0.9715,0.0,0.0,0.5735,0.3776,0.2418,0.0908,0.0,0.0,-0.153,-0.2469,-0.248,-0.2495,-0.2514,-0.2514,-0.2983,-0.4077,-0.642,-0.8136,-0.9226,-1.1411,-1.2501,-1.2501,-1.2501,-1.2501,-1.2501,-1.2501,-1.2501,-1.2811,-1.616,-1.7379,-1.7834,-2.1487,-2.3656,-2.4662,4.2186,4.2134,4.1951,4.1402,4.1324,4.0997,0.0,0.0,3.8477,0.0,3.6796,3.6277,3.6277,3.63,3.6507,3.6989,3.7081,3.7311,3.7793,3.8321,3.8131,3.6772,3.5882,3.4757,3.3505,3.2128,3.1377,3.1377,3.1377,3.1377,3.1377,3.1377,3.1377,3.1377,3.1377,0.0,2.7105,2.7105,2.5517,2.2859,2.2859,2.2996,2.2996,2.2859,2.3802,2.4873,2.3393,2.2859,2.2859,2.2859,2.2859,2.2859,2.2859,2.2859,2.2859,2.2859,2.2859,2.2722,2.2035,2.176,2.1346,1.9122,1.8736,0.0,0.0,0.0,1.4446,1.4446,1.3145,1.2941,1.5764,1.3469,1.139,1.2713,1.1128,0.9889,1.0003,1.0019,1.0019,1.0019,0.9916,0.9807,0.986,0.9693,0.7109,0.0909,0.3026,0.3177,0.0,0.0,-0.0772,-0.2316,-0.2499,-0.2514,-0.2514,-0.2514,-0.2514,-0.2514,-0.5955,-0.7513,-0.7669,-1.094,-1.2501,-1.2501,-1.2501,-1.2501,-1.2501,-1.2501,-1.2501,-1.2811,-1.616,-1.7531,-1.8138,-2.166,-2.3833,-2.5137,4.2239,4.1821,4.1481,4.135,4.1324,4.0997,0.0,0.0,0.0,0.0,3.6796,3.6277,3.6277,3.6622,3.6897,3.7012,3.7747,3.8252,3.8367,3.8849,3.9007,3.8608,3.6539,3.5253,3.4881,3.2638,3.1377,3.1377,3.1377,3.1377,3.1377,3.1377,3.1377,3.1377,3.1377,2.977,2.7105,2.7105,2.5517,2.2859,2.2859,2.3529,2.4345,0.0,2.3802,2.4873,2.3393,2.2859,2.2859,2.2859,2.2859,2.2859,2.2859,2.2859,2.2859,2.2859,2.2859,2.2722,2.231,2.2035,2.1672,2.0895,1.9849,1.8646,0.0,0.0,0.0,0.0,0.0,1.5052,1.4571,1.3163,1.1918,1.1095,1.0332,0.9981,1.0014,1.0019,1.0019,1.0019,0.9992,0.9965,0.9938,0.9943,0.9176,0.7627,0.357,0.0776,0.0,0.0,0.0,-0.0626,-0.1412,-0.2043,-0.2514,-0.2514,-0.2514,-0.2514,-0.5955,-0.7513,-0.7669,-1.094,-1.2501,-1.2501,-1.2501,-1.2501,-1.2501,-1.2501,-1.2501,-1.2811,-1.616,-1.9197,-2.1972,-2.3454,-2.4469,-2.5445,4.2239,4.1716,4.1402,4.1638,0.0,0.0,3.975,3.9104,0.0,3.7096,3.6789,0.0,3.6599,3.7058,3.7448,3.7701,3.8252,3.8665,3.8895,3.9147,3.9049,3.8432,3.6481,3.5129,3.4507,3.2511,3.1377,3.1377,3.1377,3.1377,3.1377,3.1377,3.1377,3.1377,3.1377,3.0178,2.7916,2.6722,2.5263,2.3802,2.3133,2.3406,0.0,2.327,2.3406,2.3938,2.3133,2.2859,2.2859,2.2859,2.2859,2.2859,2.2859,2.2859,2.2859,2.2859,2.2722,2.2585,2.2173,2.176,2.1559,2.1414,2.071,1.9825,1.9369,1.8592,1.8077,0.0,1.7262,1.6774,0.0,1.5024,1.2352,1.0335,1.0053,1.0019,1.0019,1.0019,1.0019,1.0019,1.0019,1.0019,1.0019,1.003,1.0047,1.0074,0.5173,0.1567,0.0,0.0,0.0,-0.0,-0.0628,-0.1414,-0.2514,-0.2514,-0.2514,-0.2514,-0.5955,-0.7513,-0.7669,-1.094,-1.2501,-1.2501,-1.2501,-1.2501,-1.2501,-1.2501,-1.2501,-1.2804,-1.6312,-1.9951,-2.3515,-2.4227,-2.4892,-2.5598,4.2186,4.1716,4.1507,0.0,0.0,0.0,0.0,3.889,0.0,3.6781,0.0,3.7058,3.7127,3.7586,3.8068,3.855,3.8642,3.8849,3.9285,3.9308,3.867,3.7309,3.6093,3.4757,3.3379,3.2128,3.1377,3.1377,3.1377,3.1377,3.1377,3.1377,3.1377,3.1377,3.1377,0.0,0.0,2.647,2.5278,2.5143,2.3802,2.3133,2.3133,2.2996,2.2859,2.2859,2.2859,2.2859,2.2859,2.2859,2.2859,2.2859,2.2859,2.2859,2.2859,2.2859,2.2585,2.2173,2.1897,2.1509,2.1192,2.1181,2.1329,2.1233,1.9927,1.9801,1.9944,1.9944,1.8748,1.8433,2.137,0.0,1.2557,1.0123,0.9938,1.0019,1.0019,1.0019,1.0019,1.0019,1.0019,0.0,1.0019,1.0019,1.0036,1.0074,0.6904,0.0,0.0,0.0,0.0,-0.0,-0.0157,-0.0785,-0.22,0.0,-0.2514,-0.2514,-0.5642,-0.7357,-0.7669,-1.0785,-1.2347,-1.2501,-1.2501,-1.2501,-1.2501,-1.2501,-1.2811,-1.3414,-1.6761,-2.0252,-2.3515,-2.4531,-2.5198,-2.5598,4.2265,4.1716,4.1507,4.2056,0.0,4.1647,4.0261,3.9357,3.8648,3.8034,3.7409,3.7196,3.7609,3.8137,3.8481,3.8573,3.8941,3.9216,3.9285,3.9308,3.867,3.7309,3.6093,3.4757,3.3379,3.2128,3.1377,3.1377,3.1377,3.1377,3.1377,3.1377,3.1377,3.1377,0.0,0.0,2.9134,2.7519,0.0,2.6588,2.5128,2.4602,2.4467,2.3406,2.2859,2.2859,2.2859,2.2859,2.2859,2.2859,2.2859,2.2859,2.2859,2.2859,2.2859,2.2859,2.2585,2.2173,2.1897,2.1647,2.1475,2.1473,2.1607,2.186,2.1769,2.1853,2.1888,2.1888,2.1543,2.1015,2.0284,0.0,0.0,1.0134,0.9938,1.0019,1.0019,1.0019,1.0019,1.0019,1.0019,1.0019,1.0019,1.0019,1.0036,1.0074,0.6904,0.0,0.0,0.0,0.0,0.0,-0.0628,0.0,0.0,0.0,-0.2514,-0.2514,-0.4547,-0.6108,-0.7513,-0.9542,-1.1256,-1.2501,-1.2501,-1.2501,-1.2501,-1.2501,-1.403,-1.6617,-1.7976,-2.0553,-2.3515,-2.4835,-2.5518,-2.5598,4.2657,4.2396,4.2291,4.2552,0.0,0.0,0.0,4.0294,0.0,3.8161,3.7881,3.793,3.8183,3.8665,3.8964,3.8964,3.917,3.9308,3.9308,3.9308,3.8432,3.6338,3.5746,3.4507,3.2384,3.1744,3.1377,3.1377,3.1377,3.1377,3.1377,3.1377,3.1377,3.1377,0.0,3.0991,0.0,0.0,0.0,2.6988,2.5532,2.4602,2.3802,2.3133,2.2859,2.2859,2.2859,2.2859,2.2859,2.2859,2.2859,2.2859,2.2859,2.2859,2.2859,2.2585,2.231,2.1897,2.1622,2.1406,2.1408,2.1414,2.1679,2.1933,2.2198,2.2259,2.2259,2.2259,2.2259,2.1302,1.8291,1.6153,0.0,0.0,0.9981,1.0019,1.0019,1.0019,1.0019,1.0019,1.0019,1.0019,1.0019,1.003,1.0041,1.0057,0.7369,0.4855,0.2665,0.0,0.0,0.0,0.0,0.0,0.0,0.0,0.0,-0.2514,-0.4234,-0.5952,-0.7513,-0.9226,-1.094,-1.2501,-1.2501,-1.2501,-1.2501,-1.3414,-1.5242,-1.7825,-1.9338,-2.1452,-2.3812,-2.4987,-2.5518,-2.5598,4.3023,4.3023,4.3049,0.0,4.3206,0.0,4.1954,4.1196,4.0158,3.8521,3.8436,3.8619,3.8734,3.9078,3.9308,3.9308,3.9308,3.9308,3.9308,3.9308,3.8074,3.55,3.5376,3.4133,3.1506,3.1377,3.1377,3.1377,3.1377,3.1414,3.1506,3.1414,3.1377,0.0,0.0,0.0,0.0,0.0,2.9117,2.7916,2.6203,2.4738,2.3665,2.3133,2.2859,2.2859,2.2859,2.2859,2.2859,2.2859,2.2859,2.2859,2.2859,2.2859,2.2859,2.2448,2.2035,2.1772,2.142,2.1224,2.1209,2.1498,2.1764,2.2005,2.2211,2.2259,2.2259,2.2259,2.2259,2.0876,1.6751,1.5989,0.0,0.0,1.0019,1.0019,1.0019,1.0019,1.0019,1.0019,1.0019,1.0019,1.0019,1.0036,1.0041,0.0,0.831,0.7049,0.6115,0.3603,0.141,0.0,0.0,-0.2357,-0.2514,0.0,-0.2514,-0.2514,-0.3766,-0.5483,-0.7513,-0.8915,-1.063,-1.2501,-1.2501,-1.2501,-1.2656,-1.4176,-1.6151,-1.8128,-2.0241,-2.2211,-2.411,-2.5139,-2.5518,-2.5598,0.0,0.0,0.0,0.0,0.0,0.0,4.2128,4.1864,4.1355,3.9879,3.9104,3.8757,3.9193,3.9285,3.9308,3.9308,3.9308,3.9308,3.9308,3.9308,3.8074,3.55,3.5376,3.4133,3.1506,3.1377,3.1377,3.1377,3.1377,3.1579,0.0,3.1561,3.1377,0.0,0.0,0.0,0.0,3.1249,3.112,3.0714,2.8048,2.6855,2.6455,2.3924,2.2859,2.2859,2.2859,2.2859,2.2859,2.2859,2.2859,2.2859,2.2859,2.2859,2.2859,2.2448,2.2035,2.1823,2.1645,2.1505,2.1498,2.1764,2.2029,2.2235,2.2259,2.2259,2.2259,2.2259,2.196,2.0436,1.6303,1.554,1.4314,0.0,0.0,1.0019,1.0019,1.0019,1.0019,1.0019,1.0019,1.0019,1.0019,1.0019,0.0,0.0,0.9745,0.9599,0.9599,0.9286,0.6281,0.0157,0.0,-0.1728,-0.2514,-0.2514,-0.2514,-0.2514,-0.2671,-0.4393,-0.7513,-0.7669,-0.9537,-1.2501,-1.2501,-1.2501,-1.2656,-1.4176,-1.6151,-1.8128,-2.0241,-2.2211,-2.411,-2.5139,-2.5518,-2.5598,0.0,0.0,0.0,0.0,0.0,0.0,0.0,4.2351,4.1598,4.0516,3.957,3.9078,3.9285,3.9308,3.9308,3.9308,3.9308,3.9308,3.9308,3.9308,3.8074,3.55,3.5376,3.4133,3.1506,3.1377,3.1377,3.1377,3.1634,3.1708,3.1634,0.0,0.0,0.0,0.0,3.1377,3.1377,3.1377,3.0843,3.0065,2.8854,2.7387,2.5667,2.4602,2.3665,2.2859,2.2859,2.2859,2.2859,2.2859,2.2859,2.2859,2.2859,2.2859,2.2722,2.2173,2.1897,2.1685,2.1401,2.1412,2.1547,2.18,2.2066,2.2259,2.2259,2.2259,2.2259,2.2259,2.196,2.0748,1.7834,1.6303,1.4621,1.1869,0.0,0.0,1.0019,1.0019,1.0019,1.0019,1.0019,1.0019,1.0019,1.003,0.0,0.0,0.0,1.0057,1.0057,1.0079,0.0,0.3132,0.0,-0.1728,-0.2514,-0.2514,-0.2514,-0.2514,-0.2514,-0.4236,-0.7513,-0.7513,-0.9382,-1.2501,-1.2501,-1.2501,-1.2656,-1.5548,-1.7369,-1.8723,-2.1613,-2.3426,-2.4407,-2.5139,-2.5518,-2.5598,4.6473,0.0,4.6342,0.0,4.5872,4.527,4.3714,4.296,4.2044,4.0905,4.0101,3.9629,3.9331,3.9308,3.9308,3.9308,3.9308,3.9377,3.9515,3.9515,3.8363,3.5894,3.5769,3.4512,3.1856,3.1744,3.1744,3.1744,3.2038,3.2019,0.0,0.0,0.0,0.0,3.1377,3.1377,3.1377,3.1377,3.0843,2.9935,2.9526,2.78,2.5667,2.5667,2.4467,2.2996,2.3406,2.327,2.2859,2.2859,2.2859,2.2859,2.2859,2.2859,2.2722,2.2035,2.1823,2.1811,2.1395,2.1378,2.1655,2.1921,2.2126,2.2259,2.2259,2.2259,2.2259,2.2109,2.181,2.0898,1.8754,1.7074,1.5242,1.2944,0.0,0.0,0.0,1.0019,1.0019,1.0019,1.0019,1.0019,1.0019,1.003,0.0,0.0,0.0,0.0,0.0,0.0,0.0,0.0,0.0,0.0,0.0,-0.2514,-0.2514,-0.2514,-0.2514,-0.4236,-0.7517,-0.8448,-1.0319,-1.2501,-1.2501,-1.2501,-1.2811,-1.6456,-1.827,-1.9025,-2.2521,-2.4193,-2.4703,-2.5291,-2.5518,-2.5598,4.6473,4.6473,4.6473,4.6473,4.6473,4.5882,4.3844,4.361,4.2901,4.1045,4.08,4.041,3.9423,3.9308,3.9308,3.9308,3.9308,3.9515,4.002,4.0043,3.9009,0.0,3.6701,3.5431,3.2721,3.2588,3.2588,3.2588,3.2588,0.0,3.257,0.0,3.1781,3.1377,3.1377,3.1377,3.1377,3.1377,3.1377,3.1249,2.9805,2.846,2.7105,2.7105,2.5398,2.3133,2.4467,2.4074,2.2859,2.2859,2.2859,2.2859,2.2859,2.2859,2.2722,2.2035,2.1963,2.2102,2.1677,2.1667,2.1933,2.2186,2.2259,2.2259,2.2259,2.2259,2.2259,2.181,2.136,2.0447,1.8461,1.7702,1.6321,1.3098,0.0,0.0,0.0,1.0019,1.0019,1.0019,1.0019,1.0019,1.0019,1.0019,0.0,0.0,0.0,0.0,0.0,0.0,0.0,0.517,0.0941,0.0,-0.2514,-0.2514,-0.2514,-0.2514,-0.2514,-0.4236,-0.7669,-1.094,-1.2501,-1.2501,-1.2501,-1.2501,-1.2811,-1.6456,-1.827,-1.9025,-2.2521,-2.4193,-2.4703,-2.5291,-2.5518,-2.5598,4.7649,4.7649,4.7519,4.7127,4.7074,4.6206,4.3919,4.3634,4.2925,4.1068,4.0823,4.0709,4.0364,4.0341,4.0341,0.0,4.0341,4.041,0.0,4.0571,3.9365,3.685,3.6722,3.5431,3.2721,3.2588,3.2588,3.2588,0.0,0.0,0.0,3.2331,3.1928,3.1799,3.1506,3.1377,3.1377,3.1377,3.1377,3.1377,3.0843,2.9917,2.8592,2.8592,2.6871,2.4331,2.4873,2.4074,2.2859,2.2859,2.2859,2.2859,2.2859,2.2722,2.2487,2.2128,2.1963,2.1857,2.1764,2.1812,2.1933,2.2198,2.2259,2.2259,2.2259,2.2259,2.2259,2.181,2.1372,2.0759,1.9833,1.8461,1.6635,1.4483,1.3252,0.0,1.0175,0.0,1.0019,1.0019,1.0019,1.0019,1.0019,1.0019,0.0,0.0,0.0,0.0,0.0,0.0,0.0,0.0,0.0941,0.0,-0.2514,-0.2514,-0.2514,-0.2514,-0.2514,-0.4236,-0.7669,-1.094,-1.2501,-1.2501,-1.2501,-1.2501,-1.2804,-1.6761,-1.8421,-1.9025,-2.2819,-2.4488,-2.469,-2.5077,-2.5344,-2.5571,4.8172,4.8172,4.8068,4.7702,4.7302,4.6448,4.4536,4.389,4.3168,4.1623,4.1397,4.1397,4.1397,4.1397,0.0,4.0846,4.0823,4.0915,4.1099,4.1099,3.99,3.7348,3.7239,3.593,3.3046,3.3046,0.0,3.3046,3.3175,3.323,3.3211,3.2551,3.2221,3.2203,3.1799,3.1616,3.1598,3.1451,3.1377,3.1377,3.1377,3.0584,2.9395,2.9935,2.8328,2.5801,2.5801,2.4873,2.3665,2.3133,2.2859,2.2886,2.3006,2.2757,2.2228,2.2269,2.2049,2.1857,2.1922,2.1945,2.2054,2.2223,2.2259,2.2259,2.2259,2.2259,2.2259,2.181,2.1372,2.091,2.0597,1.938,1.755,1.525,1.4022,1.2635,1.033,0.0,1.0036,1.0085,1.009,0.0,0.0,1.0117,1.009,0.0,0.0,0.0,0.0,0.0,0.0,0.517,0.0941,0.0,-0.2514,-0.2514,-0.2514,-0.2514,-0.3766,-0.5486,-0.7669,-1.094,-1.2501,-1.2501,-1.2501,-1.2501,-1.2804,-1.6904,-1.8572,-1.9025,-2.2967,-2.4636,-2.4676,-2.497,-2.5264,-2.5558,4.8172,4.8172,0.0,0.0,4.7324,0.0,4.5403,4.4422,4.3451,4.2466,4.2339,4.2339,4.2339,4.2339,4.1948,4.1007,0.0,0.0,0.0,4.1627,4.0501,3.8179,3.8067,3.6614,3.3817,3.3817,3.3817,3.3817,3.345,3.3266,3.3248,3.2845,3.2643,3.2625,3.2221,3.2056,3.2019,3.1598,3.1414,3.1414,3.1396,3.0584,2.9526,3.0843,2.9639,2.7238,2.7105,2.6188,2.4738,2.3434,2.2899,2.2953,2.326,2.2793,2.223,2.223,2.2325,2.23,2.2032,2.2078,2.2259,2.2259,2.2259,2.2259,2.2259,2.2259,2.2109,2.181,2.136,2.091,2.0597,2.0145,1.8774,1.5403,1.4944,1.3714,1.0497,1.003,1.0079,0.0,0.0,0.0,1.0373,1.0286,1.0215,0.0,0.0,0.0,0.0,0.0,0.8485,0.517,0.1098,-0.157,-0.2514,-0.2514,-0.2514,-0.2514,-0.5955,-0.7513,-0.7669,-1.094,-1.2501,-1.2501,-1.2501,-1.2501,-1.2804,-1.6904,-1.8572,-1.9025,-2.2967,-2.4636,-2.4676,-2.4943,-2.5251,-2.5558,0.0,0.0,4.8172,4.8172,4.7324,4.6345,4.5403,4.4422,4.3451,4.2466,4.2339,4.2339,4.2339,4.2339,4.2247,4.1994,4.1971,4.204,4.2155,4.1091,3.9801,3.82,3.7018,3.5549,3.3817,3.3817,3.3817,3.3817,3.3725,3.367,3.367,3.3266,3.3083,3.3065,3.2643,3.2459,3.2423,3.2038,3.1854,3.1836,3.1506,3.1249,3.0972,3.1249,3.0307,2.8592,2.7519,2.6188,2.4781,2.3542,2.322,2.3273,2.3567,2.3236,2.2828,2.2828,2.2493,2.2056,2.2114,2.2211,2.2259,2.2259,2.2259,2.2259,2.2259,2.2259,2.2109,2.136,2.1222,2.091,2.0145,1.9995,1.8774,1.5403,1.4944,1.3759,1.0617,1.0161,1.0204,0.0,1.034,1.0356,1.0384,1.0362,1.034,0.0,0.0,0.0,0.0,1.0106,0.8485,0.517,0.235,-0.0157,-0.2514,-0.2514,-0.2514,-0.2514,-0.5955,-0.7513,-0.7669,-1.094,-1.2501,-1.2501,-1.2501,-1.2501,-1.2804,-1.6904,-1.8572,-1.9025,-2.2967,-2.4636,-2.4649,-2.4716,-2.5064,-2.5518,4.8224,4.8172,4.8172,4.8172,4.6968,4.5889,4.5403,4.4051,4.2949,4.2339,4.2339,4.2339,4.2339,4.2339,4.2339,4.2339,4.2339,4.2339,4.2339,4.1013,3.954,3.82,3.6749,3.5275,3.3817,3.3817,3.3817,3.3817,3.3817,3.3817,3.3817,3.3596,3.3486,3.3468,3.3065,3.2881,3.2863,3.2441,3.2276,3.2258,3.2019,3.1928,3.1928,3.1928,3.1534,3.0593,2.9228,2.7749,2.6284,2.4958,2.4063,2.3581,2.3875,2.3497,2.3057,2.3184,2.2633,2.2078,2.2223,2.2259,2.2259,2.2259,2.2259,2.2259,2.2259,2.2259,2.2109,2.1222,2.1071,2.091,1.9995,1.9239,1.7854,1.525,1.4392,1.3085,1.051,1.0253,1.0329,1.0449,1.0465,1.0487,1.0541,1.0498,1.0465,1.0465,1.0356,0.0,1.0204,1.0166,0.9326,0.7377,0.2822,-0.0628,-0.2514,-0.2514,-0.2514,-0.2514,-0.5955,-0.7513,-0.7669,-1.094,-1.2501,-1.2501,-1.2501,-1.2958,-1.3876,-1.7208,-1.9025,-2.0091,-2.3277,-2.4636,-2.4636,-2.4636,-2.501,-2.5518,4.8538,4.8433,4.8433,4.8433,4.6787,4.5404,4.5404,4.36,4.2339,4.2339,4.2339,4.2339,4.2339,4.2339,4.2339,4.2339,4.2339,4.2212,4.1934,4.0603,3.9277,3.7801,3.6344,3.5021,3.3817,3.3817,3.3817,3.3817,3.3817,3.3817,3.3817,3.3817,3.3817,3.3798,3.3468,3.3321,3.3285,3.2863,3.2698,3.268,3.2625,3.2588,3.2588,3.2588,3.2588,3.2454,3.0955,2.9576,2.7909,2.6564,2.5073,2.3888,2.4182,2.3679,2.3146,2.3375,2.2856,2.2259,2.2259,2.2259,2.2259,2.2259,2.2259,2.2259,2.2259,2.2259,2.2109,2.1222,2.1071,2.091,1.9995,1.8501,1.6834,1.5138,1.3737,1.2121,1.0412,0.0,1.0454,1.0568,1.0585,1.0623,1.0726,1.0645,1.0585,1.0585,1.0476,1.0362,1.0242,1.0231,1.0188,1.0079,0.2982,-0.1256,-0.2514,-0.2514,-0.2514,-0.2514,-0.5955,-0.7513,-0.7669,-1.094,-1.2501,-1.2501,-1.2501,-1.3414,-1.5089,-1.7512,-1.9478,-2.1302,-2.3722,-2.4636,-2.4636,-2.4636,-2.501,-2.5518,4.9636,4.9636,4.9636,4.9636,4.7622,4.597,4.597,4.3836,4.2339,4.2339,4.2339,4.2339,4.2339,4.2339,4.2339,4.2339,4.2339,4.1806,4.0603,3.9256,3.7801,3.6344,3.4883,3.4075,3.3817,3.3817,3.3817,3.3817,3.3817,3.3817,3.3817,3.3817,3.3817,3.3817,3.3743,3.3725,3.3688,3.3303,3.312,3.3101,3.2735,3.2588,3.2588,3.2588,3.2588,3.2454,3.0955,2.9576,2.7956,2.6833,2.5383,2.4182,2.4476,2.3979,2.3387,2.3426,2.2856,2.2259,2.2259,2.2259,2.2259,2.2259,2.2259,2.2259,2.2259,2.2259,2.2109,2.1222,2.1071,2.091,1.9995,1.8612,1.7034,1.5327,1.3742,1.2295,1.0807,0.0,1.0574,1.0693,1.071,1.0715,1.0737,1.0721,1.071,1.071,1.0596,1.0481,1.0539,1.0126,1.0035,0.9933,0.4706,0.047,-0.2514,-0.2514,-0.2514,-0.2514,-0.5955,-0.7513,-0.7669,-1.094,-1.2501,-1.2501,-1.2501,-1.3414,-1.5089,-1.7512,-1.9478,-2.1302,-2.3722,-2.4636,-2.4636,-2.4636,-2.501,-2.5518,4.9949,4.9897,4.9776,4.9142,4.7682,4.641,4.5779,4.4161,4.3028,4.2775,4.2752,4.2637,4.2362,4.2339,4.2339,4.2339,4.2339,4.1399,3.9256,3.8465,3.74,3.5957,3.4609,3.3817,3.3817,3.3817,3.3817,3.3817,3.3817,3.3817,3.3817,3.3817,3.3817,3.3817,3.3817,3.3817,3.3798,3.3615,3.3541,3.3523,3.3321,3.3248,3.3248,3.3248,3.3248,3.3112,3.2546,3.0717,2.8617,2.8064,2.6417,2.4462,2.4301,2.3883,2.329,2.3154,2.2707,2.2259,2.2259,2.2259,2.2259,2.2259,2.2259,2.2259,2.2259,2.2259,2.2109,2.151,2.1222,2.0955,2.0472,1.8106,1.6026,1.5499,1.3269,0.0,0.0,1.0612,1.0672,1.0732,1.0737,1.0737,1.0737,1.0737,1.0737,1.0737,1.0683,1.0606,1.0503,0.8594,0.8344,0.9871,0.3306,-0.0942,-0.2514,-0.2514,-0.2514,-0.2514,-0.5955,-0.7513,-0.7669,-1.094,-1.2501,-1.2501,-1.2501,-1.403,-1.6608,-1.7967,-2.0241,-2.2819,-2.4031,-2.4636,-2.4636,-2.4636,-2.501,-2.5518,5.0394,5.0289,4.9897,4.8884,4.7782,4.6695,4.5691,4.4533,4.3671,4.3303,4.3257,4.3074,4.2568,4.2522,4.2477,4.2339,4.2339,4.1271,3.8729,3.8597,3.7668,3.5549,3.4352,3.3817,3.3817,3.3817,3.3817,3.3817,3.3817,3.3817,3.3817,3.3817,3.3817,3.3817,3.3817,3.3817,3.3817,3.3817,3.3817,3.3817,3.3817,3.3817,3.3817,3.3817,3.3817,3.3817,3.3817,3.1789,2.9202,2.9202,2.7215,2.4488,2.4193,2.3735,2.3302,2.3005,2.2558,2.2259,2.2259,2.2259,2.2259,2.2259,2.2259,2.2259,2.2259,2.2259,2.2109,2.166,2.1418,2.1057,2.0791,1.7629,1.5224,1.552,0.0,0.0,0.0,1.0677,1.0737,1.0737,1.0737,1.0737,1.0737,1.0737,1.0737,1.0737,1.0742,1.0699,1.0596,0.8011,0.6784,0.7338,0.0946,-0.2514,-0.2514,-0.2514,-0.2671,-0.314,-0.6111,-0.7669,-0.8136,-1.1095,-1.2501,-1.2501,-1.2501,-1.4637,-1.7976,-1.8421,-2.0692,-2.4044,-2.4488,-2.4636,-2.4636,-2.4636,-2.501,-2.5518,5.1596,5.1465,5.1216,5.0206,4.8707,4.7335,4.6347,4.4766,4.3785,4.3762,4.3762,4.3579,4.3096,4.3028,4.2844,4.2385,4.2339,4.1678,4.0192,4.0062,3.82,3.4075,3.3817,3.3817,3.3817,3.3817,3.3817,3.3817,3.3817,3.3817,3.3817,3.3817,3.3817,3.3817,3.3817,3.3817,3.3817,3.3817,3.3817,3.3817,3.3817,3.3817,3.3817,3.3817,3.3817,3.3817,3.3817,3.1789,2.9202,2.9202,2.7215,2.4488,2.4193,2.3735,2.3302,2.3005,2.2558,2.2259,2.2259,2.2259,2.2259,2.2259,2.2259,2.2259,2.2259,2.2259,2.2109,2.136,2.1243,2.1108,2.0363,1.7706,1.5546,1.5723,0.0,0.0,1.0721,1.0732,1.0737,1.0737,1.0737,1.0737,1.0737,1.0737,1.0737,1.0737,1.0753,1.0715,1.0617,1.0509,0.6934,-0.0315,-0.1729,-0.2514,-0.2514,-0.2514,-0.3297,-0.4857,-0.6577,-0.8292,-0.9848,-1.1721,-1.2501,-1.2501,-1.2501,-1.4637,-1.7976,-1.8421,-2.0692,-2.4044,-2.4488,-2.4636,-2.4636,-2.4636,-2.501,-2.5518,5.2276,5.2145,5.1508,4.9461,4.859,4.7661,4.599,4.5157,4.4658,4.4336,4.4313,4.4107,4.3602,4.3257,4.3005,4.2821,4.2522,4.1678,4.0322,3.9408,3.7801,3.5139,3.4214,3.3817,3.3817,3.3817,3.3817,3.3817,3.3817,3.3817,3.3817,3.3817,3.3817,3.3817,3.3817,3.3817,3.3817,3.3817,3.3817,3.3817,3.3817,3.3817,3.3817,3.3817,3.3817,3.3817,3.3817,3.1789,2.9202,2.9202,2.7215,2.4488,2.3896,2.3587,2.329,2.2707,2.2408,2.2259,2.2259,2.2259,2.2259,2.2259,2.2259,2.2259,2.2259,2.2109,2.1857,2.1709,2.1368,2.0748,1.9625,1.7412,1.5302,1.4423,0.0,1.0737,1.0737,1.0737,1.0737,1.0737,1.0737,1.0737,1.0737,1.0737,1.0737,1.0737,1.0753,0.9731,0.7516,0.5256,0.2736,-0.0472,-0.1257,-0.2043,-0.2514,-0.2514,-0.3297,-0.5014,-0.6733,-0.8448,-1.0008,-1.1721,-1.2501,-1.2501,-1.3568,-1.5701,-1.8421,-1.9639,-2.1751,-2.4341,-2.4488,-2.4636,-2.4636,-2.4636,-2.501,-2.5518,5.2903,5.249,5.1511,4.924,4.8485,4.7642,4.5642,4.537,4.5232,4.4887,4.4841,4.4635,4.4107,4.3762,4.351,4.3326,4.2867,4.2161,4.1236,3.921,3.7266,3.5275,3.4352,3.3817,3.3817,3.3817,3.3817,3.3817,3.3817,3.3817,3.3817,3.3817,3.3817,3.3817,3.3817,3.3817,3.3817,3.3817,3.3817,3.3817,3.3817,3.3817,3.3817,3.3817,3.3817,3.3817,3.3817,3.1789,2.9202,2.9202,2.7215,2.4488,2.36,2.3302,2.3005,2.2408,2.2259,2.2259,2.2259,2.2259,2.2259,2.2259,2.2259,2.2259,2.2259,2.2019,2.1836,2.1849,2.1408,2.0522,1.9065,1.7082,1.5217,1.3693,1.1896,1.0737,1.0737,1.0737,1.0737,1.0737,1.0737,1.0737,1.0737,1.0737,1.0737,1.0737,1.0759,0.8716,0.3991,0.1312,-0.0161,-0.0786,-0.1099,-0.1728,-0.2514,-0.2514,-0.3609,-0.5796,-0.6889,-0.8604,-1.0785,-1.203,-1.2501,-1.2656,-1.4176,-1.6303,-1.8723,-2.0391,-2.236,-2.4636,-2.4636,-2.4636,-2.4636,-2.4636,-2.4957,-2.5384,5.3504,5.2436,5.1154,4.9652,4.8512,4.7153,4.5575,4.537,4.537,4.537,4.537,4.5163,4.4658,4.4612,4.4405,4.3854,4.3372,4.3096,4.3096,3.9929,3.6864,3.3955,3.3817,3.3817,3.3817,3.3817,3.3817,3.3817,3.3817,3.3817,3.3817,3.3817,3.3817,3.3817,3.3817,3.3817,3.3817,3.3817,3.3817,3.3817,3.3817,3.3817,3.3817,3.3817,3.3817,3.3817,3.3817,3.1789,2.9202,2.9202,2.7215,2.4488,2.36,2.2856,2.2259,2.2259,2.2259,2.2259,2.2259,2.2259,2.2259,2.2259,2.2259,2.2259,2.2259,2.2162,2.1884,2.1437,2.1369,2.075,1.8654,1.7025,1.535,1.3714,1.1896,1.0737,1.0737,1.0737,1.0737,1.0737,1.0737,1.0737,1.0737,1.0737,1.0737,1.0737,1.077,0.7501,0.0326,-0.0,-0.0805,-0.2517,-0.1728,-0.1728,-0.2514,-0.2514,-0.4236,-0.7513,-0.7513,-0.9226,-1.2501,-1.2501,-1.2501,-1.2656,-1.4176,-1.6303,-1.8723,-2.0391,-2.2509,-2.4636,-2.4636,-2.4636,-2.4636,-2.4636,-2.4823,-2.5117,5.3765,5.2843,5.1464,4.914,4.8362,4.7671,4.6104,4.5898,4.576,4.5415,4.537,4.5301,4.514,4.4819,4.4543,4.4382,4.39,4.2632,4.027,3.8849,3.6864,3.3955,3.3817,3.3817,3.3817,3.3817,3.3817,3.3817,3.3817,3.3817,3.3817,3.3817,3.3817,3.3817,3.3817,3.3817,3.3817,3.3817,3.3817,3.3817,3.3817,3.3817,3.3817,3.3817,3.3817,3.3817,3.3817,3.1789,2.9202,2.9202,2.7215,2.4488,2.36,2.2856,2.2259,2.2259,2.2259,2.2259,2.2259,2.2259,2.2259,2.2259,2.2404,2.2536,2.2536,2.2271,2.19,2.1928,2.0485,1.8692,1.7043,1.5319,1.3542,1.173,1.1065,1.0737,1.0737,1.0737,1.0737,1.0737,1.0737,1.0737,1.0737,1.0737,1.0742,1.0753,1.0624,0.7512,0.0326,-0.0,-0.0805,-0.2517,-0.22,-0.22,-0.2514,-0.3609,-0.5327,-0.7513,-0.8759,-1.0319,-1.2501,-1.2501,-1.2501,-1.2656,-1.5701,-1.7663,-1.8874,-2.1912,-2.3735,-2.4636,-2.4636,-2.4636,-2.4636,-2.4636,-2.4823,-2.5117,5.484,5.3273,5.1607,4.9697,4.8657,4.7656,4.6634,4.6426,4.6311,4.5989,4.5783,4.5668,4.5668,4.5209,4.491,4.491,4.4428,4.286,3.989,3.8904,3.7199,3.4746,3.4075,3.3817,3.3817,3.3817,3.3817,3.3817,3.3817,3.3817,3.3817,3.3817,3.3817,3.3817,3.3817,3.3817,3.3817,3.3817,3.3817,3.3817,3.3817,3.3817,3.3817,3.3817,3.3817,3.3817,3.3817,3.1789,2.9202,2.9202,2.691,2.4044,2.3587,2.2856,2.2259,2.2259,2.2259,2.2259,2.2259,2.2331,2.2416,2.2416,2.2536,2.2681,2.2778,2.2543,2.2153,2.2168,2.0325,1.8151,1.6311,1.4533,1.2886,1.107,1.0737,1.0737,1.0737,1.0737,1.0737,1.0737,1.0737,1.0737,1.0737,1.0737,1.007,0.8733,0.9948,0.7516,0.0326,-0.0,-0.0644,-0.2044,-0.2357,-0.2514,-0.2514,-0.486,-0.642,-0.7513,-0.9226,-1.094,-1.2501,-1.2501,-1.2501,-1.2656,-1.6456,-1.827,-1.8874,-2.2521,-2.4193,-2.4636,-2.4636,-2.4636,-2.4636,-2.4636,-2.4823,-2.5117,5.5973,5.3649,5.1436,5.0945,4.9062,4.7528,4.7023,4.6954,4.6931,4.6885,4.6472,4.6173,4.6127,4.5714,4.5415,4.537,4.4887,4.3643,4.1242,3.9622,3.7909,3.6016,3.4646,3.3817,3.3817,3.3817,3.3817,3.3817,3.3817,3.3817,3.3817,3.3817,3.3817,3.3817,3.3817,3.3817,3.3817,3.3817,3.3817,3.3817,3.3817,3.3817,3.3817,3.3817,3.3817,3.3817,3.3817,3.1789,2.9202,2.8916,2.6328,2.3438,2.3438,2.2856,2.2259,2.2259,2.2283,2.2295,2.2295,2.2488,2.2693,2.2718,2.2718,2.279,2.3019,2.2984,2.27,2.2383,2.06,1.8454,1.6336,1.4368,1.2554,1.0904,1.0737,1.0737,1.0737,1.0737,1.0737,1.0737,1.0737,1.0737,1.0737,1.0737,0.9397,0.6044,0.8248,0.6836,0.0326,-0.0,-0.0322,-0.1258,-0.2043,-0.2514,-0.2514,-0.5799,-0.7513,-0.7517,-0.9382,-1.1095,-1.2501,-1.2501,-1.2656,-1.2958,-1.6456,-1.827,-1.9025,-2.267,-2.4341,-2.4636,-2.4636,-2.4636,-2.4636,-2.4636,-2.4823,-2.513,5.4649,5.2916,5.1138,4.9224,4.8506,4.8056,4.7551,4.7482,4.7321,4.6931,4.677,4.6564,4.6173,4.6035,4.5806,4.5393,4.4887,4.3938,4.2342,4.0117,3.8167,3.6583,3.4796,3.3817,3.3817,3.3817,3.3817,3.3817,3.3817,3.3817,3.3817,3.3817,3.3817,3.3817,3.3817,3.3817,3.3817,3.3817,3.3817,3.3817,3.3817,3.3817,3.3817,3.3817,3.3817,3.3817,3.3817,3.1789,2.8772,2.6357,2.4609,2.3438,2.3438,2.2856,2.2259,2.2259,2.2404,2.2573,2.2573,2.2754,2.3007,2.3225,2.3285,2.3297,2.3357,2.3258,2.2968,2.2648,1.9735,1.6975,1.6172,1.3376,1.1237,1.0737,1.0737,1.0737,1.0737,1.0737,1.0737,1.0737,1.0737,1.0737,1.0737,1.0764,1.0446,0.9617,0.501,0.1651,0.0163,-0.0,-0.0478,-0.1257,-0.2043,-0.2514,-0.2514,-0.5799,-0.7513,-0.7517,-1.0474,-1.2192,-1.2501,-1.2501,-1.3267,-1.4483,-1.7208,-1.9176,-2.0692,-2.3426,-2.4488,-2.4636,-2.4636,-2.4636,-2.4636,-2.4636,-2.4823,-2.5157,5.5049,5.33,5.1558,4.9509,4.8812,4.8308,4.8033,4.801,4.7895,4.7643,4.739,4.7138,4.6885,4.6403,4.5921,4.5393,4.5117,4.4572,4.3624,4.0921,3.8932,3.7682,3.542,3.4,3.3817,3.3817,3.3817,3.3817,3.3817,3.3817,3.3817,3.3817,3.3817,3.3817,3.3817,3.3817,3.3817,3.3817,3.3817,3.3817,3.3817,3.3817,3.3817,3.3817,3.3817,3.3817,3.3817,3.1789,2.8629,2.5492,2.3896,2.3438,2.3154,2.2707,2.2283,2.2416,2.2549,2.2681,2.2802,2.3031,2.3273,2.3418,2.355,2.3635,2.3635,2.3584,2.3038,2.1566,1.8933,1.6483,1.502,1.2554,1.0737,1.0737,1.0737,1.0737,1.0737,1.0737,1.0737,1.0737,1.0737,1.0742,1.0748,0.9244,0.8928,1.0645,0.4001,-0.0,-0.0,-0.0805,-0.1273,-0.1257,-0.2043,-0.2826,-0.3609,-0.6264,-0.7825,-0.8759,-1.1256,-1.2501,-1.2501,-1.2501,-1.3421,-1.5089,-1.7512,-1.9478,-2.1153,-2.3574,-2.4636,-2.4636,-2.4636,-2.4636,-2.4636,-2.4636,-2.4917,-2.5523,5.5736,5.4004,5.2253,5.0198,4.9101,4.8546,4.84,4.84,4.84,4.84,4.8033,4.7734,4.7643,4.6724,4.5944,4.553,4.5415,4.5186,4.4773,4.2123,4.018,3.9019,3.6244,3.4519,3.3927,3.3853,3.3817,3.3817,3.3817,3.3817,3.3817,3.3817,3.3817,3.3817,3.3817,3.3817,3.3817,3.3817,3.3817,3.3817,3.3817,3.3817,3.3817,3.3817,3.3817,3.3817,3.3817,3.1789,2.8629,2.5185,2.3748,2.329,2.3005,2.2594,2.2367,2.2585,2.2718,2.2838,2.3056,2.3309,2.3526,2.3526,2.3683,2.384,2.384,2.384,2.3027,2.0403,1.8435,1.6475,1.3873,1.1896,1.0737,1.0737,1.0737,1.0737,1.0737,1.0737,1.0737,1.0737,1.0737,1.0742,1.077,0.7558,0.6389,0.8773,0.3326,-0.0,-0.0,-0.1606,-0.2222,-0.1571,-0.22,-0.3297,-0.5014,-0.6733,-0.8292,-1.0008,-1.1721,-1.2501,-1.2501,-1.2501,-1.3568,-1.5395,-1.7663,-1.9639,-2.1613,-2.3722,-2.4636,-2.4636,-2.4636,-2.4636,-2.4649,-2.4743,-2.509,-2.5891,5.5075,5.3868,5.2391,4.9675,4.898,4.8835,4.84,4.84,4.84,4.84,4.8331,4.8125,4.7689,4.6724,4.6104,4.6035,4.5622,4.5324,4.5255,4.3281,4.1581,4.0049,3.7669,3.5749,3.433,3.3982,3.3817,3.3817,3.3817,3.3817,3.3817,3.3817,3.3817,3.3817,3.3817,3.3817,3.3817,3.3817,3.3817,3.3817,3.3817,3.3817,3.3817,3.3817,3.3817,3.3817,3.3817,3.1789,2.8629,2.5185,2.3748,2.329,2.3005,2.2717,2.2609,2.2645,2.2983,2.3357,2.3381,2.3587,2.3792,2.3792,2.3816,2.384,2.384,2.384,2.3027,2.0403,1.8435,1.6475,1.3873,1.1896,1.0737,1.0737,1.0737,1.0737,1.0737,1.0737,1.0737,1.0737,1.0737,1.0748,1.0618,0.7562,0.4367,0.1683,0.0495,-0.0,-0.0,-0.1594,-0.2518,-0.2357,-0.2514,-0.3297,-0.5014,-0.6733,-0.8292,-1.0008,-1.1721,-1.2501,-1.2501,-1.2501,-1.4184,-1.7074,-1.8118,-2.0241,-2.3141,-2.4179,-2.4636,-2.4636,-2.4636,-2.4636,-2.4703,-2.5211,-2.5438,-2.5891,5.4809,5.3462,5.1976,4.9652,4.9124,4.898,4.8691,4.8546,4.84,4.84,4.84,4.8308,4.8079,4.7413,4.6747,4.6173,4.5921,4.5668,4.537,4.3729,4.2085,4.0256,3.8327,3.6387,3.4403,3.4238,3.4037,3.3817,3.3817,3.3817,3.3817,3.3817,3.3817,3.3817,3.3817,3.3817,3.3817,3.3817,3.3817,3.3817,3.3817,3.3817,3.3817,3.3817,3.3817,3.3521,3.1789,3.0359,2.8629,2.5185,2.3748,2.3315,2.3179,2.2863,2.2705,2.3007,2.3273,2.349,2.3635,2.3756,2.384,2.384,2.384,2.384,2.384,2.3027,2.1717,1.9258,1.7946,1.6311,1.2886,1.1397,1.0737,1.0737,1.0737,1.0737,1.0737,1.0737,1.0737,1.0737,1.0748,1.0764,1.0624,0.9268,0.6059,0.0505,-0.0,-0.0,-0.0,-0.1114,-0.2043,-0.2514,-0.3452,-0.4703,-0.642,-0.8136,-0.9692,-1.1411,-1.2192,-1.2501,-1.2501,-1.3421,-1.5097,-1.7531,-1.9187,-2.1314,-2.3438,-2.4341,-2.4636,-2.4636,-2.4636,-2.4636,-2.4703,-2.5291,-2.5518,-2.5891]},{"header":{"parameterUnit":"m.s-1","parameterCategory":1,"la1":30.6,"la2":28.766,"lo1":-90.7593,"lo2":-88.6598,"dy":0.0162,"dx":0.0183,"nx":116,"ny":114,"refTime":"2023-11-17T06:00:00:Z","depth":0,"parameterNumber":3,"parameterNumberName":"V-component_of_WINDS"},"data":[0.0,0.0,0.0,0.0,0.0,0.0,0.0,0.0,0.0,0.0,0.0,0.0,0.0,0.0,0.0,0.0,0.0,0.0,0.0,0.0,0.0,0.0,0.0,0.0,0.0,0.0,0.0,0.0,0.0,0.0,0.0,0.0,0.0,0.0,0.0,0.0,0.0,0.0,0.0,0.0,0.0,0.0,0.0,0.0,0.0,0.0,0.0,0.0,0.0,0.0,0.0,0.0,0.0,0.0,0.0,0.0,0.0,0.0,0.0,0.0,0.0,0.0,0.0,0.0,0.0,0.0,0.0,0.0,0.0,0.0,0.0,0.0,0.0,0.0,0.0,0.0,0.0,0.0,0.0,0.0,0.0,0.0,0.0,0.0,0.0,0.0,0.0,0.0,0.0,0.0,0.0,0.0,0.0,0.0,0.0,0.0,0.0,0.0,0.0,0.0,0.0,0.0,0.0,0.0,0.0,0.0,0.0,0.0,0.0,0.0,0.0,0.0,0.0,0.0,0.0,0.0,0.0,0.0,0.0,0.0,0.0,0.0,0.0,0.0,0.0,0.0,0.0,0.0,0.0,0.0,0.0,0.0,0.0,0.0,0.0,0.0,0.0,0.0,0.0,0.0,0.0,0.0,0.0,0.0,0.0,0.0,0.0,0.0,0.0,0.0,0.0,0.0,0.0,0.0,0.0,0.0,0.0,0.0,0.0,0.0,0.0,0.0,0.0,0.0,0.0,0.0,0.0,0.0,0.0,0.0,0.0,0.0,0.0,0.0,0.0,0.0,0.0,0.0,0.0,0.0,0.0,0.0,0.0,0.0,0.0,0.0,0.0,0.0,0.0,0.0,0.0,0.0,0.0,0.0,0.0,0.0,0.0,0.0,0.0,0.0,0.0,0.0,0.0,0.0,0.0,0.0,0.0,0.0,0.0,0.0,0.0,0.0,0.0,0.0,0.0,0.0,0.0,0.0,0.0,0.0,0.0,0.0,0.0,0.0,0.0,0.0,0.0,0.0,0.0,0.0,0.0,0.0,0.0,0.0,0.0,0.0,0.0,0.0,0.0,0.0,0.0,0.0,0.0,0.0,0.0,0.0,0.0,0.0,0.0,0.0,0.0,0.0,0.0,0.0,0.0,0.0,0.0,0.0,0.0,0.0,0.0,0.0,0.0,0.0,0.0,0.0,0.0,0.0,0.0,0.0,0.0,0.0,0.0,0.0,0.0,0.0,0.0,0.0,0.0,0.0,0.0,0.0,0.0,0.0,0.0,0.0,0.0,0.0,0.0,0.0,0.0,0.0,0.0,0.0,0.0,0.0,0.0,0.0,0.0,0.0,0.0,0.0,0.0,0.0,0.0,0.0,0.0,0.0,0.0,0.0,0.0,0.0,0.0,0.0,0.0,0.0,0.0,0.0,0.0,0.0,0.0,0.0,0.0,0.0,0.0,0.0,0.0,0.0,0.0,0.0,0.0,0.0,0.0,0.0,0.0,0.0,0.0,0.0,0.0,0.0,0.0,0.0,0.0,0.0,0.0,0.0,0.0,0.0,0.0,0.0,0.0,0.0,0.0,0.0,0.0,0.0,0.0,0.0,0.0,0.0,0.0,0.0,0.0,0.0,0.0,0.0,0.0,0.0,0.0,0.0,0.0,0.0,0.0,0.0,0.0,0.0,0.0,0.0,0.0,0.0,0.0,0.0,0.0,0.0,0.0,0.0,0.0,0.0,0.0,0.0,0.0,0.0,0.0,0.0,0.0,0.0,0.0,0.0,0.0,0.0,0.0,0.0,0.0,0.0,0.0,0.0,0.0,0.0,0.0,0.0,0.0,0.0,0.0,0.0,0.0,0.0,0.0,0.0,0.0,0.0,0.0,0.0,0.0,0.0,0.0,0.0,0.0,0.0,0.0,0.0,0.0,0.0,0.0,0.0,0.0,0.0,0.0,0.0,0.0,0.0,0.0,0.0,0.0,0.0,0.0,0.0,0.0,0.0,0.0,0.0,0.0,0.0,0.0,0.0,0.0,0.0,0.0,0.0,0.0,0.0,0.0,0.0,0.0,0.0,0.0,0.0,0.0,0.0,0.0,0.0,0.0,0.0,0.0,0.0,0.0,0.0,0.0,0.0,0.0,0.0,0.0,0.0,0.0,0.0,0.0,0.0,0.0,0.0,0.0,0.0,0.0,0.0,0.0,0.0,0.0,0.0,0.0,0.0,0.0,0.0,0.0,0.0,0.0,0.0,0.0,0.0,0.0,0.0,0.0,0.0,0.0,0.0,0.0,0.0,0.0,0.0,0.0,0.0,0.0,0.0,0.0,0.0,0.0,0.0,0.0,0.0,0.0,0.0,0.0,0.0,0.0,0.0,0.0,0.0,0.0,0.0,0.0,0.0,0.0,0.0,0.0,0.0,0.0,0.0,0.0,0.0,0.0,0.0,0.0,0.0,0.0,0.0,0.0,0.0,0.0,0.0,0.0,0.0,0.0,0.0,0.0,0.0,0.0,0.0,0.0,0.0,0.0,0.0,0.0,0.0,0.0,0.0,0.0,0.0,0.0,0.0,0.0,0.0,0.0,0.0,0.0,0.0,0.0,0.0,0.0,0.0,0.0,0.0,0.0,0.0,0.0,0.0,0.0,0.0,0.0,0.0,0.0,0.0,0.0,0.0,0.0,0.0,0.0,0.0,0.0,0.0,0.0,0.0,0.0,0.0,0.0,0.0,0.0,0.0,0.0,0.0,0.0,0.0,0.0,0.0,0.0,0.0,0.0,0.0,0.0,0.0,0.0,0.0,0.0,0.0,0.0,0.0,0.0,0.0,0.0,0.0,0.0,0.0,0.0,0.0,0.0,0.0,0.0,0.0,0.0,0.0,0.0,0.0,0.0,0.0,0.0,0.0,0.0,0.0,0.0,0.0,0.0,0.0,0.0,0.0,0.0,0.0,0.0,0.0,0.0,0.0,0.0,0.0,0.0,0.0,0.0,0.0,0.0,0.0,0.0,0.0,0.0,0.0,0.0,0.0,0.0,0.0,0.0,0.0,0.0,0.0,0.0,0.0,0.0,0.0,0.0,0.0,0.0,0.0,0.0,0.0,0.0,0.0,0.0,0.0,0.0,0.0,0.0,0.0,0.0,0.0,0.0,0.0,0.0,0.0,0.0,0.0,0.0,0.0,0.0,0.0,0.0,0.0,0.0,0.0,0.0,0.0,0.0,0.0,0.0,0.0,0.0,0.0,0.0,0.0,0.0,0.0,0.0,0.0,0.0,0.0,0.0,0.0,0.0,0.0,0.0,0.0,0.0,0.0,0.0,0.0,0.0,0.0,0.0,0.0,0.0,0.0,0.0,0.0,0.0,0.0,0.0,0.0,0.0,0.0,0.0,0.0,0.0,0.0,0.0,0.0,0.0,0.0,0.0,0.0,0.0,0.0,0.0,0.0,0.0,0.0,0.0,0.0,0.0,0.0,0.0,0.0,0.0,0.0,0.0,0.0,0.0,0.0,0.0,0.0,0.0,0.0,0.0,0.0,0.0,0.0,0.0,0.0,0.0,0.0,0.0,0.0,0.0,0.0,0.0,0.0,0.0,0.0,0.0,0.0,0.0,0.0,0.0,0.0,0.0,0.0,0.0,0.0,0.0,0.0,0.0,0.0,0.0,0.0,0.0,0.0,0.0,0.0,0.0,0.0,0.0,0.0,0.0,0.0,0.0,0.0,0.0,0.0,0.0,0.0,0.0,0.0,0.0,0.0,0.0,0.0,0.0,0.0,0.0,0.0,0.0,0.0,0.0,0.0,0.0,0.0,0.0,0.0,0.0,0.0,0.0,0.0,0.0,0.0,0.0,0.0,0.0,0.0,0.0,0.0,0.0,0.0,0.0,0.0,0.0,0.0,0.0,0.0,0.0,0.0,0.0,0.0,0.0,0.0,0.0,0.0,0.0,0.0,0.0,0.0,0.0,0.0,0.0,0.0,0.0,0.0,0.0,0.0,0.0,0.0,0.0,0.0,0.0,0.0,0.0,0.0,0.0,0.0,0.0,0.0,0.0,0.0,0.0,0.0,0.0,0.0,0.0,0.0,0.0,0.0,0.0,0.0,0.0,0.0,0.0,0.0,0.0,0.0,0.0,0.0,0.0,0.0,0.0,0.0,0.0,0.0,0.0,0.0,0.0,0.0,0.0,0.0,0.0,0.0,0.0,0.0,0.0,0.0,0.0,0.0,0.0,0.0,0.0,0.0,0.0,0.0,0.0,0.0,0.0,0.0,0.0,0.0,0.0,0.0,0.0,0.0,0.0,0.0,0.0,0.0,0.0,0.0,0.0,0.0,0.0,0.0,0.0,0.0,0.0,0.0,0.0,0.0,0.0,0.0,0.0,0.0,0.0,0.0,0.0,0.0,0.0,0.0,0.0,0.0,0.0,0.0,0.0,0.0,0.0,0.0,0.0,0.0,0.0,0.0,0.0,0.0,0.0,0.0,0.0,0.0,0.0,0.0,0.0,0.0,0.0,0.0,0.0,0.0,0.0,0.0,0.0,0.0,0.0,0.0,0.0,0.0,0.0,0.0,0.0,0.0,0.0,0.0,0.0,0.0,0.0,0.0,0.0,0.0,0.0,0.0,0.0,0.0,0.0,0.0,0.0,0.0,0.0,0.0,0.0,0.0,0.0,0.0,0.0,0.0,0.0,0.0,0.0,0.0,0.0,0.0,0.0,0.0,0.0,0.0,0.0,0.0,0.0,0.0,0.0,0.0,0.0,0.0,0.0,0.0,0.0,0.0,0.0,0.0,0.0,0.0,0.0,0.0,0.0,0.0,0.0,0.0,0.0,0.0,0.0,0.0,0.0,0.0,0.0,0.0,0.0,0.0,0.0,0.0,0.0,0.0,0.0,0.0,0.0,0.0,0.0,0.0,0.0,0.0,0.0,0.0,0.0,0.0,0.0,0.0,0.0,0.0,0.0,0.0,0.0,0.0,0.0,0.0,0.0,0.0,0.0,0.0,0.0,0.0,0.0,0.0,0.0,0.0,0.0,0.0,0.0,0.0,0.0,0.0,0.0,0.0,0.0,0.0,0.0,0.0,0.0,0.0,0.0,0.0,0.0,0.0,0.0,0.0,0.0,0.0,0.0,0.0,0.0,0.0,0.0,0.0,0.0,0.0,0.0,0.0,0.0,0.0,0.0,0.0,0.0,0.0,0.0,0.0,0.0,0.0,0.0,0.0,0.0,0.0,0.0,0.0,0.0,0.0,0.0,0.0,0.0,0.0,0.0,0.0,0.0,0.0,0.0,0.0,0.0,0.0,0.0,0.0,0.0,0.0,0.0,0.0,0.0,0.0,0.0,0.0,0.0,0.0,0.0,0.0,0.0,0.0,0.0,0.0,0.0,0.0,0.0,0.0,0.0,0.0,0.0,0.0,0.0,0.0,0.0,0.0,0.0,0.0,0.0,0.0,0.0,0.0,0.0,0.0,0.0,0.0,0.0,0.0,0.0,0.0,0.0,0.0,0.0,0.0,0.0,0.0,0.0,0.0,0.0,0.0,0.0,0.0,0.0,0.0,0.0,0.0,0.0,0.0,0.0,0.0,0.0,0.0,0.0,0.0,0.0,0.0,0.0,0.0,0.0,0.0,0.0,0.0,0.0,0.0,0.0,0.0,0.0,0.0,0.0,0.0,0.0,0.0,0.0,0.0,0.0,0.0,0.0,0.0,0.0,0.0,0.0,0.0,0.0,0.0,0.0,0.0,0.0,0.0,0.0,0.0,0.0,0.0,0.0,0.0,0.0,0.0,0.0,0.0,0.0,0.0,0.0,0.0,0.0,0.0,0.0,0.0,0.0,0.0,0.0,0.0,0.0,0.0,0.0,0.0,0.0,0.0,0.0,0.0,0.0,0.0,0.0,0.0,0.0,0.0,0.0,0.0,0.0,0.0,0.0,0.0,0.0,0.0,0.0,0.0,0.0,0.0,0.0,0.0,0.0,0.0,0.0,0.0,0.0,0.0,0.0,0.0,0.0,0.0,0.0,0.0,0.0,0.0,0.0,0.0,0.0,0.0,0.0,0.0,0.0,0.0,0.0,0.0,0.0,0.0,0.0,0.0,0.0,0.0,0.0,0.0,0.0,0.0,-5.8085,0.0,0.0,0.0,0.0,0.0,0.0,0.0,0.0,0.0,0.0,0.0,0.0,0.0,0.0,0.0,0.0,0.0,0.0,0.0,0.0,0.0,0.0,0.0,0.0,0.0,0.0,0.0,0.0,0.0,0.0,0.0,0.0,0.0,0.0,0.0,0.0,0.0,0.0,-5.0509,-5.0194,-4.9605,-4.8911,-4.9546,-4.9953,-5.0159,0.0,0.0,0.0,0.0,0.0,0.0,0.0,0.0,0.0,0.0,0.0,0.0,0.0,0.0,0.0,0.0,0.0,0.0,0.0,0.0,0.0,0.0,0.0,0.0,0.0,0.0,0.0,0.0,0.0,0.0,0.0,0.0,0.0,0.0,0.0,0.0,0.0,0.0,0.0,0.0,0.0,0.0,0.0,0.0,0.0,0.0,0.0,0.0,0.0,0.0,0.0,0.0,0.0,0.0,0.0,0.0,0.0,0.0,0.0,0.0,0.0,0.0,0.0,0.0,0.0,0.0,0.0,0.0,0.0,0.0,0.0,-5.7896,0.0,0.0,0.0,0.0,0.0,0.0,0.0,0.0,0.0,0.0,0.0,0.0,0.0,0.0,0.0,0.0,0.0,0.0,0.0,0.0,0.0,0.0,0.0,-4.9359,-4.8663,-4.8067,-4.8001,-4.8001,0.0,0.0,0.0,0.0,0.0,0.0,-4.9815,-5.0363,-5.0585,-5.0418,-4.9722,-4.9033,-4.8442,-4.8911,-4.9308,-4.9605,-5.0474,0.0,0.0,0.0,0.0,0.0,0.0,0.0,0.0,0.0,0.0,0.0,0.0,0.0,0.0,0.0,0.0,0.0,0.0,0.0,0.0,0.0,0.0,0.0,0.0,0.0,0.0,0.0,0.0,0.0,0.0,0.0,0.0,0.0,0.0,0.0,0.0,0.0,0.0,0.0,0.0,0.0,0.0,0.0,0.0,0.0,0.0,0.0,0.0,0.0,0.0,0.0,0.0,0.0,0.0,0.0,0.0,0.0,0.0,0.0,0.0,0.0,0.0,0.0,-6.1676,-6.1666,-6.1693,-6.1693,-6.1563,-6.1261,-5.9872,-5.8273,-5.6647,-5.6446,0.0,0.0,0.0,0.0,0.0,0.0,0.0,0.0,0.0,0.0,0.0,0.0,0.0,0.0,0.0,0.0,0.0,0.0,0.0,0.0,0.0,-4.8597,-4.81,-4.8001,-4.8001,-4.8001,-4.8001,0.0,0.0,0.0,-4.9012,0.0,-4.9462,-5.0397,-5.0474,-4.9722,-4.8787,-4.8476,-4.8821,-4.9188,-4.9402,-4.9462,-5.0307,-5.064,-5.064,0.0,0.0,0.0,0.0,0.0,0.0,0.0,0.0,0.0,0.0,0.0,0.0,0.0,0.0,0.0,0.0,0.0,0.0,0.0,0.0,0.0,0.0,0.0,0.0,0.0,0.0,0.0,0.0,0.0,0.0,0.0,0.0,0.0,0.0,0.0,0.0,0.0,0.0,0.0,0.0,0.0,-6.0635,-6.1041,0.0,0.0,0.0,0.0,0.0,0.0,0.0,0.0,0.0,0.0,0.0,0.0,0.0,-6.16,-6.169,-6.171,-6.1699,-6.1699,-6.1648,-6.1602,-6.1602,-6.1602,-6.108,-6.0188,-5.9993,0.0,-5.8375,-5.745,0.0,0.0,0.0,0.0,0.0,0.0,0.0,0.0,0.0,0.0,0.0,0.0,0.0,0.0,0.0,0.0,0.0,0.0,0.0,0.0,0.0,-4.8232,-4.7638,-4.7638,-4.7638,-4.7638,-4.7638,-4.8098,-4.8547,-4.8765,-4.9402,-4.993,-5.0228,-5.0194,-4.9546,-4.8189,-4.8158,-4.803,-4.79,-4.8821,-4.9248,-4.9402,-5.025,-5.0675,-5.0729,-5.0873,0.0,0.0,0.0,0.0,0.0,0.0,0.0,0.0,0.0,0.0,0.0,0.0,0.0,0.0,0.0,0.0,0.0,0.0,0.0,0.0,0.0,0.0,0.0,0.0,0.0,0.0,0.0,0.0,0.0,0.0,0.0,0.0,0.0,0.0,0.0,0.0,0.0,0.0,0.0,-6.029,-6.0795,-6.106,-6.1137,-6.1155,0.0,0.0,0.0,0.0,0.0,0.0,0.0,0.0,0.0,-6.1601,-6.1601,-6.1633,-6.171,-6.1654,-6.1648,-6.1648,-6.1602,-6.1588,-6.158,-6.1073,-6.0885,-6.0845,-6.0148,-5.9646,-5.9219,-5.8162,-5.7135,-5.6291,0.0,0.0,0.0,0.0,-5.513,-5.513,0.0,0.0,0.0,0.0,0.0,0.0,0.0,0.0,0.0,0.0,0.0,0.0,-4.8761,-4.7832,-4.727,-4.727,-4.727,-4.727,-4.7404,-4.8,-4.8639,-4.9161,-4.9639,-5.0194,-5.0675,-4.9873,-4.8849,-4.7704,-4.803,-4.8094,-4.7965,-4.8972,-4.9546,-4.9756,-5.0363,-5.0729,-5.0819,-5.0873,-5.0873,-5.0927,0.0,0.0,0.0,0.0,0.0,0.0,0.0,0.0,0.0,0.0,0.0,0.0,0.0,0.0,0.0,0.0,0.0,0.0,0.0,0.0,0.0,0.0,0.0,0.0,0.0,0.0,0.0,0.0,0.0,0.0,0.0,0.0,0.0,0.0,0.0,0.0,0.0,-6.0817,-6.0882,-6.1118,-6.1173,-6.1247,0.0,0.0,0.0,0.0,0.0,0.0,-6.1502,-6.1541,-6.1557,-6.1637,-6.1633,-6.1658,-6.1654,-6.1634,-6.1588,-6.1588,-6.158,-6.1612,-6.1595,-6.0932,-6.0935,-6.1394,-6.0195,-5.9631,-5.9493,-5.8681,-5.7761,-5.6866,-5.6851,-5.6404,-5.5805,-5.5493,-5.5389,-5.5389,0.0,0.0,0.0,0.0,0.0,0.0,0.0,0.0,0.0,0.0,0.0,-4.8289,-4.7535,-4.7167,-4.6961,-4.6961,-4.6961,-4.7066,-4.7404,-4.7471,-4.7869,-4.8702,-4.9161,-4.9639,-5.0102,-4.9368,-4.9067,-4.9282,-4.8821,-4.9127,-5.0228,-5.0418,-5.053,-5.053,-5.0819,-5.0784,-5.064,-5.0819,-5.0873,-5.0873,-5.0873,0.0,0.0,0.0,0.0,0.0,0.0,0.0,0.0,0.0,0.0,0.0,0.0,0.0,0.0,0.0,0.0,0.0,0.0,0.0,0.0,0.0,0.0,0.0,0.0,0.0,0.0,0.0,0.0,0.0,0.0,0.0,0.0,0.0,0.0,0.0,0.0,0.0,0.0,-6.1173,-6.1264,0.0,0.0,0.0,0.0,-6.149,-6.1491,-6.1545,-6.1601,-6.1601,-6.1637,-6.1705,-6.1705,-6.1654,-6.1595,-6.1612,-6.1603,-6.1603,-6.1586,-6.1607,-6.1607,-6.1529,-6.1369,-6.0982,-6.0092,-5.9468,-5.9136,-5.906,-5.8509,-5.7624,-5.7624,-5.7568,-5.7367,-5.6548,-5.6215,-5.6101,0.0,0.0,0.0,0.0,0.0,0.0,0.0,0.0,-5.0058,-4.9485,-4.8907,-4.8223,-4.7503,-4.7066,-4.703,-4.7202,-4.6997,-4.6997,-4.7404,-4.7404,-4.7901,-4.9101,-4.8978,-4.8793,-4.8476,-4.8222,-4.803,-4.79,-4.8383,-4.9067,-4.993,-5.0418,-5.0675,-5.0819,-5.0873,-5.0873,-5.0819,-5.0873,-5.1154,-5.161,-5.1828,-5.2325,0.0,0.0,0.0,0.0,0.0,0.0,0.0,0.0,0.0,0.0,0.0,0.0,0.0,0.0,0.0,0.0,0.0,0.0,0.0,0.0,0.0,0.0,0.0,0.0,0.0,0.0,0.0,0.0,0.0,0.0,0.0,0.0,0.0,0.0,0.0,0.0,0.0,-6.1264,-6.1275,0.0,-6.1322,-6.1393,-6.1485,-6.1491,-6.1598,-6.1633,-6.1665,-6.1658,-6.1686,-6.1699,-6.168,-6.1619,-6.1612,-6.1595,-6.1578,-6.1578,-6.1607,-6.1607,-6.1568,-6.0983,-6.0851,-6.1087,-5.9998,-5.9727,-5.9867,-5.9244,-5.8473,-5.7777,-5.8234,-5.7718,-5.6738,-5.6345,-5.586,-5.5329,0.0,0.0,0.0,0.0,0.0,0.0,0.0,0.0,-5.004,-4.9635,-4.8632,-4.7854,-4.7456,-4.6953,-4.6791,-4.6997,-4.6929,-4.6997,-4.7404,-4.7404,-4.7901,-4.9101,-4.9012,-4.8606,-4.7803,-4.7933,-4.7868,-4.7704,-4.8509,-4.9248,-5.0045,-5.0474,-5.0729,-5.0873,-5.0873,-5.1049,-5.1259,-5.1259,-5.154,-5.2032,-5.2498,-5.3139,-5.3922,0.0,0.0,0.0,0.0,0.0,0.0,0.0,0.0,0.0,0.0,0.0,0.0,0.0,0.0,0.0,0.0,0.0,0.0,0.0,0.0,0.0,0.0,0.0,0.0,0.0,0.0,0.0,0.0,0.0,0.0,0.0,0.0,0.0,0.0,0.0,-6.1264,-6.1275,-6.1322,-6.1337,-6.1337,-6.1431,-6.1486,-6.1486,-6.1638,-6.1715,-6.171,-6.1705,-6.1693,-6.168,-6.1619,-6.1595,-6.1595,-6.1616,-6.1598,-6.1578,-6.1578,-6.1528,-6.1518,-6.0888,-6.0745,-6.0979,-5.9956,-5.9672,-5.9852,-5.9168,-5.8386,-5.7692,-5.8144,-5.7696,-5.6641,-5.6315,-5.583,-5.5299,0.0,0.0,0.0,0.0,0.0,0.0,0.0,-5.0867,-5.0314,-5.0654,-4.8502,-4.7012,-4.7397,-4.6749,-4.6372,-4.6372,-4.6722,-4.7098,-4.7404,-4.7404,-4.7803,-4.8639,-4.9101,-4.8978,-4.8194,-4.8513,-4.8731,-4.8883,-4.9282,-4.9907,-5.0873,-5.0873,-5.0908,-5.0908,-5.0908,-5.1365,-5.2067,-5.2067,-5.2067,-5.2137,-5.2909,-5.3394,-5.3796,0.0,0.0,0.0,0.0,0.0,0.0,0.0,0.0,0.0,0.0,0.0,0.0,0.0,0.0,0.0,0.0,0.0,0.0,0.0,0.0,0.0,0.0,0.0,0.0,0.0,0.0,0.0,0.0,0.0,0.0,0.0,0.0,0.0,-6.1155,-6.1264,-6.1314,-6.1322,-6.1352,-6.1419,-6.1419,-6.1439,-6.1486,-6.1486,-6.1638,-6.171,-6.1699,-6.1699,-6.168,-6.1603,-6.1603,-6.1586,-6.1607,-6.1607,-6.1578,-6.1484,-6.1523,-6.1447,-6.1381,-6.1381,-6.1148,-6.068,-5.987,-5.9306,-5.8919,-5.8829,-5.8304,-5.7544,-5.7544,-5.7446,-5.727,-5.6474,-5.6171,-5.6019,0.0,0.0,0.0,0.0,0.0,0.0,0.0,-5.0621,-4.9861,-5.0188,-4.8291,-4.7082,-4.7723,-4.7174,-4.6961,-4.7504,-4.737,-4.7437,-4.777,-4.7538,-4.7605,-4.8163,-4.8386,-4.8225,-4.7605,-4.8129,-4.8543,-4.8883,-4.958,-5.025,-5.0873,-5.0873,-5.1189,-5.1716,-5.1716,-5.2137,-5.2909,-5.3436,-5.3682,-5.3682,-5.3928,-5.4486,-5.5299,0.0,0.0,0.0,0.0,0.0,0.0,0.0,0.0,0.0,0.0,0.0,0.0,0.0,0.0,0.0,0.0,0.0,0.0,0.0,0.0,0.0,0.0,0.0,0.0,0.0,0.0,0.0,0.0,0.0,0.0,0.0,-6.0495,-6.0839,-6.0905,-6.1152,-6.1322,-6.1352,-6.1405,-6.1419,-6.1419,-6.1478,-6.1486,-6.1486,-6.1635,-6.1705,-6.1699,-6.1634,-6.1612,-6.1603,-6.1586,-6.1616,-6.1607,-6.1567,-6.1534,-6.1484,-6.1434,-6.1408,-6.1381,-6.1283,-6.1113,-6.0825,-6.0411,-6.0085,-5.9807,-5.9026,-5.859,-5.8363,-5.8363,-5.7642,-5.6512,-5.6285,-5.5792,-5.5223,0.0,0.0,0.0,0.0,0.0,0.0,0.0,-5.0692,-5.003,-5.0431,-4.8382,-4.7211,-4.7999,-4.7438,-4.7167,-4.7704,-4.7704,-4.777,-4.8001,-4.777,-4.777,-4.8001,-4.8098,-4.7968,-4.7638,-4.7968,-4.8322,-4.8793,-4.9462,-5.008,-5.0564,-5.108,-5.161,-5.2032,-5.2348,-5.2944,-5.3682,-5.4138,-5.4489,-5.4805,-5.4805,-5.5203,-5.5764,-5.6106,-5.6383,-5.6707,-5.7188,-5.7534,-5.7857,-5.8006,0.0,0.0,0.0,0.0,0.0,0.0,0.0,0.0,0.0,0.0,0.0,0.0,0.0,0.0,0.0,0.0,0.0,0.0,0.0,0.0,0.0,0.0,0.0,0.0,-6.0734,-6.1022,-6.1022,-6.1186,-6.1337,-6.1366,-6.1419,-6.1419,-6.1419,-6.1442,-6.1498,-6.1486,-6.1601,-6.1647,-6.1654,-6.1627,-6.1612,-6.1586,-6.1616,-6.1607,-6.1607,-6.1518,-6.1511,-6.1447,-6.1366,-6.1322,-6.1275,-6.1186,-6.1041,-6.0843,-6.0594,-6.0376,-6.0141,-5.9482,-5.8976,0.0,0.0,0.0,0.0,0.0,-5.5337,-5.492,0.0,0.0,0.0,0.0,0.0,0.0,0.0,-5.1003,-5.0505,-5.109,-4.8803,-4.7464,-4.8464,-4.7619,-4.7095,-4.7437,-4.777,-4.8001,-4.8001,-4.7935,-4.7935,-4.8001,-4.8001,-4.8001,-4.8001,-4.8066,-4.8292,-4.8702,-4.9263,-4.9777,-5.0275,-5.1472,-5.2116,-5.2312,-5.3015,-5.3717,-5.4454,-5.4454,-5.484,-5.5507,-5.5507,-5.5507,-5.5507,-5.5822,-5.6106,-5.6383,-5.6724,-5.7188,-5.7679,-5.7726,0.0,0.0,0.0,0.0,0.0,0.0,0.0,0.0,0.0,0.0,0.0,0.0,0.0,0.0,0.0,0.0,0.0,0.0,0.0,0.0,0.0,0.0,0.0,0.0,-6.1022,-6.1297,-6.1297,-6.1306,-6.1337,-6.1366,-6.1419,-6.1419,-6.1419,-6.1468,-6.1487,-6.1515,-6.1557,-6.1594,-6.1615,0.0,0.0,0.0,0.0,-6.1607,-6.1607,-6.1518,-6.1447,-6.1381,-6.1268,-6.1169,-6.1118,-6.1118,-6.1002,-6.0817,-6.0608,-6.0403,-6.0208,-5.9975,-5.9468,-5.8748,-5.7763,-5.6891,-5.6095,-5.5337,-5.4996,-5.492,0.0,0.0,0.0,0.0,0.0,0.0,0.0,-5.1645,-5.1239,-5.159,-4.9896,-4.8777,-4.9284,-4.8394,-4.7716,-4.7836,-4.7935,-4.8001,-4.8001,-4.7704,-4.7638,-4.8001,-4.8001,-4.8001,-4.8001,-4.8356,-4.8576,-4.8702,-4.9807,-5.0566,-5.1072,-5.1893,-5.2881,-5.3857,-5.4033,-5.4524,-5.5262,-5.5262,-5.5367,-5.5507,-5.5507,-5.5507,-5.5566,-5.6106,-5.6162,-5.607,-5.6829,-5.7036,-5.7036,-5.7239,-5.7583,-5.7867,-5.7867,-5.8142,0.0,0.0,0.0,0.0,0.0,0.0,0.0,0.0,0.0,0.0,0.0,0.0,0.0,0.0,0.0,0.0,0.0,0.0,0.0,-6.03,-6.0843,-6.1297,-6.1297,-6.1361,-6.1405,-6.1419,-6.1419,-6.1419,-6.1419,-6.1468,-6.15,-6.1517,-6.155,-6.1598,-6.1584,-6.1615,-6.1595,-6.1607,-6.1607,-6.1607,-6.1607,-6.1518,-6.1447,-6.1381,0.0,0.0,-6.1118,-6.1118,-6.106,-6.1022,-6.0657,-6.0482,-6.0403,-6.0038,-5.9809,-5.9506,-5.799,-5.6891,-5.6171,-5.6019,-5.5489,-5.4996,0.0,0.0,0.0,0.0,0.0,0.0,0.0,-5.1744,-5.1272,-5.1244,-4.9818,-4.8833,-4.9006,-4.8181,-4.7762,-4.7968,-4.8001,-4.8001,-4.8001,-4.777,-4.777,-4.8001,-4.8001,-4.8166,-4.8564,-4.8794,-4.9091,-4.9458,-5.0247,-5.0986,-5.1511,-5.2511,-5.3425,-5.4314,-5.4735,-5.5121,-5.5507,-5.5507,-5.5507,-5.5507,-5.5507,-5.5507,-5.5566,-5.5993,-5.6162,-5.6217,-5.6776,-5.6984,-5.6984,-5.7138,-5.7338,-5.7486,-5.7486,-5.7774,-5.8097,0.0,0.0,0.0,0.0,0.0,0.0,0.0,0.0,0.0,0.0,0.0,0.0,0.0,0.0,-5.9363,-5.9706,0.0,-6.0326,-6.0666,-6.1041,-6.1314,-6.1291,-6.1337,-6.1419,-6.1419,-6.1419,-6.1419,-6.1419,-6.1447,-6.1468,-6.149,-6.1515,-6.1559,-6.1592,-6.1598,-6.1588,-6.1607,-6.1607,-6.1607,-6.1607,-6.1518,-6.1472,-6.1434,-6.1283,-6.1203,-6.1152,-6.1098,-6.1118,-6.106,-6.0773,-6.0584,-6.0456,-6.0068,-5.9885,-5.9809,-5.8976,-5.8142,-5.7384,-5.6967,-5.6512,-5.6209,0.0,0.0,0.0,0.0,0.0,0.0,0.0,-5.1877,-5.1409,-5.1054,-4.9932,-4.9042,-4.8849,-4.8191,-4.7867,-4.8034,-4.8068,-4.8134,-4.8233,-4.8266,-4.8365,-4.8431,-4.8431,-4.873,-4.9326,-4.9326,-4.9624,-5.022,-5.0727,-5.129,-5.177,-5.3025,-5.3897,-5.4443,-5.5168,-5.5507,-5.5507,-5.5507,-5.5507,-5.5507,-5.5507,-5.5507,-5.5566,-5.5879,-5.6106,-5.6328,-5.6707,-5.6933,-5.7138,-5.7188,-5.7188,-5.7188,-5.7188,-5.7437,-5.7679,-5.7821,-5.8097,0.0,0.0,0.0,0.0,0.0,0.0,0.0,0.0,-5.929,-5.929,-5.929,-5.929,-5.9434,-5.9954,-6.0132,-6.0379,-6.0923,-6.1191,-6.1314,-6.1322,-6.1352,-6.1419,-6.1419,-6.1419,-6.1419,-6.1419,-6.1419,-6.1421,-6.1489,-6.1478,-6.152,-6.1599,-6.1584,-6.1582,-6.1607,-6.1607,-6.1607,-6.1607,-6.1567,-6.1495,-6.1484,-6.1327,-6.1252,-6.122,-6.1152,-6.1098,-6.1099,-6.0899,-6.0657,-6.043,-6.0099,-5.995,-5.9885,-5.9885,-5.9506,-5.8824,-5.7952,-5.7535,-5.7422,0.0,0.0,0.0,0.0,0.0,0.0,0.0,0.0,-5.2241,-5.217,-5.175,-5.1086,-5.0083,-4.9645,-4.8984,-4.8034,-4.8297,-4.8625,-4.8995,-4.9217,-4.9579,-4.9955,-4.9955,-4.9988,-5.0088,-5.0088,-5.0121,-5.022,-5.0919,-5.1528,-5.1999,-5.3304,-5.4097,-5.4634,-5.5259,-5.5507,-5.5507,-5.5507,-5.5507,-5.5507,-5.5507,-5.5507,-5.5566,-5.6106,-5.6162,-5.6014,-5.6564,-5.6812,-5.6881,-5.7087,-5.7188,-5.7188,-5.7188,-5.7239,-5.7388,-5.8051,-5.8275,-5.8449,-5.9101,-5.9253,-5.9253,-5.929,-5.929,-5.929,0.0,-5.929,-5.929,-5.929,-5.929,-5.9327,-5.94,-5.983,-6.0234,-6.0406,-6.0923,-6.1314,-6.1322,-6.1352,-6.1419,-6.1419,-6.1419,-6.1419,-6.1419,-6.1419,-6.1381,-6.1394,-6.1479,-6.1517,-6.1516,-6.1561,-6.1603,-6.1616,-6.1607,-6.1607,-6.1607,-6.1598,-6.1578,-6.1484,-6.1472,-6.1356,-6.1181,-6.1164,-6.1169,-6.1099,-6.0899,-6.0584,-6.0208,-6.0179,-6.0068,-5.9885,-5.9885,-5.9847,-5.9658,-5.8824,-5.8066,-5.7497,0.0,0.0,0.0,0.0,0.0,0.0,0.0,0.0,0.0,-5.181,-5.1569,-5.1206,-5.032,-5.005,-4.975,-4.9359,-4.9184,-4.921,-4.9381,-4.9506,-4.967,-4.9842,-5.0083,-5.0419,-5.0817,-5.0817,-5.1048,-5.1479,-5.1777,-5.2157,-5.264,-5.318,-5.3912,-5.471,-5.4896,-5.5174,-5.5507,-5.5507,-5.5507,-5.5507,-5.5507,-5.5507,-5.5507,-5.5799,-5.5993,-5.6273,-5.6829,-5.6933,0.0,-5.7087,-5.7188,-5.7188,-5.7188,-5.7188,-5.7289,-5.7867,-5.8006,-5.8186,-5.8828,-5.9178,-5.929,-5.929,-5.929,-5.929,-5.929,-5.929,-5.929,-5.929,-5.929,-5.9364,-5.954,-5.9804,-6.0103,-6.0517,-6.0843,-6.1077,-6.1337,-6.1366,-6.1419,-6.1419,-6.1419,-6.1419,-6.1419,-6.1419,-6.1419,-6.1419,-6.1468,-6.1495,-6.1486,-6.1562,-6.1616,-6.1588,-6.1586,-6.1607,-6.1607,-6.1607,-6.1598,-6.1578,-6.1534,-6.1732,-6.2133,-6.2005,-6.1905,-6.1795,-6.1092,-6.0633,-6.0376,-6.0237,-6.0099,-5.9885,-5.9885,-5.9885,-5.9847,-5.9506,-5.9165,-5.89,0.0,0.0,0.0,0.0,0.0,0.0,0.0,0.0,0.0,0.0,-5.1578,-5.1313,-5.0585,-5.032,-5.022,-5.022,-5.0076,-5.0035,-5.0035,-5.0232,-5.0331,-5.0331,-5.0644,-5.1048,-5.1578,-5.1578,-5.1843,-5.2373,-5.2373,-5.2553,-5.2939,-5.3043,-5.3516,-5.4235,-5.4586,-5.493,-5.5294,-5.5448,-5.5507,-5.5507,-5.5507,-5.5507,-5.5507,-5.5566,-5.5879,-5.6328,-5.6776,-5.6933,-5.6933,-5.7138,-5.7188,-5.7188,-5.7188,-5.7188,-5.7289,-5.7679,-5.7904,-5.8051,-5.8624,-5.8947,-5.9178,-5.9253,-5.929,-5.929,-5.929,-5.929,-5.929,-5.929,-5.929,-5.9364,-5.9609,-5.9744,-5.9985,-6.0565,-6.0762,-6.0906,-6.1337,-6.1405,-6.1419,-6.1419,-6.1419,-6.1419,-6.1419,-6.1419,-6.1419,-6.1419,-6.1433,-6.149,-6.1498,-6.1559,-6.159,-6.1582,-6.1603,-6.1607,-6.1607,-6.1607,-6.1724,-6.1958,-6.1918,-6.2313,-6.3118,-6.2711,-6.2482,-6.2355,-6.135,-6.0795,-6.0559,-6.0376,-6.015,-5.9982,-5.9918,-5.9885,-5.9885,-5.9885,-5.9885,-5.9885,0.0,0.0,0.0,0.0,0.0,0.0,0.0,0.0,0.0,0.0,0.0,0.0,0.0,-5.0618,-5.022,-5.022,-5.085,-5.1247,-5.1247,-5.191,-5.2307,-5.2307,-5.2307,-5.234,-5.234,-5.234,-5.2373,-5.2373,-5.2373,-5.2373,-5.2445,-5.287,-5.3111,-5.3179,-5.4235,-5.471,-5.4772,-5.5234,-5.5507,-5.5507,-5.5507,-5.5507,-5.5507,-5.5822,-5.5901,-5.5957,-5.6273,-5.676,-5.7188,-5.7188,-5.7188,-5.7188,-5.7188,-5.7188,-5.7289,-5.7679,-5.8006,-5.8326,-5.8706,-5.8788,-5.8868,-5.9215,-5.929,-5.929,-5.929,-5.929,-5.929,-5.929,-5.929,-5.929,-5.929,-5.9575,-5.9931,-6.0272,-6.0589,-6.0906,-6.1252,-6.1352,-6.1419,-6.1419,-6.1419,-6.1419,0.0,-6.1419,-6.1419,-6.1419,-6.1419,-6.1445,-6.1498,-6.1502,-6.1523,-6.1588,-6.1603,-6.1607,-6.1607,-6.1607,-6.2036,-6.2854,-6.2854,-6.3253,-6.3935,-6.3015,-6.254,-6.246,-6.1569,-6.1041,-6.0773,-6.0584,-6.0376,-6.015,-5.9982,-5.9885,-5.9885,-5.9885,-5.9885,-5.9885,0.0,0.0,0.0,0.0,0.0,0.0,0.0,0.0,0.0,0.0,0.0,0.0,0.0,0.0,0.0,0.0,-5.163,-5.1619,-5.1619,-5.1882,-5.2013,-5.2013,-5.223,-5.2373,-5.2373,-5.2373,-5.2373,-5.2373,-5.2373,-5.2373,-5.2373,-5.2553,-5.28,-5.3111,-5.3847,-5.4362,-5.471,-5.5234,-5.5507,-5.5507,-5.5507,-5.5507,-5.5507,-5.5822,-5.6049,-5.6273,0.0,-5.6812,-5.6933,-5.7138,-5.7188,-5.7188,-5.7188,-5.7188,-5.7289,-5.7679,-5.8194,-5.8665,-5.8788,-5.8947,-5.9178,-5.9253,-5.929,-5.929,-5.929,-5.929,-5.929,-5.929,-5.929,-5.929,-5.929,-5.94,-5.9605,-6.0103,-6.0367,-6.068,-6.1113,-6.1283,-6.1419,-6.1419,-6.1419,-6.1419,0.0,0.0,0.0,-6.1419,-6.1421,-6.1484,-6.151,-6.1549,-6.1598,-6.1596,-6.1593,-6.1885,-6.2465,-6.2465,-6.2893,-6.3711,-6.4296,-6.4655,-6.483,-6.4545,-6.4026,-6.3371,-6.2517,-6.1651,-6.0864,-6.0627,-6.0418,-6.0179,-5.9982,-5.9885,-5.9885,-5.9885,-5.9885,-5.9885,0.0,0.0,0.0,0.0,0.0,0.0,0.0,0.0,0.0,0.0,0.0,0.0,0.0,0.0,0.0,0.0,0.0,-5.2013,-5.2013,-5.2013,-5.2013,-5.2013,-5.223,-5.2373,-5.2373,-5.2373,-5.2373,-5.2373,-5.2373,-5.2373,-5.2373,-5.2373,-5.2553,-5.287,-5.3382,-5.3781,-5.4171,-5.471,-5.5053,-5.5234,-5.5234,-5.5329,-5.5507,-5.5822,-5.6106,0.0,-5.6707,-5.6829,-5.6933,-5.7138,-5.7188,-5.7188,-5.7188,-5.7188,-5.7239,-5.7486,-5.7877,-5.8245,-5.8412,-5.8582,-5.8828,-5.9063,-5.914,-5.9178,-5.9253,-5.929,-5.929,-5.929,-5.929,-5.929,-5.929,-5.929,-5.9434,-5.9893,-6.0132,-6.0393,-6.0906,-6.1131,-6.1252,-6.1405,-6.1419,-6.1419,-6.1419,0.0,0.0,-6.1419,-6.1421,-6.146,-6.1484,-6.1502,-6.169,-6.2066,-6.2055,-6.2473,-6.3366,-6.3341,-6.375,-6.4569,-6.5465,-6.5834,-6.5801,-6.5489,-6.483,-6.3909,-6.3054,-6.2075,-6.1039,-6.0762,-6.0531,-6.0338,-6.0099,-5.995,-5.995,-5.995,-6.0107,-6.0264,0.0,0.0,0.0,0.0,0.0,0.0,0.0,0.0,0.0,0.0,0.0,0.0,0.0,0.0,0.0,0.0,0.0,0.0,-5.2373,-5.2373,-5.2373,-5.2373,-5.2373,-5.2373,-5.2373,-5.2373,-5.2373,-5.2373,-5.2373,-5.2373,-5.2373,-5.2373,-5.2373,-5.2445,-5.2939,-5.3111,-5.3179,-5.3715,-5.4299,-5.471,-5.471,-5.5053,-5.5507,-5.5822,-5.6106,-5.6437,-5.6707,-5.6984,-5.7188,-5.7188,-5.7188,-5.7188,-5.7188,-5.7188,-5.7188,-5.7188,-5.7188,-5.7289,-5.7715,-5.781,-5.796,-5.8624,-5.8788,-5.8868,-5.9215,-5.9253,-5.929,-5.929,-5.9328,-5.9365,-5.9365,-5.9365,-5.9512,-5.9782,-5.9906,-6.0132,-6.074,-6.0866,-6.1039,-6.1352,-6.1419,-6.1419,-6.1419,-6.1419,0.0,-6.1419,0.0,-6.1447,-6.1472,-6.1481,-6.1907,-6.2865,-6.2889,-6.333,-6.4275,-6.4255,-6.4647,-6.5465,-6.6283,-6.6712,-6.6673,-6.5855,-6.4966,-6.4013,-6.3196,-6.2354,-6.1444,-6.0925,-6.0718,-6.0673,-6.0265,-6.0076,-6.0051,-6.0051,-6.0551,-6.1093,0.0,0.0,0.0,0.0,0.0,0.0,0.0,0.0,0.0,0.0,0.0,0.0,0.0,0.0,0.0,0.0,0.0,0.0,-5.2373,-5.2373,-5.2373,-5.2373,-5.2373,-5.2373,-5.2373,-5.2373,-5.2373,-5.2373,-5.2373,-5.2373,-5.2373,-5.2373,-5.2373,-5.2445,-5.3349,-5.3715,-5.3781,-5.471,-5.5174,-5.5329,-5.5329,-5.5389,-5.5566,-5.6049,-5.6328,-5.6437,-5.6933,-5.7138,-5.7188,-5.7188,-5.7188,-5.7188,-5.7188,-5.7188,-5.7188,-5.7188,-5.7388,-5.7631,-5.781,-5.796,-5.8231,-5.8369,-5.8412,-5.8498,-5.8828,-5.8908,-5.8986,-5.9253,-5.9816,-6.0266,-6.0266,-6.0266,-6.0378,-6.0728,-6.0463,-6.0393,-6.08,-6.1095,-6.1283,-6.1405,-6.1419,-6.1419,-6.1419,-6.1419,0.0,0.0,-6.1419,-6.1419,-6.1408,-6.2029,-6.2531,-6.283,-6.3437,-6.42,-6.5168,-6.5757,-6.6166,-6.6361,-6.6595,-6.6712,-6.6673,-6.6478,-6.5883,-6.5016,-6.4159,-6.327,-6.2381,-6.131,-6.0783,-6.0673,-6.0265,-6.0487,-6.1057,-6.1057,-6.159,-6.2243,0.0,0.0,0.0,0.0,0.0,0.0,0.0,0.0,0.0,0.0,0.0,0.0,0.0,0.0,0.0,0.0,0.0,0.0,0.0,-5.2373,-5.2373,-5.2373,-5.2373,-5.2373,-5.2373,-5.2373,-5.2373,-5.2373,-5.2373,-5.2373,-5.2373,-5.2373,-5.2373,-5.2445,-5.3008,-5.3349,-5.3583,-5.4171,-5.471,0.0,0.0,-5.5294,-5.5566,-5.5993,-5.6273,-5.6437,-5.6881,-5.7036,-5.7036,-5.7036,-5.7087,-5.7188,-5.7188,-5.7188,-5.7188,-5.7188,-5.7338,-5.7534,-5.7534,-5.7679,-5.7831,-5.8051,-5.8097,-5.8231,-5.8706,-5.9086,-5.9505,-5.9778,-6.0529,-6.113,-6.113,-6.083,-6.0679,-6.0928,-6.0525,-6.0326,-6.0734,-6.1022,-6.1236,-6.1366,-6.1419,-6.1536,-6.1924,-6.1963,-6.2119,0.0,-6.2196,-6.1963,-6.1963,-6.2821,-6.3453,-6.3889,-6.4392,-6.5111,-6.6009,-6.6449,-6.6712,-6.6712,-6.6712,-6.6712,-6.6712,-6.6712,-6.6205,-6.5348,0.0,-6.3614,-6.2791,-6.1966,-6.1505,-6.1362,-6.1454,-6.1678,-6.2026,-6.2026,-6.2528,-6.322,0.0,0.0,0.0,0.0,0.0,0.0,0.0,0.0,0.0,0.0,0.0,0.0,0.0,0.0,0.0,0.0,0.0,0.0,0.0,0.0,-5.2373,-5.2373,-5.2373,-5.2373,-5.2373,-5.2373,-5.2373,-5.2373,-5.2373,-5.2373,-5.2373,-5.2373,-5.2373,-5.2373,-5.2445,-5.2764,-5.3111,-5.3247,-5.3847,-5.471,-5.4772,-5.5113,-5.5507,0.0,-5.6106,-5.6383,-5.6653,-5.676,-5.676,-5.676,-5.6969,-5.7138,-5.7138,-5.7188,-5.7188,-5.7188,-5.7188,-5.7188,-5.7188,-5.7188,-5.7289,-5.7631,-5.7715,-5.795,-5.8693,-5.9492,-6.0133,-6.0641,-6.1393,-6.1956,-6.1956,-6.1393,-6.098,-6.1127,-6.0648,-6.0387,-6.0863,-6.1092,-6.1369,-6.1701,-6.1769,-6.2041,-6.2818,-6.2857,-6.3206,-6.3945,-6.3401,-6.2973,-6.2896,-6.3673,-6.4545,-6.5461,-6.5529,-6.5936,-6.6672,-6.6683,-6.6712,-6.6712,-6.6712,-6.6712,-6.6712,-6.6712,-6.6361,-6.5699,-6.4803,0.0,-6.339,-6.3015,-6.271,-6.2394,-6.2968,-6.3088,-6.2994,-6.2994,-6.3466,-6.4089,0.0,0.0,0.0,0.0,0.0,0.0,0.0,0.0,0.0,0.0,-5.2158,-5.2373,0.0,0.0,0.0,0.0,0.0,0.0,0.0,0.0,0.0,-5.2373,-5.2373,-5.2373,-5.2373,-5.2373,-5.2373,-5.2373,-5.2373,-5.2373,-5.2373,-5.2373,-5.2373,-5.2445,-5.28,-5.3043,-5.3179,-5.4042,-5.4523,-5.471,-5.5174,-5.5448,-5.5507,-5.5822,0.0,0.0,-5.6328,-5.6437,-5.6437,-5.6437,-5.6653,-5.6865,-5.6865,-5.6984,-5.7188,-5.7188,-5.7188,-5.7188,-5.7188,-5.7188,-5.7188,-5.7289,-5.7289,-5.768,-5.905,-5.9523,-5.9993,-6.1314,-6.2294,-6.2857,-6.2857,-6.2745,-6.271,-6.2861,-6.2318,-6.2064,-6.2592,-6.2844,-6.3091,-6.3487,-6.3556,-6.3595,-6.375,-6.375,0.0,0.0,-6.4488,-6.4488,-6.3789,-6.4566,-6.5438,-6.636,-6.6441,-6.6547,-6.6711,-6.6702,-6.6693,-6.6712,-6.6712,-6.6712,-6.6712,-6.6712,-6.7024,-6.7491,-6.6634,0.0,-6.5951,-6.4876,-6.398,-6.3245,-6.3015,-6.3341,-6.3962,-6.3962,-6.4466,-6.5154,0.0,0.0,0.0,0.0,0.0,0.0,0.0,-4.9615,-5.0352,-5.1102,-5.1762,-5.2158,-5.2373,-5.2373,0.0,0.0,0.0,0.0,0.0,0.0,0.0,0.0,-5.2373,-5.2373,-5.2373,-5.2373,-5.2373,-5.2373,0.0,-5.2373,-5.2373,-5.2373,-5.2373,-5.2373,-5.2624,-5.287,-5.3179,-5.3977,-5.4425,-5.4772,-5.5294,-5.5507,-5.5507,-5.5648,0.0,0.0,-5.6273,-5.6273,-5.6162,-5.6162,-5.6217,-5.6402,-5.6671,-5.6984,-5.7188,-5.7188,-5.7188,-5.7188,-5.7188,-5.7188,-5.7188,-5.7188,-5.7188,-5.7569,-5.9145,-5.9878,-6.0611,-6.2176,-6.312,-6.3721,-6.3721,-6.3383,-6.3161,-6.3276,-6.2867,-6.2701,-6.3066,-6.3433,-6.3705,-6.3938,-6.3969,-6.4139,-6.4566,-6.4605,-6.4799,-6.5265,-6.5654,-6.5498,-6.4683,-6.5421,-6.61,-6.6644,-6.663,-6.6676,-6.6744,-6.6736,-6.672,-6.6693,-6.716,-6.7385,-6.7374,-6.7842,-6.8271,-6.8621,-6.7764,0.0,-6.7286,-6.6105,-6.5314,-6.483,-6.4487,-6.4566,-6.4802,-6.4802,-6.507,-6.5452,0.0,0.0,0.0,0.0,0.0,0.0,0.0,-4.8759,-4.9487,-5.0352,-5.1177,-5.1835,-5.223,-5.2373,-5.2373,0.0,0.0,0.0,0.0,0.0,0.0,0.0,0.0,0.0,-5.2373,0.0,0.0,-5.2373,-5.2373,0.0,0.0,0.0,0.0,0.0,-5.2373,-5.2624,-5.3008,-5.3649,-5.4171,0.0,0.0,-5.5507,-5.5507,0.0,0.0,0.0,0.0,-5.6049,-5.5822,-5.5822,-5.5936,-5.607,-5.6564,-5.6829,-5.7036,-5.7087,-5.7087,-5.7138,-5.7188,-5.7188,-5.7188,-5.7188,-5.7333,-5.7824,-5.9439,-6.0433,-6.1463,-6.3038,-6.3871,-6.4284,-6.4284,-6.3759,-6.3385,-6.3465,-6.3289,-6.3206,-6.3537,-6.393,-6.4268,-6.4411,-6.4497,-6.4745,-6.5421,-6.5498,0.0,-6.647,-6.6508,0.0,-6.5537,-6.612,-6.6555,-6.6655,-6.6644,-6.6678,-6.6795,-6.6961,-6.7048,-6.6993,-6.7881,-6.83,-6.832,-6.8972,-6.9401,-6.9518,-6.8855,0.0,0.0,-6.7549,-6.6958,-6.659,-6.6294,-6.5963,-6.5719,-6.5872,-6.5834,-6.5796,0.0,0.0,0.0,0.0,0.0,0.0,0.0,-4.7533,-4.8346,-4.9487,-5.0538,-5.1359,-5.1762,-5.2158,-5.2373,0.0,0.0,0.0,0.0,0.0,0.0,0.0,0.0,0.0,0.0,0.0,0.0,-5.2373,-5.2373,0.0,0.0,0.0,0.0,0.0,0.0,-5.2445,-5.2516,-5.3449,0.0,0.0,0.0,0.0,0.0,0.0,0.0,0.0,0.0,-5.5566,-5.5566,-5.5566,-5.5879,-5.6328,-5.6383,-5.6437,-5.6492,-5.676,-5.6865,-5.6881,-5.7138,-5.7188,-5.7188,-5.7188,-5.7732,-5.8696,-6.0324,-6.132,-6.2316,-6.3862,-6.4247,-6.4284,-6.4284,-6.4247,-6.4172,-6.4212,-6.4176,-6.4368,-6.4985,-6.513,-6.5422,-6.6084,-6.6173,-6.6228,-6.6392,-6.6392,-6.6392,-6.6508,0.0,0.0,-6.6392,-6.647,-6.6542,-6.6605,-6.6649,-6.6706,-6.6715,-6.7537,-6.7968,-6.7992,-6.8787,-6.9167,-6.9167,-6.9255,-6.9712,-7.0492,-7.0414,0.0,0.0,-6.9786,-6.9108,-6.8309,-6.7889,-6.724,-6.6674,-6.74,-6.7209,-6.6713,0.0,0.0,0.0,0.0,0.0,0.0,-4.6225,-4.6814,-4.7619,-4.8759,-4.9647,-5.0461,-5.1285,-5.1508,-5.1835,0.0,0.0,0.0,0.0,0.0,0.0,0.0,0.0,0.0,0.0,0.0,-5.2373,-5.2373,-5.2373,0.0,0.0,0.0,0.0,0.0,0.0,-5.2587,-5.287,-5.3583,0.0,0.0,0.0,0.0,0.0,0.0,0.0,0.0,0.0,0.0,-5.5507,-5.5507,-5.5683,-5.5857,-5.5857,-5.5857,-5.5993,-5.6617,-5.6707,-5.66,-5.6707,-5.6707,-5.6867,-5.7493,-5.8079,-5.9065,-6.1061,-6.19,-6.2693,-6.4016,-6.4284,-6.4284,-6.4284,-6.4284,-6.4284,-6.4284,-6.4444,-6.4705,-6.4942,-6.5192,-6.5471,-6.5964,-6.6108,-6.6244,0.0,0.0,-6.6508,-6.6508,0.0,0.0,-6.6508,-6.6508,-6.6542,-6.6585,-6.7156,-6.7484,-6.746,-6.8414,-6.8886,-6.8873,-6.9709,-7.0082,-7.0103,-7.058,-7.0998,-7.131,-7.131,0.0,0.0,-7.0235,-6.9601,-6.9065,-6.8233,-6.7706,-6.7477,-6.7782,-6.7706,-6.7553,0.0,0.0,0.0,0.0,0.0,-4.5895,-4.5895,-4.6314,-4.6989,-4.7958,-4.8759,-4.9678,-5.0538,-5.0876,-5.1359,-5.198,0.0,0.0,0.0,0.0,0.0,0.0,0.0,0.0,0.0,0.0,-5.2302,-5.223,-5.2302,-5.2373,0.0,0.0,-5.2373,-5.2373,0.0,0.0,0.0,0.0,0.0,0.0,0.0,0.0,0.0,0.0,0.0,0.0,0.0,0.0,0.0,0.0,0.0,-5.5625,-5.5625,-5.5625,-5.5706,-5.6347,-5.6437,-5.6273,-5.6383,-5.6561,-5.6902,-5.7801,-5.8658,-5.9734,-6.1577,-6.2443,-6.3126,-6.4131,-6.4284,-6.4284,-6.4284,-6.4284,-6.4284,-6.4284,-6.4482,-6.4669,-6.4777,-6.5105,-6.5427,-6.5779,0.0,-6.6187,0.0,-6.6439,-6.6508,0.0,0.0,0.0,-6.6858,-6.6897,-6.6931,-6.6985,-6.7624,-6.8109,-6.8398,-6.9316,-6.9796,-6.9784,-7.059,-7.0996,-7.0979,-7.1575,-7.1827,-7.1827,-7.1817,0.0,0.0,-7.0583,-7.0112,-6.9794,-6.8977,-6.847,-6.8317,-6.8547,-6.847,-6.8394,0.0,0.0,0.0,0.0,0.0,0.0,-4.5895,-4.6046,-4.6403,-4.6844,-4.8072,-4.9035,-4.9487,-5.0461,-5.1102,-5.1102,0.0,0.0,0.0,0.0,0.0,0.0,0.0,0.0,0.0,0.0,-5.223,-5.1794,-5.223,-5.2373,-5.2373,-5.2373,-5.2373,-5.2373,0.0,0.0,0.0,0.0,0.0,0.0,0.0,0.0,-5.5507,0.0,0.0,0.0,0.0,0.0,0.0,0.0,0.0,0.0,0.0,-5.5901,-5.5901,-5.5901,-5.5901,-5.5957,-5.6328,-5.6954,-5.758,-5.7945,-5.9437,-6.1032,-6.1835,-6.2843,-6.3792,-6.4244,-6.4284,-6.4284,-6.4284,-6.4284,-6.4284,-6.4284,-6.4284,-6.4405,-6.4741,-6.5079,-6.5408,0.0,0.0,-6.6301,-6.6389,-6.6439,-6.6508,0.0,0.0,0.0,-6.7752,-6.779,-6.7825,-6.7891,-6.7975,-6.8421,-6.9297,-7.0214,-7.0699,-7.0699,-7.1501,-7.1884,-7.1884,-7.1915,-7.1897,-7.1897,0.0,0.0,0.0,-7.1182,-7.0961,-7.0755,-7.047,-6.9884,-6.9273,-7.0075,-6.9884,-6.924,0.0,0.0,0.0,0.0,0.0,0.0,0.0,-4.5956,-4.6225,-4.6844,-4.7249,-4.7904,-4.8953,-4.9358,-4.9915,-5.0679,0.0,0.0,0.0,0.0,0.0,0.0,0.0,0.0,0.0,0.0,-5.1434,-5.1285,-5.1762,-5.2013,-5.2013,-5.2302,-5.2373,-5.2373,-5.2373,-5.287,0.0,0.0,0.0,0.0,0.0,-5.5507,-5.5507,0.0,0.0,0.0,0.0,0.0,0.0,0.0,0.0,0.0,0.0,0.0,0.0,-5.5625,-5.5625,-5.5789,-5.6399,-5.7029,-5.785,-5.9312,-6.0632,-6.1724,-6.2213,-6.2822,-6.3338,-6.3418,-6.3458,-6.3646,-6.4172,-6.4284,-6.4284,-6.4284,-6.4284,-6.4324,-6.4444,-6.4741,0.0,-6.5408,-6.5974,-6.634,0.0,0.0,0.0,0.0,0.0,0.0,-6.779,-6.841,-6.8783,-6.8788,-6.938,-6.9866,-7.0195,-7.1112,-7.1597,-7.1597,-7.1813,-7.1884,-7.1884,-7.1885,-7.1897,0.0,0.0,0.0,0.0,-7.0976,-7.0755,-7.054,-7.0413,-7.0228,-7.0037,-7.0304,-7.0228,-6.9971,0.0,0.0,0.0,0.0,0.0,0.0,0.0,-4.5895,-4.6046,-4.6491,-4.6989,-4.7508,-4.8072,-4.8821,-4.947,-4.9868,0.0,0.0,0.0,0.0,0.0,0.0,0.0,0.0,-5.1317,-5.121,-5.1027,-5.0876,-5.1285,-5.154,-5.154,-5.1835,-5.198,-5.2158,-5.2158,-5.28,0.0,0.0,0.0,0.0,-5.5507,-5.5507,-5.5507,0.0,0.0,0.0,0.0,0.0,0.0,0.0,0.0,0.0,0.0,0.0,0.0,0.0,-5.5718,-5.6034,-5.649,-5.7246,-5.8315,-5.9996,-6.1135,-6.1911,-6.2345,-6.25,-6.2593,-6.2595,-6.2857,-6.3233,-6.3759,-6.4096,-6.4284,-6.4284,-6.4284,-6.4364,-6.4482,0.0,0.0,-6.5586,0.0,0.0,0.0,0.0,0.0,0.0,0.0,0.0,-6.8723,-6.9344,-6.9655,-6.9692,-7.0236,-7.0739,-7.1127,-7.169,-7.1987,-7.1987,-7.1976,-7.1937,-7.1937,-7.1893,-7.1906,0.0,0.0,0.0,0.0,-7.0889,-7.0652,-7.0419,-7.0419,-7.0419,-7.0419,-7.0419,-7.0281,-7.0109,0.0,0.0,0.0,0.0,0.0,0.0,0.0,0.0,-4.5895,-4.5895,-4.6989,-4.7563,-4.6931,-4.8573,-4.9501,-4.8984,0.0,0.0,0.0,0.0,0.0,0.0,0.0,0.0,-5.0525,-5.0832,-5.08,-5.0448,-5.0876,-5.1027,-5.1027,-5.1102,-5.1359,-5.1762,-5.1762,-5.2661,0.0,0.0,0.0,0.0,-5.5507,-5.5507,0.0,0.0,0.0,0.0,0.0,0.0,0.0,0.0,0.0,0.0,0.0,0.0,0.0,0.0,0.0,0.0,0.0,-5.7752,-5.9051,-6.014,-6.1084,-6.1855,-6.2064,-6.1894,0.0,-6.1692,-6.2407,-6.3045,-6.3083,-6.3759,-6.4284,-6.4284,-6.4359,-6.448,0.0,-6.5112,0.0,0.0,-6.6303,0.0,-6.638,0.0,0.0,0.0,0.0,0.0,-7.0215,-7.0434,-7.0511,-7.0504,-7.0583,-7.1048,-7.1909,-7.1909,-7.1948,-7.1987,-7.1987,-7.1987,-7.1987,-7.1909,-7.1893,0.0,0.0,0.0,0.0,-7.0863,-7.0622,-7.0419,-7.0419,-7.0419,-7.0419,-7.0419,-7.0144,-6.9701,0.0,0.0,0.0,0.0,0.0,0.0,0.0,0.0,0.0,0.0,-4.6135,-4.6491,-4.6844,-4.7734,-4.849,0.0,0.0,0.0,0.0,0.0,0.0,0.0,0.0,0.0,-5.0525,-5.0292,-5.0136,-5.0058,-5.0448,-5.0679,-5.0679,-5.0984,-5.121,-5.1285,-5.1875,-5.3008,0.0,0.0,0.0,0.0,-5.5507,-5.5507,0.0,0.0,0.0,0.0,-5.5507,-5.5507,0.0,0.0,0.0,0.0,0.0,0.0,0.0,0.0,-5.5648,-5.5977,-5.6972,0.0,-6.0412,-6.1199,-6.1892,-6.2085,0.0,-6.0743,-6.0713,-6.0752,-6.1467,-6.2294,-6.297,-6.3759,-6.4284,-6.4284,-6.481,-6.512,-6.4817,0.0,0.0,-6.7072,-6.6631,-6.6496,0.0,0.0,0.0,0.0,0.0,-6.992,-7.0368,-7.1066,-7.1212,-7.0583,-7.0656,-7.0787,-7.1011,-7.1011,-7.1324,-7.1987,-7.1987,-7.1987,-7.1987,-7.1909,-7.1893,0.0,0.0,0.0,-7.1054,-7.0643,-7.0445,-7.0419,-7.0419,-7.0419,-7.0419,-7.0419,-7.0144,-6.9701,0.0,0.0,0.0,0.0,0.0,0.0,0.0,0.0,0.0,0.0,0.0,0.0,0.0,0.0,0.0,0.0,0.0,0.0,0.0,0.0,0.0,0.0,0.0,-5.0214,-5.0214,-4.9979,-4.9931,-4.9931,-5.0136,-5.0214,-5.0214,-5.0448,-5.08,-5.1401,-5.2594,-5.3583,0.0,0.0,0.0,-5.5354,-5.5448,0.0,0.0,0.0,0.0,0.0,-5.5507,-5.5507,0.0,-5.5507,-5.5507,-5.5507,0.0,0.0,0.0,0.0,-5.5895,-5.6617,-5.7531,-5.8681,-5.9808,-6.0811,-6.1217,-6.1167,-6.0397,-5.9953,-5.9734,-5.9851,-6.0527,-6.1391,-6.2253,-6.3237,-6.3992,-6.4169,-6.486,0.0,0.0,0.0,-6.7216,-6.748,-6.7075,0.0,0.0,0.0,0.0,0.0,0.0,-7.0487,-7.0937,-7.1121,-7.0835,-7.0039,-6.9671,-6.9879,-7.0699,-7.0699,-7.1128,-7.1987,-7.1987,-7.1987,-7.1987,-7.1924,-7.1901,0.0,0.0,0.0,-7.1054,-7.0584,-7.0419,-7.0419,-7.0419,-7.0419,-7.0419,-7.0419,-6.9999,-6.9463,0.0,0.0,0.0,0.0,0.0,0.0,0.0,0.0,0.0,0.0,0.0,0.0,0.0,0.0,0.0,0.0,0.0,0.0,0.0,0.0,0.0,0.0,-4.9931,-4.9931,-4.9931,-4.9931,-4.9931,-4.9931,-4.9931,-4.9931,-4.9931,-4.9931,-5.0602,-5.1842,-5.3415,-5.4205,-5.4333,-5.4957,-5.5199,-5.5199,-5.5448,0.0,0.0,0.0,0.0,0.0,0.0,0.0,0.0,-5.5507,-5.5507,-5.5507,-5.5507,0.0,0.0,0.0,0.0,0.0,-5.7939,-5.8145,-5.8565,-5.9905,-6.0063,-5.9887,-5.9901,-5.9343,-5.894,-5.9139,-5.9851,-6.06,-6.1353,-6.2523,-6.3501,-6.3946,0.0,0.0,-6.6872,-6.7811,-6.8197,-6.7578,-6.7384,0.0,0.0,0.0,0.0,0.0,0.0,-7.079,-7.1366,-7.0824,-7.0104,-6.914,-6.8457,-6.8825,-7.0309,-7.0426,-7.0933,-7.1792,-7.1948,-7.1987,-7.1987,-7.193,-7.1916,-7.1876,0.0,0.0,-7.1054,-7.0584,-7.0419,-7.0419,-7.0419,-7.0419,-7.0419,-7.0419,-6.9853,-6.9091,0.0,0.0,0.0,0.0,0.0,0.0,0.0,0.0,0.0,0.0,0.0,0.0,0.0,0.0,0.0,0.0,0.0,0.0,0.0,0.0,0.0,-4.9931,-4.9931,-4.9931,-4.9931,-4.9931,-4.9931,-4.9931,-4.9931,-4.9931,-4.9931,-4.9931,-5.0723,-5.2137,-5.3247,-5.4042,-5.4717,-5.5079,-5.5199,-5.5199,-5.5448,0.0,0.0,0.0,0.0,0.0,0.0,0.0,0.0,-5.5507,-5.5507,-5.5507,-5.5507,0.0,0.0,0.0,0.0,0.0,-5.7144,-5.7644,-5.829,-5.9634,-5.9913,-5.9738,-5.9069,-5.8892,-5.894,-5.9022,-5.9734,-6.0489,-6.1007,-6.2034,-6.2968,-6.35,0.0,-6.5724,0.0,0.0,-6.6804,-6.7423,0.0,0.0,0.0,0.0,0.0,0.0,0.0,-7.1174,-7.0606,-7.0569,-6.9882,-6.8332,-6.8166,-6.8239,-6.8513,-6.9215,-7.0035,-7.0894,-7.1636,-7.1987,-7.1987,-7.193,-7.1916,-7.1876,0.0,-7.1141,-7.1054,-7.0584,-7.0419,-7.0419,-7.0419,-7.0419,-7.0419,-7.0419,-6.9853,-6.9003,0.0,0.0,0.0,0.0,0.0,0.0,0.0,0.0,0.0,0.0,0.0,0.0,0.0,0.0,0.0,0.0,0.0,0.0,0.0,0.0,-5.0214,-5.0214,-5.001,-4.9931,-4.9931,-4.9931,-4.9931,-4.9931,-4.9931,-4.9931,-4.9931,-5.0767,-5.1776,-5.2872,-5.3715,-5.4269,-5.4655,-5.4992,-5.5079,-5.5113,0.0,0.0,0.0,0.0,0.0,0.0,0.0,0.0,0.0,0.0,-5.5507,-5.5507,-5.5507,0.0,0.0,0.0,0.0,0.0,-5.7413,-5.7923,-5.848,-5.9102,-5.9255,-5.9144,-5.8772,-5.8777,-5.8818,-5.8902,-5.9278,-5.9923,-6.1274,0.0,-6.3137,-6.4709,0.0,-6.6446,-6.7186,-6.7476,-6.7578,0.0,0.0,0.0,0.0,0.0,0.0,0.0,0.0,0.0,-6.9717,-6.9364,-6.8863,-6.8122,-6.7654,-6.7381,-6.7381,-6.8279,-6.9372,-7.0699,-7.1128,-7.1558,-7.1987,-7.1982,-7.1909,-7.1788,0.0,-7.112,-7.0951,-7.0563,-7.0419,-7.0419,-7.0419,-7.0419,-7.0315,-6.989,-6.9426,-6.8959,0.0,0.0,0.0,0.0,0.0,0.0,0.0,0.0,0.0,0.0,0.0,0.0,0.0,0.0,0.0,0.0,0.0,0.0,0.0,0.0,-5.0679,-5.0679,-5.0214,-5.001,-4.9931,-4.9931,-4.9931,-4.9931,-4.9931,-4.9931,-4.9931,-5.1484,-5.2561,-5.3146,-5.4076,-5.4494,-5.4494,-5.4869,-5.4992,-5.5053,0.0,0.0,0.0,0.0,0.0,0.0,0.0,0.0,0.0,0.0,0.0,0.0,0.0,0.0,0.0,-5.6014,-5.6546,-5.7216,-5.7606,-5.8194,-5.8698,-5.8698,-5.8698,-5.8698,-5.8698,-5.8698,-5.8739,-5.8859,-5.9008,-5.9654,-6.1392,-6.2368,0.0,-6.5572,-6.6357,-6.6805,-6.7149,0.0,0.0,0.0,0.0,0.0,0.0,0.0,0.0,0.0,0.0,0.0,-6.8804,-6.8312,-6.7961,-6.781,-6.7146,-6.6795,-6.6795,-6.7459,-6.8552,-7.0113,-7.0504,-7.105,-7.1714,-7.1909,-7.1901,-7.1692,-7.1348,-7.1081,-7.0902,-7.057,-7.0419,-7.0419,-7.0419,-7.0419,-7.0281,-6.9426,-6.9091,-6.8959,0.0,0.0,0.0,0.0,0.0,0.0,0.0,0.0,0.0,0.0,0.0,0.0,0.0,0.0,0.0,0.0,0.0,0.0,0.0,0.0,-5.1027,-5.1027,-5.0679,-5.0292,-4.9931,-4.9931,-4.9931,-4.9931,-4.9931,-4.9931,-4.9931,-5.1484,-5.2246,-5.235,-5.3847,-5.4494,-5.4494,-5.4869,-5.4992,-5.5053,-5.5389,0.0,0.0,0.0,0.0,0.0,0.0,0.0,0.0,0.0,0.0,0.0,0.0,0.0,-5.5507,-5.5566,-5.6311,-5.7116,-5.7166,-5.7923,-5.8698,-5.8698,-5.8698,-5.8698,-5.8698,-5.8698,-5.8739,-5.8859,-5.9413,-6.0021,-6.0677,-6.2411,-6.3962,-6.4839,-6.5465,0.0,0.0,0.0,0.0,0.0,0.0,0.0,0.0,0.0,0.0,0.0,0.0,0.0,-6.7946,-6.8008,-6.7737,-6.6912,-6.6834,-6.6795,-6.6795,-6.6873,-6.7342,-6.8318,-6.9918,-7.0738,-7.0816,-7.1636,-7.1901,-7.1692,-7.142,-7.1162,-7.0863,-7.0669,-7.0522,-7.0419,-7.0419,-7.0419,-7.0281,-6.9426,-6.9091,-6.8959,0.0,0.0,0.0,0.0,0.0,0.0,0.0,0.0,0.0,0.0,0.0,0.0,0.0,0.0,0.0,0.0,0.0,0.0,0.0,-5.1285,-5.154,-5.154,-5.0908,-5.0448,-5.0292,-5.001,-4.9979,-5.0292,-4.9979,-5.0416,-5.1336,-5.1921,-5.27,-5.3649,-5.4239,-5.4494,-5.4529,-5.478,-5.4904,-5.4904,-5.5174,-5.5354,0.0,0.0,0.0,0.0,0.0,0.0,0.0,0.0,-5.5507,-5.5507,-5.5507,-5.5507,-5.5566,-5.5901,-5.6257,-5.6757,-5.7413,-5.7923,-5.8275,-5.8614,-5.9107,-5.9329,-5.8809,-5.8698,-5.8846,-5.9409,-5.9701,-6.0352,-6.1845,-6.3833,-6.5244,-6.5322,-6.573,0.0,0.0,0.0,0.0,0.0,0.0,0.0,0.0,0.0,0.0,0.0,0.0,0.0,-6.7071,-6.7187,-6.7146,-6.6795,-6.6795,-6.6795,-6.6795,-6.6795,-6.6951,-6.7303,-6.8513,-6.9645,-7.0699,-7.105,-7.133,-7.1583,-7.1387,-7.112,-7.0805,-7.0678,-7.0554,-7.0522,-7.0419,-7.0247,-6.9927,-6.9344,-6.8915,-6.8586,0.0,0.0,0.0,0.0,0.0,0.0,0.0,0.0,0.0,0.0,0.0,0.0,0.0,0.0,0.0,0.0,0.0,0.0,-5.1102,-5.1688,-5.2013,-5.2013,-5.1317,-5.0984,-5.1059,-5.0525,-5.037,-5.0525,-5.0214,-5.0723,-5.1849,-5.2065,-5.2907,-5.4141,-5.4367,-5.4494,-5.4494,-5.4717,-5.4842,-5.4904,-5.5079,-5.5259,0.0,0.0,0.0,0.0,0.0,0.0,0.0,0.0,-5.5507,-5.5507,-5.5507,-5.5507,-5.5566,-5.5957,-5.6311,-5.6704,-5.7462,-5.7886,-5.8238,-5.8614,-5.9107,-5.9441,-5.9144,-5.9292,-5.9589,-5.985,-6.0333,-6.1288,-6.3201,-6.4734,-6.5705,0.0,0.0,0.0,0.0,0.0,0.0,0.0,0.0,0.0,0.0,0.0,0.0,0.0,0.0,0.0,0.0,-6.6717,-6.6795,-6.6795,-6.6795,-6.6795,-6.6795,-6.6795,-6.6795,-6.6795,-6.7381,-6.8474,-6.9918,-7.0362,-7.0775,-7.1093,-7.1221,-7.1092,-7.0787,-7.0708,-7.0616,-7.0623,-7.0451,-7.0144,-6.974,-6.9261,-6.878,-6.8346,0.0,0.0,0.0,0.0,0.0,0.0,0.0,0.0,0.0,0.0,0.0,0.0,0.0,0.0,0.0,0.0,0.0,0.0,-5.1102,-5.1908,-5.2373,-5.2373,-5.2013,-5.2013,-5.2373,-5.1508,-5.0908,-5.0525,-5.0525,-5.0755,-5.1102,-5.1849,-5.263,-5.3449,-5.4175,-5.4494,-5.4529,-5.4717,-5.4904,-5.4992,-5.5139,-5.5354,-5.5507,0.0,0.0,0.0,0.0,0.0,0.0,0.0,-5.5507,-5.5507,-5.5507,-5.5507,-5.5507,-5.5507,-5.6257,-5.7116,-5.7116,-5.7877,-5.8698,-5.8698,-5.8735,-5.8921,-5.9738,-6.0593,-6.0964,-6.011,-6.1261,-6.2902,-6.4512,-6.4866,-6.5054,-6.5509,-6.5913,0.0,0.0,0.0,0.0,0.0,0.0,0.0,0.0,0.0,0.0,0.0,0.0,0.0,0.0,-6.6717,-6.6795,-6.6795,-6.6795,-6.6795,-6.6795,-6.6795,-6.6795,-6.6795,-6.6795,-6.7264,-6.8156,-6.9674,-7.0304,-7.0261,-7.0873,-7.1029,-7.0787,-7.0787,-7.0737,-7.0585,-7.0451,-7.0144,-6.974,-6.9261,-6.878,-6.8297,0.0,0.0,0.0,0.0,0.0,0.0,0.0,0.0,0.0,0.0,0.0,0.0,0.0,0.0,0.0,0.0,0.0,0.0,-5.1102,-5.1688,-5.2086,-5.2373,-5.2013,-5.1868,-5.2013,-5.1688,-5.1359,-5.0876,-5.0679,-5.1102,-5.2312,-5.235,-5.3078,-5.4175,-5.4557,-5.4717,-5.4717,-5.478,-5.4842,-5.4904,-5.5079,-5.5139,-5.5174,0.0,0.0,0.0,0.0,0.0,0.0,0.0,0.0,0.0,-5.5507,-5.5507,-5.5507,-5.5507,-5.6014,-5.6599,-5.7015,-5.7606,-5.8231,-5.8614,-5.9144,-5.9627,-5.985,-6.011,-6.0603,-6.1793,-6.3086,-6.4181,-6.4693,-6.5282,0.0,-6.5628,-6.5913,0.0,0.0,0.0,0.0,0.0,0.0,0.0,0.0,0.0,0.0,0.0,0.0,0.0,0.0,-6.6787,-6.6795,-6.6795,-6.6795,-6.6795,-6.6795,-6.6795,-6.6795,-6.6795,-6.6795,-6.7264,-6.8117,-6.8475,-6.9214,-7.0222,-7.0253,-7.0536,-7.0871,-7.0815,-7.0729,-7.0678,-7.0585,-7.0071,-6.9347,-6.9176,-6.8595,-6.7863,0.0,0.0,0.0,0.0,0.0,0.0,0.0,0.0,0.0,0.0,-4.849,-4.9147,0.0,0.0,0.0,0.0,0.0,0.0,0.0,-5.1762,-5.2158,-5.2373,-5.2158,-5.2013,-5.2013,-5.2013,-5.198,-5.1882,-5.1516,-5.1921,-5.3247,-5.3112,-5.3479,-5.4171,-5.4641,-5.4668,-5.4329,-5.4641,-5.4842,-5.493,-5.5053,-5.5053,-5.5079,0.0,0.0,0.0,0.0,0.0,0.0,0.0,0.0,0.0,-5.5507,-5.5507,-5.5566,-5.5764,-5.6201,-5.6704,-5.7266,-5.7794,-5.8319,-5.8614,-5.9069,-5.9627,-6.0258,-6.0757,-6.1569,-6.3276,-6.4214,-6.4833,-6.5222,-6.5575,0.0,-6.5842,0.0,0.0,0.0,0.0,0.0,0.0,0.0,0.0,0.0,0.0,0.0,0.0,0.0,0.0,0.0,-6.6787,-6.6795,-6.6795,-6.6795,-6.6795,-6.6795,-6.6795,-6.6795,-6.6795,-6.6795,-6.7068,-6.7571,-6.7725,-6.85,-6.97,-7.0131,-7.0516,-7.0898,-7.0815,-7.0758,-7.0699,-7.0678,-7.0071,-6.9223,-6.9139,-6.8501,-6.7687,0.0,0.0,0.0,0.0,0.0,0.0,0.0,0.0,0.0,0.0,-4.8573,-4.9228,0.0,0.0,0.0,0.0,0.0,0.0,0.0,-5.2158,-5.2373,-5.2373,-5.2373,-5.2373,-5.2373,-5.2445,-5.2694,-5.3179,-5.2733,-5.2976,-5.3943,-5.384,-5.3754,-5.3636,-5.4513,-5.4444,-5.3697,-5.4495,-5.4992,-5.5139,-5.4965,-5.4992,-5.5199,-5.5199,0.0,0.0,0.0,0.0,0.0,0.0,0.0,0.0,-5.5507,-5.5507,-5.5625,-5.6146,-5.6652,-5.7216,-5.7747,-5.8319,-5.8698,-5.8698,-5.8809,-5.9329,-6.0896,-6.2205,-6.3389,-6.4476,-6.4765,-6.5099,-6.5856,-6.5793,-6.5793,0.0,0.0,0.0,0.0,0.0,0.0,0.0,0.0,0.0,0.0,0.0,0.0,0.0,0.0,0.0,0.0,-6.6754,-6.6795,-6.6795,-6.6795,-6.6795,-6.6795,-6.6795,-6.6795,-6.6795,-6.6795,-6.6795,-6.6829,-6.7256,-6.7992,-6.8912,-7.0295,-7.0898,-7.0898,-7.0815,-7.0787,-7.0787,-7.0737,-7.0103,-6.9185,-6.9223,-6.8595,-6.7687,0.0,0.0,0.0,0.0,0.0,0.0,0.0,0.0,0.0,0.0,0.0,0.0,0.0,0.0,0.0,0.0,0.0,0.0,0.0,-5.1868,-5.2086,-5.2373,-5.2373,-5.2373,-5.2373,-5.2731,-5.3179,-5.3715,-5.2941,-5.3146,-5.4333,-5.3518,-5.3329,-5.3783,-5.4137,-5.4196,-5.4032,-5.4765,-5.5079,-5.5053,-5.5269,-5.5269,-5.5018,-5.5139,-5.5199,0.0,0.0,0.0,0.0,0.0,0.0,0.0,-5.5507,-5.5507,-5.5625,-5.6146,-5.6652,-5.7216,-5.7747,-5.8319,-5.8698,-5.8698,-5.9701,-6.0827,-6.1459,-6.2975,-6.4365,-6.4661,-6.5003,-6.5408,-6.5905,-6.6013,0.0,0.0,0.0,0.0,0.0,0.0,0.0,0.0,0.0,0.0,0.0,0.0,0.0,0.0,0.0,0.0,-6.6755,-6.6784,-6.6795,-6.6795,-6.6795,-6.6795,-6.6795,-6.6795,-6.6795,0.0,-6.6795,-6.6795,-6.679,-6.6645,-6.727,-6.8588,-7.0221,-7.0898,-7.0898,-7.0871,-7.0871,-7.0871,-7.0729,-7.0137,-6.9269,-6.9139,-6.8501,-6.7687,0.0,0.0,0.0,0.0,0.0,0.0,0.0,0.0,0.0,0.0,0.0,0.0,0.0,0.0,0.0,0.0,0.0,0.0,0.0,0.0,-5.2158,-5.2373,-5.2373,-5.2373,-5.2373,-5.287,-5.3382,-5.3912,-5.3307,-5.346,-5.4374,-5.3827,-5.3505,-5.3404,-5.3964,-5.4139,-5.415,-5.4885,-5.5234,-5.5269,-5.5209,-5.5088,-5.4992,-5.4992,-5.4992,-5.4992,-5.5079,0.0,0.0,0.0,0.0,0.0,0.0,0.0,-5.6014,-5.6528,-5.7065,-5.7606,-5.815,-5.8492,-5.8698,-5.8698,-5.9961,-6.1316,-6.1616,-6.3275,-6.4769,-6.4976,-6.535,-6.5743,-6.5967,0.0,0.0,0.0,0.0,0.0,0.0,0.0,0.0,0.0,0.0,0.0,0.0,0.0,0.0,0.0,0.0,-6.66,-6.6797,-6.6781,-6.6795,-6.6795,-6.6795,-6.6795,-6.6795,-6.6795,-6.6795,-6.6795,-6.6795,-6.6727,-6.6595,-6.7242,-6.7852,-6.8513,-7.0167,-7.0898,-7.0898,-7.0898,-7.0898,-7.0898,-7.0787,-7.0133,-6.9272,-6.9181,-6.8548,-6.7687,0.0,0.0,0.0,0.0,0.0,0.0,0.0,0.0,0.0,0.0,0.0,0.0,0.0,0.0,0.0,0.0,0.0,0.0,0.0,0.0,0.0,-5.2373,-5.2373,-5.2445,-5.2516,-5.3008,-5.3516,-5.4042,-5.3929,-5.3973,-5.4314,-5.4173,-5.373,-5.3019,-5.3905,-5.4256,-5.4174,-5.4885,-5.5294,-5.5389,-5.4965,-5.4904,-5.493,-5.4842,-5.478,-5.4842,-5.493,-5.4992,-5.4992,-5.5053,0.0,0.0,0.0,0.0,-5.633,-5.6912,-5.7462,-5.8015,-5.8572,-5.8698,-5.8698,-5.8698,-5.9961,-6.1279,-6.1732,-6.3311,-6.4837,-6.5299,-6.5731,-6.6013,0.0,0.0,0.0,0.0,0.0,0.0,0.0,0.0,0.0,0.0,0.0,0.0,0.0,0.0,0.0,0.0,0.0,-6.6653,-6.6797,-6.6781,-6.6795,-6.6795,-6.6795,-6.6795,-6.6795,-6.6795,-6.6795,-6.6795,-6.6784,-6.6585,-6.6353,-6.8053,-6.8664,-6.8513,-7.0167,-7.0898,-7.0898,-7.0898,-7.0898,-7.0898,-7.0815,-7.0167,-6.9272,-6.9227,-6.8558,-6.7687,0.0,0.0,0.0,0.0,0.0,0.0,0.0,0.0,0.0,0.0,-4.8573,-4.9228,0.0,0.0,0.0,0.0,0.0,0.0,0.0,0.0,0.0,-5.2373,-5.2373,-5.2553,-5.2974,-5.3516,-5.4042,-5.4586,-5.5009,-5.4922,-5.4279,-5.3647,-5.326,-5.319,-5.3963,-5.4314,-5.4291,-5.4944,-5.5139,-5.5053,-5.4992,-5.4869,-5.4842,-5.478,-5.478,-5.4842,-5.493,-5.4965,-5.4842,-5.5079,-5.5079,0.0,0.0,0.0,-5.6185,-5.6876,-5.7462,-5.8015,-5.8572,-5.8698,-5.8698,-5.8698,-5.9961,-6.1363,0.0,0.0,-6.4904,0.0,-6.5933,0.0,0.0,0.0,0.0,0.0,0.0,0.0,0.0,0.0,0.0,0.0,0.0,0.0,0.0,0.0,0.0,0.0,-6.6603,-6.6708,-6.6797,-6.6781,-6.6795,-6.6795,-6.6795,-6.6795,-6.6795,-6.6795,-6.6795,-6.6795,-6.6697,-6.6513,-6.6338,-6.7929,-6.8552,-6.8513,-7.0167,-7.0898,-7.0898,-7.0898,-7.0898,-7.0898,-7.0815,-7.0167,-6.9272,-6.9227,-6.8558,-6.7687,0.0,0.0,0.0,0.0,0.0,0.0,0.0,0.0,0.0,0.0,0.0,-4.9147,0.0,0.0,0.0,0.0,0.0,0.0,0.0,0.0,0.0,-5.2373,-5.2373,-5.2624,-5.3111,-5.3649,-5.4171,-5.471,-5.478,-5.4665,-5.4314,-5.3963,-5.3765,-5.3742,-5.4116,-5.4443,-5.4745,-5.5154,-5.5234,-5.4992,-5.4992,-5.493,-5.478,-5.4655,-5.4655,-5.4655,-5.4683,-5.4683,-5.4655,-5.4869,-5.4992,-5.5113,-5.5484,0.0,0.0,0.0,-5.7923,-5.8406,-5.8656,-5.8698,-5.8698,0.0,-5.9589,-6.0808,-6.2022,-6.3179,-6.4405,-6.564,0.0,0.0,0.0,0.0,0.0,0.0,0.0,0.0,0.0,0.0,0.0,0.0,0.0,0.0,0.0,0.0,0.0,0.0,-6.6603,-6.6706,-6.6787,-6.6809,-6.6795,-6.6795,-6.6795,-6.6795,-6.6795,-6.6795,-6.6795,-6.6795,-6.6546,-6.6373,-6.6338,-6.7806,-6.8462,-6.8513,-7.0167,-7.0898,-7.0898,-7.0898,-7.0898,-7.0898,-7.0787,-7.0133,-6.9272,-6.9181,-6.8548,-6.7687,0.0,0.0,0.0,0.0,0.0,0.0,0.0,0.0,0.0,0.0,0.0,0.0,0.0,0.0,0.0,0.0,0.0,0.0,0.0,0.0,0.0,-5.2053,-5.2158,-5.2553,-5.3179,-5.3649,-5.4235,-5.4896,-5.4699,-5.4595,-5.4595,-5.4595,-5.4478,-5.4395,-5.4571,-5.4828,-5.5113,-5.5354,-5.5234,-5.4992,-5.493,-5.4904,-5.4717,-5.4592,-5.4494,-5.4529,-5.4592,-5.462,-5.4745,-5.493,-5.5139,-5.5402,-5.5964,-5.6616,0.0,0.0,0.0,-5.8698,-5.8698,0.0,-5.8698,-5.8698,-5.9292,-6.0285,0.0,0.0,-6.3911,0.0,0.0,0.0,0.0,0.0,0.0,0.0,0.0,0.0,0.0,0.0,0.0,0.0,0.0,0.0,0.0,0.0,0.0,0.0,-6.66,-6.6678,-6.68,-6.6795,-6.6795,-6.6795,-6.6795,-6.6795,-6.6795,-6.6795,-6.6795,-6.6795,-6.6451,-6.6314,-6.6338,-6.7772,-6.8398,-6.8513,-7.0167,-7.0898,-7.0898,-7.0898,-7.0898,-7.0898,-7.0787,-7.0171,-6.9272,-6.9181,-6.8548,-6.7724,0.0,0.0,0.0,0.0,0.0,0.0,0.0,0.0,0.0,0.0,0.0,0.0,-4.9852,-4.9931,-5.0058,-5.0448,-5.0525,-5.0755,-5.1135,-5.121,-5.121,-5.121,-5.1614,0.0,-5.3247,-5.3681,-5.4425,-5.5448,-5.5472,-5.5437,-5.5437,-5.5437,-5.5343,-5.5129,-5.5378,-5.5472,-5.5448,-5.5259,-5.5139,-5.4992,-5.4842,-5.4717,-5.4494,-5.4494,-5.4494,-5.4494,-5.4717,-5.5053,-5.5402,-5.5484,-5.5887,-5.6276,-5.6438,-5.6964,-5.751,0.0,0.0,0.0,-5.8698,-5.8698,0.0,-5.8698,-5.9292,-6.0136,0.0,0.0,0.0,0.0,0.0,0.0,0.0,0.0,0.0,0.0,0.0,0.0,0.0,0.0,0.0,0.0,0.0,0.0,0.0,0.0,0.0,0.0,-6.668,-6.6805,-6.6795,-6.6795,-6.6795,-6.6795,-6.6795,-6.6795,-6.6795,-6.6795,-6.6795,-6.6795,-6.6451,-6.6314,-6.6338,-6.7772,-6.8398,-6.8513,-7.0167,-7.0898,-7.0898,-7.0898,-7.0898,-7.0898,-7.0898,-7.0233,-6.9313,-6.9272,-6.8614,-6.7797,0.0,0.0,0.0,0.0,0.0,0.0,0.0,0.0,0.0,0.0,0.0,0.0,0.0,-4.9661,-5.001,-5.0058,-5.037,-5.0679,-5.1027,-5.1102,-5.1327,-5.1875,-5.2131,-5.2836,-5.4042,-5.4333,-5.4772,-5.5507,-5.5354,-5.5354,-5.5507,-5.5269,-5.5174,-5.5199,-5.5413,-5.5389,-5.5174,-5.5294,-5.5174,-5.4904,-5.4869,-5.4745,-5.4494,-5.4494,-5.4494,-5.4494,-5.4592,-5.4683,-5.4896,-5.5426,-5.5716,-5.6055,-5.6978,-5.7462,-5.77,-5.8194,-5.8492,-5.8698,-5.8698,-5.8698,0.0,-5.8698,-5.8921,-5.9465,-6.0698,0.0,0.0,0.0,0.0,0.0,0.0,0.0,0.0,0.0,0.0,0.0,0.0,0.0,0.0,0.0,0.0,0.0,0.0,0.0,0.0,0.0,0.0,-6.6784,-6.68,-6.6795,-6.6795,-6.6795,-6.6795,-6.6795,-6.6795,-6.6795,-6.6795,-6.6795,-6.6451,-6.6314,-6.6338,-6.7772,-6.8398,-6.8513,-7.0167,-7.0898,-7.0898,-7.0898,-7.0898,-7.0871,-7.057,-6.9995,-6.9272,-6.8928,-6.8357,-6.7797,0.0,0.0,0.0,0.0,0.0,0.0,0.0,0.0,-4.6491,-4.7163,0.0,0.0,0.0,0.0,-4.9931,-4.9931,-5.0136,-5.0448,-5.0679,-5.0679,-5.0984,-5.1475,-5.1954,-5.2733,-5.3815,-5.4333,-5.4869,-5.5329,-5.5199,-5.5294,-5.5329,-5.5113,-5.5053,-5.5139,-5.5294,-5.5174,-5.4992,-5.5294,-5.5209,-5.4842,-5.5079,-5.4896,-5.4494,-5.471,-5.4683,-5.4494,-5.4494,-5.462,-5.4896,-5.5367,-5.583,-5.624,-5.718,-5.7737,-5.8051,-5.8572,-5.8698,-5.8698,-5.8698,-5.8698,-5.8698,-5.8698,-5.8698,-5.9054,-6.032,0.0,0.0,0.0,0.0,0.0,0.0,0.0,0.0,0.0,0.0,0.0,0.0,0.0,0.0,0.0,0.0,0.0,0.0,0.0,0.0,0.0,0.0,0.0,-6.68,-6.6795,-6.6795,-6.6795,-6.6795,-6.6795,-6.6795,-6.6795,-6.6795,-6.6795,-6.6451,-6.647,-6.6765,-6.7888,-6.8552,-6.8898,-7.0283,-7.0898,-7.0898,-7.0898,-7.0898,-7.0871,-7.0407,-6.9887,-6.9313,-6.8788,-6.8284,-6.7888,0.0,0.0,0.0,0.0,0.0,0.0,0.0,0.0,-4.7076,-4.7819,0.0,0.0,0.0,0.0,0.0,-4.9931,-4.9931,-4.9931,-4.9931,-4.9931,-4.9931,-4.9979,-5.1102,-5.1987,-5.2594,-5.3881,-5.4683,-5.4992,-5.5139,-5.5139,-5.4992,-5.4992,-5.4992,-5.4992,-5.4992,-5.4992,-5.4992,-5.5139,-5.5053,-5.4842,-5.5402,-5.5164,-5.4557,-5.5164,-5.5079,-5.4557,-5.4557,-5.4896,-5.5402,-5.5461,-5.613,-5.7065,-5.7116,-5.769,-5.8437,-5.8614,-5.8698,-5.8698,0.0,0.0,0.0,-5.8698,-5.8698,0.0,-5.9643,0.0,0.0,0.0,0.0,0.0,0.0,0.0,0.0,0.0,0.0,0.0,0.0,0.0,0.0,0.0,0.0,0.0,0.0,0.0,0.0,0.0,-6.6752,-6.6795,-6.6795,-6.6795,-6.6795,-6.6795,-6.6795,-6.6795,-6.6795,-6.6795,-6.6795,-6.6795,-6.6489,-6.678,-6.7619,-6.8158,-6.8898,-6.9744,-7.0552,-7.0898,-7.0898,-7.0898,-7.0898,-7.0871,-7.0432,-6.9957,-6.9431,-6.8884,-6.8346,-6.8157,0.0,0.0,0.0,0.0,0.0,-4.5895,-4.5895,-4.6046,-4.6403,0.0,0.0,0.0,-4.9066,-4.9582,-4.9931,-4.9931,-4.9931,-4.9931,-4.9931,-5.0448,-5.1027,-5.1557,-5.2561,-5.3415,-5.4141,-5.462,-5.493,-5.4992,-5.493,-5.493,-5.4992,-5.4745,-5.4717,-5.4842,-5.4842,-5.478,-5.462,-5.493,-5.493,-5.478,-5.493,-5.5079,-5.5164,-5.5343,-5.5578,-5.5773,-5.5773,-5.5601,-5.5461,-5.5887,-5.6276,-5.6704,-5.769,-5.8312,-5.8614,-5.8656,-5.8698,-5.8698,-5.8698,0.0,0.0,0.0,0.0,0.0,-5.9252,-5.9778,0.0,0.0,0.0,0.0,0.0,0.0,0.0,0.0,0.0,0.0,0.0,0.0,0.0,0.0,0.0,0.0,0.0,0.0,0.0,0.0,-6.6752,-6.6795,-6.6795,-6.6795,-6.6795,-6.6795,-6.6795,-6.6795,-6.6795,-6.6795,-6.6795,-6.6795,-6.7112,-6.7348,-6.7658,-6.8814,-6.9475,-6.9744,-7.0552,-7.0898,-7.0898,-7.0898,-7.0898,-7.0843,-7.0171,-6.974,-6.9391,-6.8548,-6.849,-6.893,0.0,0.0,0.0,0.0,0.0,-4.5895,-4.5895,-4.5895,-4.6225,0.0,0.0,0.0,-4.9228,-4.9661,-4.9931,-4.9931,-4.9931,-4.9931,-4.9931,-5.037,-5.0951,-5.1736,-5.2561,-5.3415,-5.4239,-5.4683,-5.4869,-5.4807,-5.478,-5.478,-5.4807,-5.4557,-5.4592,-5.4655,-5.4655,-5.4592,-5.4494,-5.4683,-5.4745,-5.4717,-5.5199,-5.5402,-5.5461,-5.5943,-5.6221,-5.6276,-5.6276,-5.5887,-5.5519,-5.6111,-5.6438,-5.6861,-5.8042,-5.848,-5.8572,-5.8656,-5.8698,-5.8698,-5.8698,-5.8698,-5.8698,-5.8698,0.0,0.0,-5.9325,-5.9665,-6.0225,0.0,0.0,0.0,0.0,0.0,0.0,0.0,0.0,0.0,0.0,0.0,0.0,0.0,0.0,0.0,0.0,-6.6503,-6.6571,-6.6757,-6.6781,-6.6795,-6.6795,-6.6795,-6.6795,-6.6795,-6.6795,-6.6795,-6.6795,-6.7146,-6.7331,-6.7259,-6.7866,-6.8286,-6.8586,-6.9345,-6.9898,-7.0244,-7.0706,-7.0898,-7.0898,-7.0898,-7.0898,-7.0843,-6.9995,-6.9664,-6.9431,-6.8442,-6.8572,-6.9278,0.0,0.0,-4.5895,-4.5895,-4.5895,-4.5895,-4.5895,-4.5956,-4.6491,0.0,-4.7988,-4.8573,-4.9741,-4.9931,-4.9931,-4.9931,-4.9931,-4.9931,-4.9931,-4.9979,-5.037,-5.1177,-5.1921,-5.27,-5.3516,-5.4367,-5.4655,-5.4494,-5.4655,-5.4655,-5.4494,-5.4494,-5.4494,-5.4494,-5.4494,-5.4494,-5.4494,-5.4494,-5.4557,-5.4683,-5.5773,-5.5943,-5.5601,-5.6668,-5.6861,-5.6492,-5.6492,-5.6111,-5.5658,-5.6221,-5.6704,-5.7266,-5.8133,-5.8393,-5.8437,-5.8614,-5.8656,-5.8656,-5.8698,-5.8698,-5.8698,-5.8698,-5.8739,0.0,-5.9571,-5.9777,-6.019,0.0,0.0,0.0,0.0,0.0,0.0,0.0,0.0,0.0,0.0,0.0,0.0,0.0,0.0,0.0,-6.6533,-6.6508,-6.6588,-6.6862,-6.6844,-6.6795,-6.6795,-6.6795,-6.6795,-6.6795,-6.6795,-6.6834,-6.6951,-6.7693,-6.8092,-6.8086,-6.872,-6.9377,-6.9938,-6.9874,-7.0206,-7.0898,-7.0898,-7.0898,-7.0898,-7.0898,-7.0898,-7.0843,-6.9995,-6.9702,-6.9587,-6.849,-6.8661,-6.9495,-4.5895,-4.5895,-4.5895,-4.5895,-4.5895,-4.5895,-4.5895,-4.6314,-4.6989,-4.7819,-4.8821,-4.9582,-4.9852,-4.9931,-4.9931,-4.9931,-4.9931,-4.9931,-4.9931,-5.0525,-5.1252,-5.1921,-5.2733,-5.3516,-5.4303,-5.4431,-5.4494,-5.4494,-5.4494,-5.4529,-5.4494,-5.4494,-5.4494,-5.4494,-5.4494,-5.4494,-5.4494,-5.4494,-5.4772,-5.5224,-5.5519,-5.5773,-5.6221,-5.6861,-5.7351,-5.7679,-5.7679,-5.7302,-5.6809,-5.6912,-5.7116,-5.7364,-5.8042,-5.8305,-5.8437,-5.8529,-5.8572,-5.8572,-5.8656,-5.8698,-5.8698,-5.8698,-5.8905,0.0,-5.9289,-5.9571,-5.9975,0.0,0.0,0.0,0.0,0.0,0.0,0.0,0.0,0.0,0.0,0.0,0.0,0.0,0.0,0.0,-6.6417,-6.647,-6.6566,-6.6751,-6.6794,-6.6795,-6.6795,-6.6795,-6.6795,-6.6795,-6.6795,-6.7146,-6.7849,-6.8005,-6.8429,-6.912,-6.9669,-7.0011,-7.0153,-7.0488,-7.0744,-7.0898,-7.0898,-7.0898,-7.0898,-7.0898,-7.0898,-7.0843,-6.9995,-6.9702,-6.9587,-6.849,-6.903,-7.0233,-4.5895,-4.5895,-4.5895,-4.5895,-4.5895,-4.5895,-4.5895,-4.6135,-4.6726,-4.7734,-4.9097,-4.9931,-4.9931,-4.9931,-4.9931,-4.9931,-4.9931,-4.9931,-4.9931,-5.0679,-5.1443,-5.2208,-5.2941,-5.3749,-5.4494,-5.4494,-5.4494,-5.4494,-5.4494,-5.4494,-5.4494,-5.4494,-5.4683,-5.4957,-5.462,-5.4683,-5.4957,-5.462,-5.4683,-5.5018,-5.5601,-5.6221,-5.6757,-5.7351,-5.7726,-5.7997,-5.7997,-5.803,-5.8045,-5.7361,-5.7606,-5.8238,-5.8198,-5.826,-5.8349,-5.8486,-5.8492,-5.8529,-5.8656,-5.8698,-5.8698,-5.8698,-5.8947,0.0,0.0,-5.9772,-6.015,0.0,0.0,0.0,0.0,0.0,0.0,0.0,0.0,0.0,0.0,0.0,0.0,0.0,0.0,0.0,-6.6379,-6.6493,-6.6633,-6.6781,-6.6828,-6.6834,-6.6795,-6.6795,-6.6795,-6.6795,-6.7224,-6.7654,-6.8083,-6.8942,-6.9529,-6.9819,-7.0509,-7.0756,-7.0573,-7.0799,-7.0898,-7.0898,-7.0898,-7.0898,-7.0898,-7.0898,-7.0898,-7.0843,-6.9995,-6.9702,-6.9587,-6.849,-6.9104,-7.0454,-4.5895,-4.5895,-4.5895,-4.5895,-4.5895,-4.5895,-4.5895,-4.5985,-4.655,-4.7904,-4.9178,-4.9931,-4.9931,-4.9931,-4.9931,-4.9931,-4.9931,-4.9931,-4.9931,-5.0525,-5.122,-5.1993,-5.2733,-5.3516,-5.4303,-5.4431,-5.4494,-5.4494,-5.4494,-5.4494,-5.4494,-5.4494,-5.4772,-5.5224,-5.4834,-5.4896,-5.5224,-5.4834,-5.4745,-5.4957,-5.6064,-5.6635,-5.6861,-5.7546,-5.7821,-5.7857,-5.8134,-5.8767,-5.9223,-5.8105,-5.8507,-5.9318,-5.8787,-5.8612,-5.8657,-5.8887,-5.882,-5.8751,-5.8879,-5.8846,-5.8698,-5.8698,-5.8986,-5.9397,0.0,0.0,0.0,0.0,0.0,0.0,0.0,0.0,0.0,0.0,0.0,0.0,0.0,0.0,0.0,0.0,0.0,0.0,0.0,-6.6477,-6.6633,-6.6836,-6.6865,-6.6852,-6.6795,-6.6795,-6.6795,-6.6795,-6.7654,-6.8161,-6.8357,-6.9918,-7.0628,-7.0503,-7.1186,-7.13,-7.094,-7.0925,-7.0898,-7.0898,-7.0898,-7.0898,-7.0898,-7.0898,-7.0898,-7.0843,-6.9995,-6.9702,-6.9587,-6.849,-6.9104,-7.0454,-4.5895,-4.5895,-4.5895,-4.5895,-4.5895,-4.5895,-4.5895,-4.6403,-4.7249,-4.8625,-4.9421,-4.9931,-4.9931,-4.9931,-4.9931,-4.9931,-4.9931,-4.9931,-4.9931,-5.001,-5.037,-5.1177,-5.1921,-5.27,-5.3516,-5.4175,-5.4494,-5.4494,-5.4494,-5.4494,-5.4494,-5.4494,-5.4557,-5.462,-5.5104,-5.5079,-5.462,-5.5104,-5.5601,-5.6182,-5.7061,-5.6695,-5.5716,-5.6773,-5.7216,-5.7375,-5.8615,-5.9575,-6.0272,-6.0114,-6.0151,-6.0236,-6.0162,-6.0126,-6.0173,-6.0453,-6.0063,-5.9553,-5.969,-5.9255,-5.8698,-5.8698,-5.9215,-5.9739,-5.9809,0.0,-6.1911,-6.1935,0.0,0.0,0.0,0.0,0.0,0.0,0.0,0.0,0.0,0.0,0.0,0.0,0.0,0.0,0.0,-6.6351,-6.6524,-6.6703,-6.6708,-6.6757,-6.68,-6.6795,-6.6795,-6.6795,-6.7654,-6.8474,-6.9255,-7.023,-7.0973,-7.1521,-7.152,-7.1377,-7.117,-7.0966,-7.0898,-7.0898,-7.0898,-7.0898,-7.0898,-7.0898,-7.0898,-7.0843,-6.9995,-6.9702,-6.9587,-6.849,-6.9104,-7.0454,-4.5895,-4.5895,-4.5895,-4.5895,-4.5895,-4.5895,-4.5895,-4.6814,-4.7819,-4.8821,-4.9501,-4.9931,-4.9931,-4.9931,-4.9931,-4.9931,-4.9931,-4.9931,-4.9931,-5.1186,-5.2062,-5.2433,-5.3981,-5.5043,-5.5345,-5.5709,-5.5839,-5.5839,-5.5839,-5.5839,-5.5839,-5.5839,-5.5998,-5.6342,-5.6124,-5.6094,-5.6188,-5.6094,-5.6212,0.0,0.0,-5.7222,0.0,-5.844,-5.8981,-5.9103,-5.9663,-6.0419,-6.1006,-6.0566,-6.0713,-6.1006,-6.0566,-6.0419,-6.0467,-6.0748,-6.0535,-6.0322,-6.058,-6.003,-5.9356,-5.9361,-5.9553,-5.982,-6.0378,-6.1315,-6.2204,-6.2704,0.0,0.0,0.0,0.0,0.0,0.0,-6.7268,0.0,0.0,0.0,0.0,0.0,0.0,0.0,0.0,0.0,0.0,0.0,-6.6757,-6.6826,-6.68,-6.6795,-6.7029,-6.7537,-6.8396,-6.9255,-7.0152,-7.1011,-7.1495,-7.1587,-7.1513,-7.132,-7.1042,-7.0952,-7.0898,-7.0898,-7.0898,-7.0898,-7.0898,-7.0898,-7.0898,-7.0843,-6.9995,-6.9702,-6.9587,-6.8586,-6.9193,-7.0454,-4.5895,-4.5895,-4.5895,-4.5895,-4.5895,-4.5895,-4.5895,-4.7076,-4.8072,-4.8573,-4.9421,-4.9931,-4.9931,-4.9931,-4.9931,-4.9931,-4.9931,-4.9931,-4.9931,-5.1674,-5.2819,-5.3041,-5.5069,-5.6269,-5.6471,-5.6705,-5.6805,-5.6805,-5.6805,-5.6805,-5.6805,-5.6805,-5.7032,-5.7409,-5.7,-5.7081,-5.749,0.0,-5.7164,-5.741,-5.8225,-5.8769,-5.9202,-5.9895,-6.0384,-6.075,-6.075,-6.1263,-6.1851,-6.1263,-6.1447,0.0,-6.1263,-6.108,-6.1128,-6.1366,-6.1265,-6.1126,-6.1389,-6.0796,-6.0166,-6.0348,-6.0342,-6.0534,-6.1305,-6.2136,-6.2935,-6.3551,-6.4012,0.0,0.0,0.0,-6.6621,-6.7982,0.0,-6.8777,0.0,0.0,0.0,0.0,0.0,0.0,0.0,0.0,0.0,-6.67,-6.6754,-6.6791,-6.6839,-6.7029,-6.7459,-6.8083,-6.9176,-7.0074,-7.0699,-7.1558,-7.1846,-7.1544,-7.1513,-7.13,-7.0966,-7.0925,-7.0898,-7.0898,-7.0898,-7.0898,-7.0898,-7.0898,-7.0898,-7.0843,-6.9995,-6.9702,-6.9587,-6.867,-6.9244,-7.0454,-4.5895,-4.5895,-4.5895,-4.5895,-4.5895,-4.5895,-4.5895,-4.7076,-4.7904,-4.7904,-4.9066,-4.9931,-4.9931,-4.9931,-4.9931,-4.9931,-4.9931,-4.9931,-4.9931,-5.0643,-5.1423,-5.2215,-5.3658,-5.4834,-5.5617,-5.6404,-5.6805,-5.6805,-5.6805,-5.6805,-5.6805,-5.6805,-5.6805,-5.6871,-5.7409,-5.7684,-5.771,-5.8272,-5.8932,-5.9579,-6.0375,-6.1491,-6.2398,0.0,-6.0413,-6.1557,-6.1557,0.0,0.0,-6.2732,-6.2768,0.0,0.0,0.0,-6.2732,-6.288,-6.2376,-6.1835,-6.2114,-6.1567,-6.1069,-6.1539,-6.1879,-6.2222,-6.265,-6.3652,-6.4551,-6.4551,-6.5909,-6.7099,-6.7209,-6.8606,-6.9794,-6.9899,-7.0634,0.0,0.0,0.0,0.0,0.0,0.0,0.0,0.0,0.0,0.0,-6.6663,-6.6574,-6.6616,-6.6883,-6.7654,-6.8083,-6.8083,-6.9762,-7.066,-7.0699,-7.1558,-7.1916,-7.1689,-7.1559,-7.1377,-7.1192,-7.0992,-7.0898,-7.0898,-7.0898,-7.0898,-7.0898,-7.0898,-7.0898,-7.0843,-6.9995,-6.9702,-6.9587,-6.867,-6.9244,-7.0454,-4.5895,-4.5895,-4.5895,-4.5895,-4.5895,-4.6225,-4.7076,-4.7563,-4.824,-4.9097,-4.9582,-4.9931,-4.9931,-4.9931,-4.9931,-4.9931,-5.0342,-5.0627,-5.0627,-5.2237,-5.3358,-5.3563,-5.553,-5.6746,-5.7036,-5.7809,-5.8254,-5.8254,-5.8254,-5.8254,-5.8254,-5.8254,-5.8254,-5.8219,-5.8387,-5.8642,0.0,0.0,0.0,0.0,0.0,-6.1787,-6.2182,0.0,-6.1995,-6.2401,-6.2401,-6.2585,0.0,-6.2805,-6.2805,-6.2805,-6.2805,-6.2805,-6.2805,-6.2953,-6.2818,-6.2645,0.0,0.0,-6.1707,-6.1937,0.0,-6.2315,-6.3085,-6.3963,-6.4743,-6.532,-6.5947,-6.6598,-6.7209,-6.8297,-6.9292,-6.9899,-7.0711,-7.1291,0.0,-7.1059,0.0,0.0,0.0,0.0,0.0,0.0,0.0,-6.8265,-6.8366,-6.8471,-6.8538,-6.8804,-6.9225,-6.9801,-7.0387,-7.0972,-7.1558,-7.1831,-7.1916,-7.17,-7.1559,-7.1377,-7.1214,-7.0992,-7.0898,-7.0898,-7.0898,-7.0898,-7.0898,-7.0898,-7.0898,-7.0843,-6.9995,-6.9702,-6.9587,-6.867,-6.9244,-7.0602,-4.6214,-4.6214,-4.6156,-4.5924,-4.5895,-4.6314,-4.7422,0.0,0.0,0.0,-4.9741,-4.9931,-4.9931,-4.9931,-5.0026,-5.0279,-5.0721,-5.1069,-5.1322,-5.2972,-5.3987,-5.4276,-5.626,-5.752,-5.7814,-5.8562,-5.9012,-5.9012,-5.9012,-5.9012,-5.9012,-5.9012,-5.9012,-5.8978,-5.8929,-5.9354,-6.0165,-6.0165,-6.0624,0.0,0.0,-6.2255,0.0,0.0,-6.2654,-6.2515,0.0,-6.2805,-6.2805,-6.2805,-6.2805,-6.2805,-6.2805,-6.2805,-6.2805,-6.2904,-6.2953,-6.2953,-6.3147,-6.2825,0.0,-6.2829,-6.3116,0.0,-6.4002,-6.4726,-6.5433,-6.6008,-6.6256,-6.6654,-6.756,-6.8231,-6.8992,-7.0049,-7.0567,-7.0943,0.0,-7.1291,-7.1098,-7.0518,-6.9744,-6.9125,0.0,0.0,-6.902,-6.9155,-6.9255,-6.933,0.0,0.0,-7.01,-7.0699,-7.1011,-7.1441,-7.1987,-7.1987,-7.193,-7.1798,-7.1587,-7.1413,-7.128,-7.1042,-7.0898,-7.0898,-7.0898,-7.0898,-7.0898,-7.0898,-7.0898,-7.0843,-6.9995,-6.9702,-6.9587,-6.867,-6.9193,-7.0622,-4.6853,-4.6795,-4.6592,-4.5982,-4.5895,-4.6135,0.0,0.0,-4.8157,0.0,-4.9501,-4.9931,-4.9931,-4.9963,-5.0247,-5.0911,-5.1037,-5.1353,-5.2017,-5.2744,-5.3458,-5.4261,-5.5784,-5.6996,-5.7741,-5.8562,-5.9012,-5.9012,-5.9012,-5.9012,-5.9012,-5.9012,-5.9012,-5.9012,-5.9012,0.0,-6.0879,-6.0879,-6.1604,-6.2805,-6.2805,-6.2755,-6.2755,-6.2805,-6.2412,-6.1951,-6.2567,-6.2805,-6.2805,-6.2805,-6.2805,-6.2805,-6.2805,-6.2805,-6.2805,-6.2805,-6.2805,-6.2855,-6.3099,-6.3194,-6.3336,-6.4042,-6.4807,0.0,0.0,0.0,-6.6536,-6.6536,-6.6845,-6.7362,-6.8282,-6.8493,-6.8988,-7.0305,-7.0257,-7.0363,-7.1175,-7.1291,-7.1291,-7.1291,-7.0556,-6.9783,-6.9065,-6.897,-6.9088,-6.9408,-6.9309,-6.9302,0.0,0.0,-7.0777,-7.0743,-7.1558,-7.1987,-7.1987,-7.1987,-7.1987,-7.1987,-7.1667,-7.1481,-7.1465,-7.1077,-7.0898,-7.0898,-7.0898,-7.0898,-7.0898,-7.0898,-7.0898,-7.0843,-6.9995,-6.9664,-6.9508,-6.8697,-6.9215,-7.0496,-4.6911,-4.6446,-4.6069,-4.5924,-4.5895,-4.6135,0.0,0.0,0.0,0.0,-4.9501,-4.9931,-4.9931,-5.0405,-5.0785,-5.0943,-5.1954,-5.2649,-5.2807,-5.3471,-5.3935,-5.4126,-5.573,-5.6691,-5.692,-5.828,-5.9012,-5.9012,-5.9012,-5.9012,-5.9012,-5.9012,-5.9012,-5.9012,-5.9012,-5.9709,-6.0879,-6.0879,-6.1604,-6.2805,-6.2805,-6.2515,-6.2202,0.0,-6.2412,-6.1951,-6.2567,-6.2805,-6.2805,-6.2805,-6.2805,-6.2805,-6.2805,-6.2805,-6.2805,-6.2805,-6.2805,-6.2855,-6.3002,-6.3099,-6.339,-6.4308,-6.4924,-6.5564,0.0,0.0,0.0,0.0,0.0,-6.7202,-6.7108,-6.7717,-6.8462,-6.9075,-7.0181,-7.1021,-7.1253,-7.1291,-7.1291,-7.1291,-7.1098,-7.0905,-7.0711,-7.075,-7.0893,-7.1076,-7.1082,-7.1167,0.0,0.0,0.0,-7.1677,-7.19,-7.2002,-7.1987,-7.1987,-7.1987,-7.1987,-7.1667,-7.1481,-7.1465,-7.1077,-7.0898,-7.0898,-7.0898,-7.0898,-7.0898,-7.0898,-7.0898,-7.0843,-6.9995,-6.9223,-6.8639,-6.9591,-7.0069,-7.0386,-4.6911,-4.633,-4.5982,-4.6243,0.0,0.0,-4.7163,-4.7649,0.0,-4.9228,-4.9945,0.0,-5.0374,-5.1006,-5.1543,-5.1891,-5.2649,-5.3218,-5.3534,-5.3882,-5.4242,-5.4633,-5.5908,-5.6768,-5.7147,-5.8351,-5.9012,-5.9012,-5.9012,-5.9012,-5.9012,-5.9012,-5.9012,-5.9012,-5.9012,-5.9547,-6.0555,-6.1091,-6.1751,-6.2412,-6.2705,-6.2603,0.0,-6.2654,-6.2603,-6.236,-6.2705,-6.2805,-6.2805,-6.2805,-6.2805,-6.2805,-6.2805,-6.2805,-6.2805,-6.2805,-6.2855,-6.2904,-6.3051,-6.3194,-6.3511,-6.4466,-6.5188,-6.587,-6.6453,-6.704,-6.7464,0.0,-6.7354,-6.7276,0.0,-6.7769,-6.8306,-6.9154,-7.0419,-7.1291,-7.1291,-7.1291,-7.1291,-7.1291,-7.1291,-7.1291,-7.1291,-7.1369,-7.1485,-7.1678,-7.1728,-7.1819,0.0,0.0,0.0,-7.1992,-7.1989,-7.2017,-7.1987,-7.1987,-7.1987,-7.1987,-7.1667,-7.1481,-7.1465,-7.1077,-7.0898,-7.0898,-7.0898,-7.0898,-7.0898,-7.0898,-7.0898,-7.0805,-6.9959,-6.901,-6.8291,-6.9864,-7.0293,-7.033,-4.6853,-4.633,-4.6098,0.0,0.0,0.0,0.0,-4.8025,0.0,-4.9707,0.0,-5.1006,-5.1101,-5.1733,-5.2396,-5.306,-5.3186,-5.3471,-5.4071,-5.4103,-5.4465,-5.5312,-5.6113,-5.6996,-5.7814,-5.8562,-5.9012,-5.9012,-5.9012,-5.9012,-5.9012,-5.9012,-5.9012,-5.9012,-5.9012,0.0,0.0,-6.1243,-6.1787,-6.1842,-6.2412,-6.2705,-6.2705,-6.2755,-6.2805,-6.2805,-6.2805,-6.2805,-6.2805,-6.2805,-6.2805,-6.2805,-6.2805,-6.2805,-6.2805,-6.2805,-6.2904,-6.3051,-6.3147,-6.3363,-6.3799,-6.4707,-6.5645,-6.6333,-6.6737,-6.7385,-6.7873,-6.7873,-6.7605,-6.761,-6.8297,0.0,-6.8586,-6.9817,-7.0711,-7.1291,-7.1291,-7.1291,-7.1291,-7.1291,-7.1291,0.0,-7.1291,-7.1291,-7.1407,-7.1678,-7.1699,0.0,0.0,0.0,0.0,-7.1992,-7.1992,-7.1988,-7.1997,0.0,-7.1987,-7.1987,-7.1692,-7.1497,-7.1465,-7.1101,-7.0925,-7.0898,-7.0898,-7.0898,-7.0898,-7.0898,-7.0843,-7.0652,-6.9813,-6.8922,-6.8291,-6.9757,-7.0184,-7.033,-4.694,-4.633,-4.6098,-4.6708,0.0,-4.7281,-4.9277,-4.8602,-4.837,-4.9792,-5.0555,-5.1195,-5.1764,-5.2491,-5.2965,-5.3092,-5.3597,-5.3976,-5.4071,-5.4103,-5.4465,-5.5312,-5.6113,-5.6996,-5.7814,-5.8562,-5.9012,-5.9012,-5.9012,-5.9012,-5.9012,-5.9012,-5.9012,-5.9012,0.0,0.0,-6.0065,-6.0736,0.0,-6.1149,-6.1806,-6.2059,-6.2112,-6.2603,-6.2805,-6.2805,-6.2805,-6.2805,-6.2805,-6.2805,-6.2805,-6.2805,-6.2805,-6.2805,-6.2805,-6.2805,-6.2904,-6.3051,-6.3147,-6.377,-6.4651,-6.5598,-6.65,-6.728,-6.8007,-6.8267,-6.8379,-6.8379,-6.8325,-6.8203,-6.7935,0.0,0.0,-6.9894,-7.0711,-7.1291,-7.1291,-7.1291,-7.1291,-7.1291,-7.1291,-7.1291,-7.1291,-7.1291,-7.1407,-7.1678,-7.1699,0.0,0.0,0.0,0.0,0.0,-7.1989,0.0,0.0,0.0,-7.1987,-7.1987,-7.177,-7.1615,-7.1481,-7.1278,-7.1067,-7.0898,-7.0898,-7.0898,-7.0898,-7.0898,-7.0532,-6.9887,-6.951,-6.8833,-6.8291,-6.965,-7.011,-7.033,-4.7375,-4.7085,-4.6969,-4.7259,0.0,0.0,0.0,-4.9098,0.0,-5.0871,-5.1663,-5.2207,-5.2554,-5.3218,-5.3629,-5.3629,-5.3913,-5.4103,-5.4103,-5.4103,-5.4633,-5.5955,-5.6381,-5.7147,-5.8422,-5.8771,-5.9012,-5.9012,-5.9012,-5.9012,-5.9012,-5.9012,-5.9012,-5.9012,0.0,-5.9217,0.0,0.0,0.0,-6.0974,-6.164,-6.2059,-6.2412,-6.2705,-6.2805,-6.2805,-6.2805,-6.2805,-6.2805,-6.2805,-6.2805,-6.2805,-6.2805,-6.2805,-6.2805,-6.2904,-6.3002,-6.3147,-6.3242,-6.3975,-6.4921,-6.5905,-6.6722,-6.7503,-6.832,-6.8506,-6.8506,-6.8506,-6.8506,-6.8605,-6.8862,-6.9274,0.0,0.0,-7.1021,-7.1291,-7.1291,-7.1291,-7.1291,-7.1291,-7.1291,-7.1291,-7.1291,-7.1369,-7.1446,-7.1562,-7.1614,-7.1672,-7.1825,0.0,0.0,0.0,0.0,0.0,0.0,0.0,0.0,-7.1987,-7.1789,-7.1628,-7.1481,-7.128,-7.1077,-7.0898,-7.0898,-7.0898,-7.0898,-7.0652,-7.02,-6.9549,-6.9143,-6.8558,-6.8188,-6.9595,-7.011,-7.033,-4.7782,-4.7782,-4.7811,0.0,-4.7985,0.0,-4.934,-4.9975,-5.0713,-5.1821,-5.266,-5.3155,-5.3313,-5.3787,-5.4103,-5.4103,-5.4103,-5.4103,-5.4103,-5.4103,-5.4883,-5.6536,-5.6614,-5.7372,-5.8944,-5.9012,-5.9012,-5.9012,-5.9012,-5.9081,-5.9254,-5.9081,-5.9012,0.0,0.0,0.0,0.0,0.0,-6.003,-6.0555,-6.1358,-6.2005,-6.2464,-6.2705,-6.2805,-6.2805,-6.2805,-6.2805,-6.2805,-6.2805,-6.2805,-6.2805,-6.2805,-6.2805,-6.2805,-6.2953,-6.3099,-6.3231,-6.3558,-6.4364,-6.5274,-6.6165,-6.6982,-6.7725,-6.8357,-6.8506,-6.8506,-6.8506,-6.8506,-6.8817,-6.9775,-6.9954,0.0,0.0,-7.1291,-7.1291,-7.1291,-7.1291,-7.1291,-7.1291,-7.1291,-7.1291,-7.1291,-7.1407,-7.1446,0.0,-7.155,-7.1568,-7.1693,-7.1745,-7.1783,0.0,0.0,-7.1993,-7.1987,0.0,-7.1987,-7.1987,-7.1854,-7.1665,-7.1481,-7.132,-7.1124,-7.0898,-7.0898,-7.0898,-7.0871,-7.0463,-6.9957,-6.947,-6.8884,-6.8357,-6.8084,-6.9541,-7.011,-7.033,0.0,0.0,0.0,0.0,0.0,0.0,-5.1333,-5.1698,-5.1758,-5.1971,-5.2605,-5.3344,-5.3945,-5.4071,-5.4103,-5.4103,-5.4103,-5.4103,-5.4103,-5.4103,-5.4883,-5.6536,-5.6614,-5.7372,-5.8944,-5.9012,-5.9012,-5.9012,-5.9012,-5.9392,0.0,-5.9357,-5.9012,0.0,0.0,0.0,0.0,-5.9081,-5.9149,-5.9317,-6.0494,-6.1033,-6.1207,-6.2324,-6.2805,-6.2805,-6.2805,-6.2805,-6.2805,-6.2805,-6.2805,-6.2805,-6.2805,-6.2805,-6.2805,-6.2953,-6.3099,-6.3379,-6.4224,-6.5217,-6.6165,-6.6982,-6.78,-6.8431,-6.8506,-6.8506,-6.8506,-6.8506,-6.8602,-6.899,-6.9921,-7.0095,-7.0355,0.0,0.0,-7.1291,-7.1291,-7.1291,-7.1291,-7.1291,-7.1291,-7.1291,-7.1291,-7.1291,0.0,0.0,-7.1605,-7.1704,-7.1704,-7.1745,-7.1796,-7.1797,0.0,-7.201,-7.1987,-7.1987,-7.1987,-7.1987,-7.1982,-7.1819,-7.1481,-7.1465,-7.1239,-7.0898,-7.0898,-7.0898,-7.0871,-7.0463,-6.9957,-6.947,-6.8884,-6.8357,-6.8084,-6.9541,-7.011,-7.033,0.0,0.0,0.0,0.0,0.0,0.0,0.0,-5.1604,-5.2063,-5.2564,-5.3232,-5.3787,-5.4071,-5.4103,-5.4103,-5.4103,-5.4103,-5.4103,-5.4103,-5.4103,-5.4883,-5.6536,-5.6614,-5.7372,-5.8944,-5.9012,-5.9012,-5.9012,-5.9495,-5.9633,-5.9495,0.0,0.0,0.0,0.0,-5.9012,-5.9012,-5.9012,-5.9249,-5.9648,-6.0156,-6.0796,-6.1584,-6.2059,-6.2464,-6.2805,-6.2805,-6.2805,-6.2805,-6.2805,-6.2805,-6.2805,-6.2805,-6.2805,-6.2855,-6.3051,-6.3147,-6.3427,-6.4429,-6.5413,-6.6314,-6.7094,-6.7911,-6.8506,-6.8506,-6.8506,-6.8506,-6.8506,-6.8602,-6.8937,-6.9587,-6.9921,-7.0292,-7.0928,0.0,0.0,-7.1291,-7.1291,-7.1291,-7.1291,-7.1291,-7.1291,-7.1291,-7.1369,0.0,0.0,0.0,-7.1562,-7.1562,-7.1717,0.0,-7.1728,0.0,-7.201,-7.1987,-7.1987,-7.1987,-7.1987,-7.1987,-7.1828,-7.1481,-7.1481,-7.126,-7.0898,-7.0898,-7.0898,-7.0871,-7.0133,-6.9664,-6.9272,-6.8548,-6.8033,-6.7978,-6.9541,-7.011,-7.033,-5.1614,0.0,-5.1468,0.0,-5.0946,-5.1169,-5.1637,-5.2115,-5.2857,-5.3792,-5.4442,-5.4545,-5.4134,-5.4103,-5.4103,-5.4103,-5.4103,-5.4198,-5.4387,-5.4387,-5.5301,-5.7165,-5.7243,-5.801,-5.9598,-5.9702,-5.9702,-5.9702,-6.0254,-6.022,0.0,0.0,0.0,0.0,-5.9012,-5.9012,-5.9012,-5.9012,-5.9249,-5.9714,-5.9873,-6.0651,-6.1584,-6.1584,-6.2112,-6.2755,-6.2603,-6.2654,-6.2805,-6.2805,-6.2805,-6.2805,-6.2805,-6.2805,-6.2855,-6.3099,-6.3379,-6.3796,-6.4884,-6.5794,-6.6648,-6.7465,-6.8097,-6.8506,-6.8506,-6.8506,-6.8506,-6.8554,-6.865,-6.8892,-6.9385,-6.9777,-7.02,-7.07,0.0,0.0,0.0,-7.1291,-7.1291,-7.1291,-7.1291,-7.1291,-7.1291,-7.1369,0.0,0.0,0.0,0.0,0.0,0.0,0.0,0.0,0.0,0.0,0.0,-7.1987,-7.1987,-7.1987,-7.1987,-7.1828,-7.152,-7.1377,-7.117,-7.0898,-7.0898,-7.0898,-7.0843,-6.9885,-6.9393,-6.919,-6.8297,-6.7847,-6.7871,-6.9486,-7.011,-7.033,-5.1614,-5.1614,-5.1614,-5.1614,-5.1614,-5.2088,-5.3663,-5.3854,-5.442,-5.5978,-5.6157,-5.562,-5.4261,-5.4103,-5.4103,-5.4103,-5.4103,-5.4387,-5.5083,-5.5114,-5.6231,0.0,-5.8734,-5.9554,-6.1218,-6.1289,-6.1289,-6.1289,-6.1289,0.0,-6.1254,0.0,-5.9771,-5.9012,-5.9012,-5.9012,-5.9012,-5.9012,-5.9012,-5.9081,-5.9779,-6.0344,-6.0879,-6.0879,-6.1696,-6.2705,-6.2112,-6.2308,-6.2805,-6.2805,-6.2805,-6.2805,-6.2805,-6.2805,-6.2855,-6.3099,-6.3785,-6.4646,-6.5737,-6.6685,-6.7503,-6.8283,-6.8506,-6.8506,-6.8506,-6.8506,-6.8506,-6.865,-6.8791,-6.9027,-6.9504,-6.9701,-6.9997,-7.0671,0.0,0.0,0.0,-7.1291,-7.1291,-7.1291,-7.1291,-7.1291,-7.1291,-7.1291,0.0,0.0,0.0,0.0,0.0,0.0,0.0,-7.1689,-7.1908,0.0,-7.1987,-7.1987,-7.1987,-7.1987,-7.1987,-7.1828,-7.1465,-7.1077,-7.0898,-7.0898,-7.0898,-7.0898,-7.0843,-6.9885,-6.9393,-6.919,-6.8297,-6.7847,-6.7871,-6.9486,-7.011,-7.033,-5.292,-5.292,-5.2775,-5.2339,-5.2281,-5.2687,-5.3754,-5.3884,-5.4451,-5.601,-5.6189,-5.6031,-5.5557,-5.5525,-5.5525,0.0,-5.5525,-5.562,0.0,-5.5841,-5.6745,-5.8687,-5.8767,-5.9554,-6.1218,-6.1289,-6.1289,-6.1289,0.0,0.0,0.0,-6.0806,-6.0047,-5.9806,-5.9254,-5.9012,-5.9012,-5.9012,-5.9012,-5.9012,-5.9249,-5.9679,-6.0282,-6.0282,-6.1068,-6.2166,-6.1951,-6.2308,-6.2805,-6.2805,-6.2805,-6.2805,-6.2805,-6.2855,-6.3064,-6.3811,-6.424,-6.4853,-6.6489,-6.7131,-6.7503,-6.832,-6.8506,-6.8506,-6.8506,-6.8506,-6.8506,-6.865,-6.8828,-6.8975,-6.9166,-6.9504,-6.9963,-7.04,-7.0643,0.0,-7.1269,0.0,-7.1291,-7.1291,-7.1291,-7.1291,-7.1291,-7.1291,0.0,0.0,0.0,0.0,0.0,0.0,0.0,0.0,-7.1908,0.0,-7.1987,-7.1987,-7.1987,-7.1987,-7.1987,-7.1828,-7.1465,-7.1077,-7.0898,-7.0898,-7.0898,-7.0898,-7.0805,-6.9813,-6.9353,-6.919,-6.8198,-6.7741,-6.7834,-6.8898,-6.9633,-7.0257,-5.35,-5.35,-5.3384,-5.2978,-5.3231,-5.3668,-5.451,-5.4931,-5.5501,-5.6766,-5.6979,-5.6979,-5.6979,-5.6979,0.0,-5.622,-5.6189,-5.6315,-5.6568,-5.6568,-5.7515,-5.9481,-5.9595,-6.0393,-6.2151,-6.2151,0.0,-6.2151,-6.2393,-6.2496,-6.2461,-6.122,-6.0599,-6.0565,-5.9806,-5.9461,-5.9426,-5.915,-5.9012,-5.9012,-5.9012,-5.9383,-5.9937,-5.9714,-6.0406,-6.1528,-6.1528,-6.1951,-6.2464,-6.2705,-6.2805,-6.2879,-6.3209,-6.3382,-6.3652,-6.4217,-6.4953,-6.5801,-6.6972,-6.754,-6.7874,-6.8394,-6.8506,-6.8506,-6.8506,-6.8506,-6.8506,-6.865,-6.8828,-6.8929,-6.8983,-6.9294,-6.974,-7.0238,-7.0494,-7.0755,-7.1247,0.0,-7.1407,-7.1756,-7.1794,0.0,0.0,-7.1988,-7.1794,0.0,0.0,0.0,0.0,0.0,0.0,-7.1689,-7.1908,0.0,-7.1987,-7.1987,-7.1987,-7.1987,-7.1854,-7.1704,-7.1465,-7.1077,-7.0898,-7.0898,-7.0898,-7.0898,-7.0805,-6.9738,-6.9313,-6.919,-6.8148,-6.7687,-6.7797,-6.8605,-6.9412,-7.022,-5.35,-5.35,0.0,0.0,-5.42,0.0,-5.5819,-5.6603,-5.7401,-5.8182,-5.8274,-5.8274,-5.8274,-5.8274,-5.7737,-5.6441,0.0,0.0,0.0,-5.7295,-5.8382,-6.0804,-6.092,-6.185,-6.36,-6.36,-6.36,-6.36,-6.291,-6.2565,-6.253,-6.1772,-6.1392,-6.1358,-6.0599,-6.0289,-6.022,-5.9426,-5.9081,-5.9081,-5.9047,-5.9383,-5.9873,-5.9249,-5.9774,-6.082,-6.0879,-6.1322,-6.2005,-6.2676,-6.2915,-6.3062,-6.3906,-6.4365,-6.4561,-6.4561,-6.5767,-6.7135,-6.7306,-6.7948,-6.8506,-6.8506,-6.8506,-6.8506,-6.8506,-6.8506,-6.8554,-6.865,-6.8791,-6.8929,-6.8983,-6.9116,-6.946,-7.0205,-7.0304,-7.0554,-7.1302,-7.1369,-7.1717,0.0,0.0,0.0,-7.3806,-7.3187,-7.2684,0.0,0.0,0.0,0.0,0.0,-7.1687,-7.1689,-7.1906,-7.1975,-7.1987,-7.1987,-7.1987,-7.1987,-7.1667,-7.1481,-7.1465,-7.1077,-7.0898,-7.0898,-7.0898,-7.0898,-7.0805,-6.9738,-6.9313,-6.919,-6.8148,-6.7687,-6.7797,-6.8531,-6.9376,-7.022,0.0,0.0,-5.35,-5.35,-5.42,-5.4988,-5.5819,-5.6603,-5.7401,-5.8182,-5.8274,-5.8274,-5.8274,-5.8274,-5.8148,-5.78,-5.7769,-5.7864,-5.8022,-5.8684,-5.9567,-6.0837,-6.1609,-6.2513,-6.36,-6.36,-6.36,-6.36,-6.3427,-6.3324,-6.3324,-6.2565,-6.222,-6.2186,-6.1392,-6.1047,-6.0978,-6.0254,-5.9909,-5.9875,-5.9254,-5.9081,-5.9182,-5.9081,-5.9482,-6.0282,-6.0736,-6.1322,-6.2114,-6.3387,-6.3796,-6.3943,-6.4751,-6.5617,-6.6297,-6.6297,-6.6741,-6.738,-6.806,-6.8357,-6.8506,-6.8506,-6.8506,-6.8506,-6.8506,-6.8506,-6.8554,-6.8791,-6.8875,-6.8929,-6.9116,-6.916,-6.946,-7.0205,-7.0304,-7.0784,-7.2113,-7.2297,-7.2607,0.0,-7.3574,-7.369,-7.3883,-7.3728,-7.3574,0.0,0.0,0.0,0.0,-7.191,-7.1687,-7.1689,-7.1797,-7.1914,-7.1987,-7.1987,-7.1987,-7.1987,-7.1667,-7.1481,-7.1465,-7.1077,-7.0898,-7.0898,-7.0898,-7.0898,-7.0805,-6.9738,-6.9313,-6.919,-6.8148,-6.7687,-6.7724,-6.7907,-6.8862,-7.011,-5.3559,-5.35,-5.35,-5.35,-5.4509,-5.5421,-5.5819,-5.6892,-5.7778,-5.8274,-5.8274,-5.8274,-5.8274,-5.8274,-5.8274,-5.8274,-5.8274,-5.8274,-5.8274,-5.912,-6.0022,-6.0837,-6.177,-6.2668,-6.36,-6.36,-6.36,-6.36,-6.36,-6.36,-6.36,-6.3186,-6.2979,-6.2944,-6.2186,-6.1841,-6.1806,-6.1013,-6.0703,-6.0668,-6.022,-6.0047,-6.0047,-6.0047,-6.0255,-6.0695,-6.1277,-6.1961,-6.2681,-6.3766,-6.4359,-6.4787,-6.5595,-6.6353,-6.6962,-6.7331,-6.7642,-6.7948,-6.8394,-6.8506,-6.8506,-6.8506,-6.8506,-6.8506,-6.8506,-6.8506,-6.8554,-6.8875,-6.8921,-6.8929,-6.916,-6.9374,-6.9662,-7.0238,-7.0738,-7.1468,-7.2484,-7.2955,-7.3496,-7.4347,-7.4463,-7.4618,-7.5005,-7.4695,-7.4463,-7.4463,-7.369,0.0,-7.2607,-7.2336,-7.2055,-7.1692,-7.1819,-7.1911,-7.1987,-7.1987,-7.1987,-7.1987,-7.1667,-7.1481,-7.1465,-7.1077,-7.0898,-7.0898,-7.0898,-7.0777,-7.0563,-6.9664,-6.919,-6.8928,-6.8084,-6.7687,-6.7687,-6.7687,-6.8715,-7.011,-5.3907,-5.3791,-5.3791,-5.3791,-5.5024,-5.607,-5.607,-5.7337,-5.8274,-5.8274,-5.8274,-5.8274,-5.8274,-5.8274,-5.8274,-5.8274,-5.8274,-5.8367,-5.8518,-5.9355,-6.0194,-6.1086,-6.2009,-6.2855,-6.36,-6.36,-6.36,-6.36,-6.36,-6.36,-6.36,-6.36,-6.36,-6.3565,-6.2944,-6.2668,-6.2599,-6.1806,-6.1496,-6.1461,-6.1358,-6.1289,-6.1289,-6.1289,-6.1289,-6.136,-6.2086,-6.2711,-6.3428,-6.413,-6.4895,-6.5632,-6.6439,-6.6868,-6.722,-6.7885,-6.8309,-6.8506,-6.8506,-6.8506,-6.8506,-6.8506,-6.8506,-6.8506,-6.8506,-6.8506,-6.8554,-6.8875,-6.8921,-6.8929,-6.916,-6.9655,-7.0117,-7.0462,-7.1505,-7.243,-7.2932,0.0,-7.4386,-7.5198,-7.5314,-7.5585,-7.632,-7.574,-7.5314,-7.5314,-7.4541,-7.3728,-7.2877,-7.28,-7.2491,-7.1717,-7.1891,-7.1981,-7.1987,-7.1987,-7.1987,-7.1987,-7.1667,-7.1481,-7.1465,-7.1077,-7.0898,-7.0898,-7.0898,-7.0652,-7.0233,-6.9588,-6.9064,-6.8605,-6.793,-6.7687,-6.7687,-6.7687,-6.8715,-7.011,-5.5126,-5.5126,-5.5126,-5.5126,-5.6006,-5.6768,-5.6768,-5.7648,-5.8274,-5.8274,-5.8274,-5.8274,-5.8274,-5.8274,-5.8274,-5.8274,-5.8274,-5.861,-5.9355,-6.0161,-6.1086,-6.2009,-6.2931,-6.3417,-6.36,-6.36,-6.36,-6.36,-6.36,-6.36,-6.36,-6.36,-6.36,-6.36,-6.3462,-6.3427,-6.3358,-6.2634,-6.2289,-6.2255,-6.1565,-6.1289,-6.1289,-6.1289,-6.1289,-6.136,-6.2086,-6.2711,-6.3535,-6.478,-6.5696,-6.6439,-6.7247,-6.7715,-6.7922,-6.8033,-6.8309,-6.8506,-6.8506,-6.8506,-6.8506,-6.8506,-6.8506,-6.8506,-6.8506,-6.8506,-6.8554,-6.8875,-6.8921,-6.8929,-6.916,-7.007,-7.0952,-7.1341,-7.2379,-7.347,-7.4533,0.0,-7.5237,-7.6088,-7.6204,-7.6243,-7.6397,-7.6281,-7.6204,-7.6204,-7.5392,-7.4579,-7.3822,-7.3209,-7.2551,-7.1816,-7.1799,-7.1873,-7.1987,-7.1987,-7.1987,-7.1987,-7.1667,-7.1481,-7.1465,-7.1077,-7.0898,-7.0898,-7.0898,-7.0652,-7.0233,-6.9588,-6.9064,-6.8605,-6.793,-6.7687,-6.7687,-6.7687,-6.8715,-7.011,-5.5474,-5.5416,-5.5525,-5.6035,-5.6825,-5.7568,-5.807,-5.8871,-5.9222,-5.8875,-5.8843,-5.8685,-5.8306,-5.8274,-5.8274,-5.8274,-5.8274,-5.885,-6.0161,-6.067,-6.1332,-6.2279,-6.3083,-6.36,-6.36,-6.36,-6.36,-6.36,-6.36,-6.36,-6.36,-6.36,-6.36,-6.36,-6.36,-6.36,-6.3565,-6.322,-6.3082,-6.3048,-6.2668,-6.253,-6.253,-6.253,-6.253,-6.2603,-6.2855,-6.3682,-6.4653,-6.532,-6.6214,-6.721,-6.7684,-6.7915,-6.8121,-6.8208,-6.8358,-6.8506,-6.8506,-6.8506,-6.8506,-6.8506,-6.8506,-6.8506,-6.8506,-6.8506,-6.8554,-6.8744,-6.8875,-6.9079,-6.9671,-7.0646,-7.1547,-7.2143,-7.338,0.0,0.0,-7.5508,-7.5933,-7.6359,-7.6397,-7.6397,-7.6397,-7.6397,-7.6397,-7.6397,-7.6011,-7.5469,-7.4734,-7.3995,-7.3237,-7.2534,-7.2112,-7.1947,-7.1987,-7.1987,-7.1987,-7.1987,-7.1667,-7.1481,-7.1465,-7.1077,-7.0898,-7.0898,-7.0898,-7.0532,-6.9849,-6.9472,-6.8884,-6.8198,-6.7863,-6.7687,-6.7687,-6.7687,-6.8715,-7.011,-5.5968,-5.5852,-5.6151,-5.6983,-5.7707,-5.8441,-5.9278,-5.991,-6.0107,-5.9602,-5.9538,-5.9286,-5.859,-5.8527,-5.8464,-5.8274,-5.8274,-5.894,-6.0501,-6.0586,-6.1168,-6.2513,-6.3268,-6.36,-6.36,-6.36,-6.36,-6.36,-6.36,-6.36,-6.36,-6.36,-6.36,-6.36,-6.36,-6.36,-6.36,-6.36,-6.36,-6.36,-6.36,-6.36,-6.36,-6.36,-6.36,-6.36,-6.36,-6.4463,-6.559,-6.559,-6.6523,-6.7741,-6.7847,-6.7967,-6.8158,-6.8259,-6.8408,-6.8506,-6.8506,-6.8506,-6.8506,-6.8506,-6.8506,-6.8506,-6.8506,-6.8506,-6.8554,-6.8697,-6.8978,-6.9415,-7.0188,-7.137,-7.2401,-7.3017,0.0,0.0,0.0,-7.5972,-7.6397,-7.6397,-7.6397,-7.6397,-7.6397,-7.6397,-7.6397,-7.6397,-7.6436,-7.6127,-7.5392,-7.4649,-7.3829,-7.2874,-7.2298,-7.1987,-7.1987,-7.1987,-7.1982,-7.1924,-7.1654,-7.1465,-7.1413,-7.1053,-7.0898,-7.0898,-7.0898,-7.0369,-6.951,-6.9353,-6.875,-6.7899,-6.7741,-6.7687,-6.7687,-6.7687,-6.8715,-7.011,-5.7303,-5.7158,-5.7382,-5.8267,-5.8564,-5.8979,-5.9858,-6.0223,-6.0265,-6.0234,-6.0234,-5.9981,-5.9317,-5.9222,-5.897,-5.8338,-5.8274,-5.8701,-5.9587,-5.9674,-6.0837,-6.3417,-6.36,-6.36,-6.36,-6.36,-6.36,-6.36,-6.36,-6.36,-6.36,-6.36,-6.36,-6.36,-6.36,-6.36,-6.36,-6.36,-6.36,-6.36,-6.36,-6.36,-6.36,-6.36,-6.36,-6.36,-6.36,-6.4463,-6.559,-6.559,-6.6523,-6.7741,-6.7847,-6.7967,-6.8158,-6.8259,-6.8408,-6.8506,-6.8506,-6.8506,-6.8506,-6.8506,-6.8506,-6.8506,-6.8506,-6.8506,-6.8554,-6.8791,-6.9481,-7.0134,-7.0436,-7.2357,-7.393,-7.3972,0.0,0.0,-7.6281,-7.6359,-7.6397,-7.6397,-7.6397,-7.6397,-7.6397,-7.6397,-7.6397,-7.6397,-7.6514,-7.6243,-7.5546,-7.4773,-7.3698,-7.2148,-7.2049,-7.1987,-7.1987,-7.1987,-7.1916,-7.1711,-7.1573,-7.1395,-7.1197,-7.0992,-7.0898,-7.0898,-7.0898,-7.0369,-6.951,-6.9353,-6.875,-6.7899,-6.7741,-6.7687,-6.7687,-6.7687,-6.8715,-7.011,-5.8058,-5.7913,-5.8219,-5.9207,-5.9471,-5.9918,-6.1308,-6.1586,-6.1466,-6.1024,-6.0992,-6.0708,-6.0012,-5.9538,-5.9191,-5.8938,-5.8527,-5.8701,-5.9499,-6.0108,-6.1086,-6.2745,-6.3343,-6.36,-6.36,-6.36,-6.36,-6.36,-6.36,-6.36,-6.36,-6.36,-6.36,-6.36,-6.36,-6.36,-6.36,-6.36,-6.36,-6.36,-6.36,-6.36,-6.36,-6.36,-6.36,-6.36,-6.36,-6.4463,-6.559,-6.559,-6.6523,-6.7741,-6.7952,-6.8018,-6.8121,-6.8358,-6.8457,-6.8506,-6.8506,-6.8506,-6.8506,-6.8506,-6.8506,-6.8506,-6.8506,-6.8554,-6.8799,-6.9378,-6.9892,-7.0608,-7.1982,-7.3232,-7.438,-7.5072,0.0,-7.6397,-7.6397,-7.6397,-7.6397,-7.6397,-7.6397,-7.6397,-7.6397,-7.6397,-7.6397,-7.6397,-7.6514,-7.6493,-7.631,-7.5168,-7.3738,-7.2069,-7.202,-7.2002,-7.1987,-7.1987,-7.1916,-7.17,-7.1559,-7.1377,-7.1214,-7.0992,-7.0898,-7.0898,-7.0622,-7.0099,-6.9353,-6.9058,-6.8464,-6.7794,-6.7741,-6.7687,-6.7687,-6.7687,-6.8715,-7.011,-5.8755,-5.881,-5.9256,-5.9999,-6.041,-6.0978,-6.2247,-6.2446,-6.2256,-6.1782,-6.1719,-6.1435,-6.0708,-6.0234,-5.9886,-5.9633,-5.9001,-5.8836,-5.9441,-6.0378,-6.1413,-6.2668,-6.3268,-6.36,-6.36,-6.36,-6.36,-6.36,-6.36,-6.36,-6.36,-6.36,-6.36,-6.36,-6.36,-6.36,-6.36,-6.36,-6.36,-6.36,-6.36,-6.36,-6.36,-6.36,-6.36,-6.36,-6.36,-6.4463,-6.559,-6.559,-6.6523,-6.7741,-6.8055,-6.8158,-6.8259,-6.8457,-6.8506,-6.8506,-6.8506,-6.8506,-6.8506,-6.8506,-6.8506,-6.8506,-6.8506,-6.8788,-6.9256,-6.9825,-7.0574,-7.1569,-7.3061,-7.3991,-7.4796,-7.5725,-7.6186,-7.6397,-7.6397,-7.6397,-7.6397,-7.6397,-7.6397,-7.6397,-7.6397,-7.6397,-7.6397,-7.6397,-7.6552,-7.6497,-7.6145,-7.5145,-7.3789,-7.2066,-7.1984,-7.201,-7.1987,-7.1987,-7.1862,-7.1641,-7.1544,-7.1358,-7.1101,-7.094,-7.0898,-7.0871,-7.0463,-6.9921,-6.9272,-6.884,-6.8308,-6.7687,-6.7687,-6.7687,-6.7687,-6.7687,-6.8568,-6.9743,-5.9422,-6.0056,-6.0693,-6.0772,-6.1537,-6.2291,-6.2441,-6.2446,-6.2446,-6.2446,-6.2446,-6.2161,-6.1466,-6.1403,-6.1119,-6.036,-5.9696,-5.9317,-5.9317,-6.0326,-6.1656,-6.3526,-6.36,-6.36,-6.36,-6.36,-6.36,-6.36,-6.36,-6.36,-6.36,-6.36,-6.36,-6.36,-6.36,-6.36,-6.36,-6.36,-6.36,-6.36,-6.36,-6.36,-6.36,-6.36,-6.36,-6.36,-6.36,-6.4463,-6.559,-6.559,-6.6523,-6.7741,-6.8055,-6.8309,-6.8506,-6.8506,-6.8506,-6.8506,-6.8506,-6.8506,-6.8506,-6.8506,-6.8506,-6.8506,-6.8506,-6.9235,-6.9937,-7.0116,-7.1565,-7.2966,-7.3449,-7.4485,-7.5446,-7.584,-7.6186,-7.6397,-7.6397,-7.6397,-7.6397,-7.6397,-7.6397,-7.6397,-7.6397,-7.6397,-7.6397,-7.6397,-7.663,-7.6155,-7.4687,-7.4609,-7.3785,-7.2065,-7.201,-7.201,-7.1987,-7.1987,-7.1828,-7.1481,-7.1481,-7.128,-7.0898,-7.0898,-7.0898,-7.0871,-7.0463,-6.9921,-6.9272,-6.884,-6.8259,-6.7687,-6.7687,-6.7687,-6.7687,-6.7687,-6.8201,-6.9009,-6.0238,-6.0789,-6.1605,-6.2334,-6.2743,-6.2976,-6.3167,-6.3173,-6.2983,-6.2509,-6.2446,-6.2351,-6.213,-6.1687,-6.1308,-6.1087,-6.0423,-6.0323,-6.1131,-6.0981,-6.1656,-6.3526,-6.36,-6.36,-6.36,-6.36,-6.36,-6.36,-6.36,-6.36,-6.36,-6.36,-6.36,-6.36,-6.36,-6.36,-6.36,-6.36,-6.36,-6.36,-6.36,-6.36,-6.36,-6.36,-6.36,-6.36,-6.36,-6.4463,-6.559,-6.559,-6.6523,-6.7741,-6.8055,-6.8309,-6.8506,-6.8506,-6.8506,-6.8506,-6.8506,-6.8506,-6.8506,-6.8506,-6.8951,-6.936,-6.936,-7.0102,-7.1077,-7.1723,-7.2635,-7.3601,-7.4561,-7.5293,-7.5831,-7.6212,-7.6311,-7.6397,-7.6397,-7.6397,-7.6397,-7.6397,-7.6397,-7.6397,-7.6397,-7.6397,-7.6436,-7.6514,-7.6808,-7.6271,-7.4687,-7.4609,-7.3785,-7.2065,-7.1997,-7.1997,-7.1987,-7.1862,-7.1677,-7.1481,-7.1339,-7.117,-7.0898,-7.0898,-7.0898,-7.0871,-7.0099,-6.955,-6.9231,-6.8453,-6.7967,-6.7687,-6.7687,-6.7687,-6.7687,-6.7687,-6.8201,-6.9009,-6.0374,-6.1554,-6.2604,-6.304,-6.3698,-6.411,-6.3893,-6.39,-6.3742,-6.3299,-6.3015,-6.2857,-6.2857,-6.2225,-6.1814,-6.1814,-6.115,-6.0927,-6.1426,-6.1363,-6.191,-6.3007,-6.3417,-6.36,-6.36,-6.36,-6.36,-6.36,-6.36,-6.36,-6.36,-6.36,-6.36,-6.36,-6.36,-6.36,-6.36,-6.36,-6.36,-6.36,-6.36,-6.36,-6.36,-6.36,-6.36,-6.36,-6.36,-6.4463,-6.559,-6.559,-6.6605,-6.7899,-6.8018,-6.8309,-6.8506,-6.8506,-6.8506,-6.8506,-6.8506,-6.8729,-6.8989,-6.8989,-6.936,-6.9806,-7.0103,-7.0958,-7.1899,-7.2507,-7.3288,-7.4178,-7.5124,-7.5648,-7.5985,-7.635,-7.6397,-7.6397,-7.6397,-7.6397,-7.6397,-7.6397,-7.6397,-7.6397,-7.6397,-7.6397,-7.6488,-7.6652,-7.6859,-7.631,-7.4687,-7.4609,-7.3786,-7.2041,-7.1993,-7.1987,-7.1987,-7.1749,-7.1587,-7.1481,-7.128,-7.1077,-7.0898,-7.0898,-7.0898,-7.0871,-6.9885,-6.9393,-6.9231,-6.8297,-6.7847,-6.7687,-6.7687,-6.7687,-6.7687,-6.7687,-6.8201,-6.9009,-6.0287,-6.2262,-6.3802,-6.3194,-6.452,-6.5416,-6.4721,-6.4626,-6.4595,-6.4532,-6.3963,-6.3552,-6.3489,-6.292,-6.2509,-6.2446,-6.1782,-6.1186,-6.0857,-6.1599,-6.2166,-6.2381,-6.3152,-6.36,-6.36,-6.36,-6.36,-6.36,-6.36,-6.36,-6.36,-6.36,-6.36,-6.36,-6.36,-6.36,-6.36,-6.36,-6.36,-6.36,-6.36,-6.36,-6.36,-6.36,-6.36,-6.36,-6.36,-6.4463,-6.559,-6.5716,-6.6837,-6.807,-6.807,-6.8309,-6.8506,-6.8506,-6.858,-6.8617,-6.8617,-6.9211,-6.9843,-6.9917,-6.9917,-7.014,-7.0846,-7.1802,-7.2547,-7.2645,-7.3658,-7.4708,-7.5239,-7.5679,-7.6041,-7.6374,-7.6397,-7.6397,-7.6397,-7.6397,-7.6397,-7.6397,-7.6397,-7.6397,-7.6397,-7.6397,-7.6534,-7.6794,-7.6863,-7.6217,-7.4687,-7.4531,-7.371,-7.2059,-7.2002,-7.1987,-7.1987,-7.168,-7.1481,-7.152,-7.126,-7.1053,-7.0898,-7.0898,-7.0871,-7.0777,-6.9885,-6.9393,-6.919,-6.8247,-6.7794,-6.7687,-6.7687,-6.7687,-6.7687,-6.7687,-6.8201,-6.9045,-6.1229,-6.2784,-6.429,-6.562,-6.6154,-6.6143,-6.5448,-6.5353,-6.5132,-6.4595,-6.4374,-6.4089,-6.3552,-6.3362,-6.3046,-6.2477,-6.1782,-6.1599,-6.2188,-6.2071,-6.2283,-6.3045,-6.3426,-6.36,-6.36,-6.36,-6.36,-6.36,-6.36,-6.36,-6.36,-6.36,-6.36,-6.36,-6.36,-6.36,-6.36,-6.36,-6.36,-6.36,-6.36,-6.36,-6.36,-6.36,-6.36,-6.36,-6.36,-6.4463,-6.5779,-6.691,-6.7614,-6.807,-6.807,-6.8309,-6.8506,-6.8506,-6.8951,-6.9472,-6.9472,-7.0029,-7.0809,-7.1478,-7.1663,-7.1701,-7.1886,-7.2657,-7.3404,-7.3504,-7.4299,-7.5017,-7.5274,-7.5861,-7.6326,-7.6397,-7.6397,-7.6397,-7.6397,-7.6397,-7.6397,-7.6397,-7.6397,-7.6397,-7.6397,-7.6591,-7.6753,-7.694,-7.6437,-7.5685,-7.4648,-7.3945,-7.3084,-7.202,-7.2002,-7.1987,-7.1987,-7.168,-7.1481,-7.152,-7.1147,-7.0952,-7.0898,-7.0898,-7.0719,-7.04,-6.9664,-6.9148,-6.875,-6.8033,-6.7741,-6.7687,-6.7687,-6.7687,-6.7687,-6.7687,-6.8201,-6.9119,-6.087,-6.2407,-6.3954,-6.57,-6.6268,-6.6491,-6.6112,-6.608,-6.5922,-6.5574,-6.5227,-6.4879,-6.4532,-6.3868,-6.3204,-6.2477,-6.2098,-6.1914,-6.2013,-6.2713,-6.2913,-6.2714,-6.3572,-6.3945,-6.36,-6.36,-6.36,-6.36,-6.36,-6.36,-6.36,-6.36,-6.36,-6.36,-6.36,-6.36,-6.36,-6.36,-6.36,-6.36,-6.36,-6.36,-6.36,-6.36,-6.36,-6.36,-6.36,-6.4463,-6.5842,-6.7286,-6.7952,-6.807,-6.8208,-6.8358,-6.858,-6.8989,-6.9397,-6.9806,-7.0177,-7.0883,-7.1626,-7.2072,-7.2481,-7.2741,-7.2741,-7.3127,-7.3628,-7.3991,-7.4547,-7.5127,-7.5513,-7.6041,-7.6397,-7.6397,-7.6397,-7.6397,-7.6397,-7.6397,-7.6397,-7.6397,-7.6397,-7.6436,-7.6475,-7.6671,-7.6866,-7.6962,-7.634,-7.5508,-7.4648,-7.3785,-7.2918,-7.202,-7.2002,-7.1937,-7.1862,-7.1601,-7.1448,-7.1339,-7.1067,-7.0898,-7.0898,-7.0898,-7.069,-7.0233,-6.9588,-6.9064,-6.8651,-6.7982,-6.7687,-6.7687,-6.7687,-6.7687,-6.7687,-6.7687,-6.8458,-6.965,-6.0295,-6.1851,-6.3388,-6.5125,-6.6054,-6.6512,-6.6617,-6.6617,-6.6617,-6.6617,-6.6112,-6.5701,-6.5574,-6.431,-6.3236,-6.2667,-6.2509,-6.2193,-6.1624,-6.3042,-6.3375,-6.2444,-6.3736,-6.4243,-6.3807,-6.3669,-6.36,-6.36,-6.36,-6.36,-6.36,-6.36,-6.36,-6.36,-6.36,-6.36,-6.36,-6.36,-6.36,-6.36,-6.36,-6.36,-6.36,-6.36,-6.36,-6.36,-6.36,-6.4463,-6.5842,-6.736,-6.8004,-6.8121,-6.8259,-6.8519,-6.884,-6.9509,-6.9917,-7.0289,-7.0958,-7.1738,-7.2406,-7.2406,-7.2889,-7.3372,-7.3372,-7.3372,-7.3591,-7.4199,-7.4632,-7.5089,-7.5772,-7.6186,-7.6397,-7.6397,-7.6397,-7.6397,-7.6397,-7.6397,-7.6397,-7.6397,-7.6397,-7.6436,-7.663,-7.6738,-7.6883,-7.7002,-7.6177,-7.5351,-7.4648,-7.3615,-7.2739,-7.2014,-7.1997,-7.1916,-7.17,-7.1559,-7.1395,-7.1214,-7.0992,-7.0898,-7.0898,-7.0898,-7.0622,-7.0167,-6.955,-6.9058,-6.8548,-6.793,-6.7687,-6.7687,-6.7687,-6.7687,-6.7724,-6.7981,-6.8935,-7.0181,-6.0899,-6.1969,-6.3273,-6.5623,-6.6192,-6.6299,-6.6617,-6.6617,-6.6617,-6.6617,-6.6523,-6.6238,-6.5638,-6.431,-6.3457,-6.3362,-6.2793,-6.2383,-6.2288,-6.2681,-6.3121,-6.3781,-6.3631,-6.3835,-6.4565,-6.391,-6.36,-6.36,-6.36,-6.36,-6.36,-6.36,-6.36,-6.36,-6.36,-6.36,-6.36,-6.36,-6.36,-6.36,-6.36,-6.36,-6.36,-6.36,-6.36,-6.36,-6.36,-6.4463,-6.5842,-6.736,-6.8004,-6.8121,-6.8259,-6.889,-6.9583,-6.9694,-7.0735,-7.1886,-7.1961,-7.2592,-7.3224,-7.3224,-7.3298,-7.3372,-7.3372,-7.3372,-7.3591,-7.4199,-7.4632,-7.5089,-7.5772,-7.6186,-7.6397,-7.6397,-7.6397,-7.6397,-7.6397,-7.6397,-7.6397,-7.6397,-7.6397,-7.6475,-7.6769,-7.6777,-7.6907,-7.713,-7.5662,-7.4726,-7.4609,-7.3068,-7.2104,-7.1993,-7.1987,-7.1916,-7.17,-7.1559,-7.1395,-7.1214,-7.0992,-7.0898,-7.0898,-7.0898,-7.0501,-6.9777,-6.9433,-6.8884,-6.8171,-6.781,-6.7687,-6.7687,-6.7687,-6.7687,-6.7871,-6.9265,-6.9889,-7.0181,-6.1139,-6.232,-6.3615,-6.5592,-6.6085,-6.6192,-6.6406,-6.6512,-6.6617,-6.6617,-6.6617,-6.6491,-6.6175,-6.5258,-6.4342,-6.3552,-6.3204,-6.2857,-6.2446,-6.3036,-6.3584,-6.4112,-6.4422,-6.4642,-6.4703,-6.4393,-6.4014,-6.36,-6.36,-6.36,-6.36,-6.36,-6.36,-6.36,-6.36,-6.36,-6.36,-6.36,-6.36,-6.36,-6.36,-6.36,-6.36,-6.36,-6.36,-6.3712,-6.4463,-6.5105,-6.5842,-6.736,-6.8004,-6.8195,-6.8777,-6.9335,-6.988,-7.0809,-7.1626,-7.2295,-7.2741,-7.3112,-7.3372,-7.3372,-7.3372,-7.3372,-7.3372,-7.3591,-7.3906,-7.4464,-7.4751,-7.5124,-7.5985,-7.6262,-7.6397,-7.6397,-7.6397,-7.6397,-7.6397,-7.6397,-7.6397,-7.6397,-7.6475,-7.6591,-7.6808,-7.6865,-7.6988,-7.7186,-7.5586,-7.4609,-7.4609,-7.296,-7.2002,-7.1987,-7.187,-7.176,-7.1587,-7.1413,-7.1218,-7.1042,-7.0952,-7.0898,-7.0898,-7.069,-7.0271,-6.9664,-6.9185,-6.8642,-6.807,-6.7794,-6.7687,-6.7687,-6.7687,-6.7687,-6.7871,-6.9486,-7.011,-7.0181]}]]